<?xml version="1.0" encoding="UTF-8" standalone="no" ?>
<gpx xmlns="http://www.topografix.com/GPX/1/1" xmlns:xsi="http://www.w3.org/2001/XMLSchema-instance" xsi:schemaLocation="http://www.topografix.com/GPX/1/1 http://www.topografix.com/GPX/1/1/gpx.xsd" version="1.1" creator="VisuGPX - https://www.visugpx.com">
  <metadata>
    <name>objectif 2022 étape 2</name>
  </metadata>
  <trk>
    <name><![CDATA[objectif 2022]]></name>
    <trkseg>
      <trkpt lat="49.28403" lon="1.21">
        <ele>10.600897</ele>
        <time>2021-09-14T03:54:01.542Z</time>
      </trkpt>
      <trkpt lat="49.28319" lon="1.2107">
        <ele>10.364691</ele>
        <time>2021-09-14T03:54:22.734Z</time>
      </trkpt>
      <trkpt lat="49.28285" lon="1.21105">
        <ele>10.373154</ele>
        <time>2021-09-14T03:54:31.920Z</time>
      </trkpt>
      <trkpt lat="49.28275" lon="1.21116">
        <ele>10.375731</ele>
        <time>2021-09-14T03:54:34.769Z</time>
      </trkpt>
      <trkpt lat="49.28255" lon="1.21141">
        <ele>10.38107</ele>
        <time>2021-09-14T03:54:40.656Z</time>
      </trkpt>
      <trkpt lat="49.28255" lon="1.21141">
        <ele>10.38107</ele>
        <time>2021-09-14T03:54:40.670Z</time>
      </trkpt>
      <trkpt lat="49.28255" lon="1.21141">
        <ele>10.38107</ele>
        <time>2021-09-14T03:54:40.671Z</time>
      </trkpt>
      <trkpt lat="49.28275" lon="1.21116">
        <ele>10.386409</ele>
        <time>2021-09-14T03:54:46.690Z</time>
      </trkpt>
      <trkpt lat="49.28285" lon="1.21105">
        <ele>10.388986</ele>
        <time>2021-09-14T03:54:49.564Z</time>
      </trkpt>
      <trkpt lat="49.28319" lon="1.2107">
        <ele>10.397449</ele>
        <time>2021-09-14T03:54:59.254Z</time>
      </trkpt>
      <trkpt lat="49.28403" lon="1.21">
        <ele>10.589206</ele>
        <time>2021-09-14T03:55:22.412Z</time>
      </trkpt>
      <trkpt lat="49.28451" lon="1.2095">
        <ele>10.734178</ele>
        <time>2021-09-14T03:55:36.964Z</time>
      </trkpt>
      <trkpt lat="49.28469" lon="1.20931">
        <ele>10.787877</ele>
        <time>2021-09-14T03:55:42.119Z</time>
      </trkpt>
      <trkpt lat="49.28478" lon="1.20909">
        <ele>10.828526</ele>
        <time>2021-09-14T03:55:45.944Z</time>
      </trkpt>
      <trkpt lat="49.28541" lon="1.20962">
        <ele>10.639393</ele>
        <time>2021-09-14T03:56:01.956Z</time>
      </trkpt>
      <trkpt lat="49.28557" lon="1.21017">
        <ele>10.514872</ele>
        <time>2021-09-14T03:56:10.659Z</time>
      </trkpt>
      <trkpt lat="49.28558" lon="1.2102">
        <ele>10.507424</ele>
        <time>2021-09-14T03:56:11.071Z</time>
      </trkpt>
      <trkpt lat="49.28562" lon="1.21022">
        <ele>10.494153</ele>
        <time>2021-09-14T03:56:12.068Z</time>
      </trkpt>
      <trkpt lat="49.28586" lon="1.21012">
        <ele>10.416177</ele>
        <time>2021-09-14T03:56:17.375Z</time>
      </trkpt>
      <trkpt lat="49.2861" lon="1.21">
        <ele>10.336821</ele>
        <time>2021-09-14T03:56:22.724Z</time>
      </trkpt>
      <trkpt lat="49.28653" lon="1.20978">
        <ele>10.048715</ele>
        <time>2021-09-14T03:56:32.328Z</time>
      </trkpt>
      <trkpt lat="49.28689" lon="1.20958">
        <ele>9.727701</ele>
        <time>2021-09-14T03:56:39.869Z</time>
      </trkpt>
      <trkpt lat="49.28714" lon="1.20933">
        <ele>9.466797</ele>
        <time>2021-09-14T03:56:46.060Z</time>
      </trkpt>
      <trkpt lat="49.28718" lon="1.2093">
        <ele>9.432516</ele>
        <time>2021-09-14T03:56:46.890Z</time>
      </trkpt>
      <trkpt lat="49.28747" lon="1.20894">
        <ele>9.116617</ele>
        <time>2021-09-14T03:56:54.504Z</time>
      </trkpt>
      <trkpt lat="49.28749" lon="1.20884">
        <ele>9.062456</ele>
        <time>2021-09-14T03:56:55.807Z</time>
      </trkpt>
      <trkpt lat="49.28755" lon="1.20872">
        <ele>8.978955</ele>
        <time>2021-09-14T03:56:57.815Z</time>
      </trkpt>
      <trkpt lat="49.28762" lon="1.2091">
        <ele>8.758398</ele>
        <time>2021-09-14T03:57:02.861Z</time>
      </trkpt>
      <trkpt lat="49.28774" lon="1.20952">
        <ele>8.612081</ele>
        <time>2021-09-14T03:57:08.731Z</time>
      </trkpt>
      <trkpt lat="49.28781" lon="1.20978">
        <ele>8.525628</ele>
        <time>2021-09-14T03:57:12.412Z</time>
      </trkpt>
      <trkpt lat="49.28782" lon="1.20986">
        <ele>8.498882</ele>
        <time>2021-09-14T03:57:13.522Z</time>
      </trkpt>
      <trkpt lat="49.28783" lon="1.20996">
        <ele>8.469009</ele>
        <time>2021-09-14T03:57:14.760Z</time>
      </trkpt>
      <trkpt lat="49.28784" lon="1.21008">
        <ele>8.433462</ele>
        <time>2021-09-14T03:57:16.300Z</time>
      </trkpt>
      <trkpt lat="49.28793" lon="1.21008">
        <ele>8.390541</ele>
        <time>2021-09-14T03:57:18.282Z</time>
      </trkpt>
      <trkpt lat="49.28801" lon="1.21038">
        <ele>8.291958</ele>
        <time>2021-09-14T03:57:22.753Z</time>
      </trkpt>
      <trkpt lat="49.28914" lon="1.21374">
        <ele>7.643975</ele>
        <time>2021-09-14T03:58:17.930Z</time>
      </trkpt>
      <trkpt lat="49.28925" lon="1.21375">
        <ele>7.627091</ele>
        <time>2021-09-14T03:58:20.524Z</time>
      </trkpt>
      <trkpt lat="49.28953" lon="1.21358">
        <ele>7.659642</ele>
        <time>2021-09-14T03:58:27.400Z</time>
      </trkpt>
      <trkpt lat="49.28998" lon="1.21328">
        <ele>7.745258</ele>
        <time>2021-09-14T03:58:38.609Z</time>
      </trkpt>
      <trkpt lat="49.29205" lon="1.2118">
        <ele>8.056684</ele>
        <time>2021-09-14T03:59:31.270Z</time>
      </trkpt>
      <trkpt lat="49.29221" lon="1.21169">
        <ele>8.074859</ele>
        <time>2021-09-14T03:59:35.369Z</time>
      </trkpt>
      <trkpt lat="49.29238" lon="1.21157">
        <ele>8.093451</ele>
        <time>2021-09-14T03:59:39.412Z</time>
      </trkpt>
      <trkpt lat="49.29246" lon="1.21152">
        <ele>8.102198</ele>
        <time>2021-09-14T03:59:41.281Z</time>
      </trkpt>
      <trkpt lat="49.29257" lon="1.21171">
        <ele>8.108334</ele>
        <time>2021-09-14T03:59:44.939Z</time>
      </trkpt>
      <trkpt lat="49.29263" lon="1.21192">
        <ele>8.07541</ele>
        <time>2021-09-14T03:59:48.171Z</time>
      </trkpt>
      <trkpt lat="49.29273" lon="1.2122">
        <ele>8.031379</ele>
        <time>2021-09-14T03:59:55.746Z</time>
      </trkpt>
      <trkpt lat="49.29277" lon="1.21226">
        <ele>8.019953</ele>
        <time>2021-09-14T03:59:57.688Z</time>
      </trkpt>
      <trkpt lat="49.29277" lon="1.21226">
        <ele>8.019953</ele>
        <time>2021-09-14T03:59:57.705Z</time>
      </trkpt>
      <trkpt lat="49.29277" lon="1.21226">
        <ele>8.019953</ele>
        <time>2021-09-14T03:59:57.714Z</time>
      </trkpt>
      <trkpt lat="49.29273" lon="1.2122">
        <ele>8.008528</ele>
        <time>2021-09-14T03:59:59.622Z</time>
      </trkpt>
      <trkpt lat="49.29263" lon="1.21192">
        <ele>7.964497</ele>
        <time>2021-09-14T04:00:07.112Z</time>
      </trkpt>
      <trkpt lat="49.29267" lon="1.21187">
        <ele>7.954123</ele>
        <time>2021-09-14T04:00:08.225Z</time>
      </trkpt>
      <trkpt lat="49.29253" lon="1.2115">
        <ele>7.895243</ele>
        <time>2021-09-14T04:00:14.075Z</time>
      </trkpt>
      <trkpt lat="49.29245" lon="1.21146">
        <ele>7.877688</ele>
        <time>2021-09-14T04:00:15.879Z</time>
      </trkpt>
      <trkpt lat="49.29236" lon="1.21151">
        <ele>7.856937</ele>
        <time>2021-09-14T04:00:17.958Z</time>
      </trkpt>
      <trkpt lat="49.29235" lon="1.21146">
        <ele>7.849812</ele>
        <time>2021-09-14T04:00:18.587Z</time>
      </trkpt>
      <trkpt lat="49.29282" lon="1.21118">
        <ele>7.741585</ele>
        <time>2021-09-14T04:00:29.341Z</time>
      </trkpt>
      <trkpt lat="49.29764" lon="1.20743">
        <ele>6.93383</ele>
        <time>2021-09-14T04:02:26.582Z</time>
      </trkpt>
      <trkpt lat="49.29817" lon="1.20699">
        <ele>6.859104</ele>
        <time>2021-09-14T04:02:39.730Z</time>
      </trkpt>
      <trkpt lat="49.29827" lon="1.20691">
        <ele>6.844755</ele>
        <time>2021-09-14T04:02:42.270Z</time>
      </trkpt>
      <trkpt lat="49.29897" lon="1.20611">
        <ele>6.735579</ele>
        <time>2021-09-14T04:03:01.438Z</time>
      </trkpt>
      <trkpt lat="49.30048" lon="1.20494">
        <ele>6.255155</ele>
        <time>2021-09-14T04:03:37.103Z</time>
      </trkpt>
      <trkpt lat="49.30059" lon="1.20482">
        <ele>6.212735</ele>
        <time>2021-09-14T04:03:39.894Z</time>
      </trkpt>
      <trkpt lat="49.30066" lon="1.20472">
        <ele>6.181707</ele>
        <time>2021-09-14T04:03:41.917Z</time>
      </trkpt>
      <trkpt lat="49.30077" lon="1.20452">
        <ele>6.128433</ele>
        <time>2021-09-14T04:03:45.503Z</time>
      </trkpt>
      <trkpt lat="49.30136" lon="1.20116">
        <ele>5.487195</ele>
        <time>2021-09-14T04:04:33.284Z</time>
      </trkpt>
      <trkpt lat="49.30144" lon="1.20099">
        <ele>5.467706</ele>
        <time>2021-09-14T04:04:36.203Z</time>
      </trkpt>
      <trkpt lat="49.30148" lon="1.20095">
        <ele>5.460527</ele>
        <time>2021-09-14T04:04:37.247Z</time>
      </trkpt>
      <trkpt lat="49.30155" lon="1.20089">
        <ele>5.448729</ele>
        <time>2021-09-14T04:04:39.018Z</time>
      </trkpt>
      <trkpt lat="49.3016" lon="1.20068">
        <ele>5.427824</ele>
        <time>2021-09-14T04:04:42.165Z</time>
      </trkpt>
      <trkpt lat="49.30154" lon="1.20016">
        <ele>5.376927</ele>
        <time>2021-09-14T04:04:49.809Z</time>
      </trkpt>
      <trkpt lat="49.30182" lon="1.19817">
        <ele>5.306842</ele>
        <time>2021-09-14T04:05:19.197Z</time>
      </trkpt>
      <trkpt lat="49.30188" lon="1.1962">
        <ele>5.347893</ele>
        <time>2021-09-14T04:05:48.033Z</time>
      </trkpt>
      <trkpt lat="49.3025" lon="1.19212">
        <ele>5.697279</ele>
        <time>2021-09-14T04:06:50.069Z</time>
      </trkpt>
      <trkpt lat="49.30332" lon="1.18792">
        <ele>6.031885</ele>
        <time>2021-09-14T04:07:55.542Z</time>
      </trkpt>
      <trkpt lat="49.30352" lon="1.18528">
        <ele>6.190104</ele>
        <time>2021-09-14T04:08:33.459Z</time>
      </trkpt>
      <trkpt lat="49.30364" lon="1.18246">
        <ele>7.103641</ele>
        <time>2021-09-14T04:09:17.730Z</time>
      </trkpt>
      <trkpt lat="49.30341" lon="1.18157">
        <ele>7.729882</ele>
        <time>2021-09-14T04:09:34.235Z</time>
      </trkpt>
      <trkpt lat="49.30333" lon="1.18133">
        <ele>7.907297</ele>
        <time>2021-09-14T04:09:39.217Z</time>
      </trkpt>
      <trkpt lat="49.303" lon="1.18104">
        <ele>8.295652</ele>
        <time>2021-09-14T04:09:49.782Z</time>
      </trkpt>
      <trkpt lat="49.30297" lon="1.181">
        <ele>8.339403</ele>
        <time>2021-09-14T04:09:51.032Z</time>
      </trkpt>
      <trkpt lat="49.303" lon="1.18088">
        <ele>8.427963</ele>
        <time>2021-09-14T04:09:53.237Z</time>
      </trkpt>
      <trkpt lat="49.30337" lon="1.18012">
        <ele>9.299142</ele>
        <time>2021-09-14T04:10:11.436Z</time>
      </trkpt>
      <trkpt lat="49.3036" lon="1.17938">
        <ele>10.071646</ele>
        <time>2021-09-14T04:10:27.260Z</time>
      </trkpt>
      <trkpt lat="49.30362" lon="1.179">
        <ele>10.42733</ele>
        <time>2021-09-14T04:10:34.399Z</time>
      </trkpt>
      <trkpt lat="49.30358" lon="1.17855">
        <ele>10.850188</ele>
        <time>2021-09-14T04:10:42.387Z</time>
      </trkpt>
      <trkpt lat="49.30342" lon="1.17817">
        <ele>11.259011</ele>
        <time>2021-09-14T04:10:50.685Z</time>
      </trkpt>
      <trkpt lat="49.30343" lon="1.17776">
        <ele>11.611579</ele>
        <time>2021-09-14T04:10:58.239Z</time>
      </trkpt>
      <trkpt lat="49.3034" lon="1.17743">
        <ele>11.899802</ele>
        <time>2021-09-14T04:11:04.496Z</time>
      </trkpt>
      <trkpt lat="49.30329" lon="1.17697">
        <ele>12.323472</ele>
        <time>2021-09-14T04:11:13.723Z</time>
      </trkpt>
      <trkpt lat="49.3033" lon="1.17644">
        <ele>12.781298</ele>
        <time>2021-09-14T04:11:23.717Z</time>
      </trkpt>
      <trkpt lat="49.30321" lon="1.17555">
        <ele>13.539451</ele>
        <time>2021-09-14T04:11:40.590Z</time>
      </trkpt>
      <trkpt lat="49.3032" lon="1.17451">
        <ele>14.295866</ele>
        <time>2021-09-14T04:11:59.626Z</time>
      </trkpt>
      <trkpt lat="49.30336" lon="1.17269">
        <ele>15.52842</ele>
        <time>2021-09-14T04:12:32.253Z</time>
      </trkpt>
      <trkpt lat="49.30365" lon="1.17066">
        <ele>16.228975</ele>
        <time>2021-09-14T04:13:06.829Z</time>
      </trkpt>
      <trkpt lat="49.30383" lon="1.16893">
        <ele>16.02493</ele>
        <time>2021-09-14T04:13:32.625Z</time>
      </trkpt>
      <trkpt lat="49.30418" lon="1.16682">
        <ele>15.416964</ele>
        <time>2021-09-14T04:14:02.395Z</time>
      </trkpt>
      <trkpt lat="49.3046" lon="1.16393">
        <ele>14.762692</ele>
        <time>2021-09-14T04:14:44.294Z</time>
      </trkpt>
      <trkpt lat="49.30533" lon="1.15965">
        <ele>14.997098</ele>
        <time>2021-09-14T04:15:53.406Z</time>
      </trkpt>
      <trkpt lat="49.30536" lon="1.15909">
        <ele>14.993124</ele>
        <time>2021-09-14T04:16:01.756Z</time>
      </trkpt>
      <trkpt lat="49.30532" lon="1.15899">
        <ele>14.988825</ele>
        <time>2021-09-14T04:16:03.409Z</time>
      </trkpt>
      <trkpt lat="49.30532" lon="1.15853">
        <ele>14.971471</ele>
        <time>2021-09-14T04:16:10.008Z</time>
      </trkpt>
      <trkpt lat="49.30536" lon="1.15822">
        <ele>14.959575</ele>
        <time>2021-09-14T04:16:14.409Z</time>
      </trkpt>
      <trkpt lat="49.30556" lon="1.1571">
        <ele>14.915811</ele>
        <time>2021-09-14T04:16:31.062Z</time>
      </trkpt>
      <trkpt lat="49.30563" lon="1.15677">
        <ele>14.926961</ele>
        <time>2021-09-14T04:16:36.056Z</time>
      </trkpt>
      <trkpt lat="49.30565" lon="1.15663">
        <ele>14.971057</ele>
        <time>2021-09-14T04:16:38.207Z</time>
      </trkpt>
      <trkpt lat="49.30567" lon="1.15654">
        <ele>14.995455</ele>
        <time>2021-09-14T04:16:39.493Z</time>
      </trkpt>
      <trkpt lat="49.30572" lon="1.15625">
        <ele>15.084001</ele>
        <time>2021-09-14T04:16:43.934Z</time>
      </trkpt>
      <trkpt lat="49.30579" lon="1.15587">
        <ele>15.199621</ele>
        <time>2021-09-14T04:16:49.782Z</time>
      </trkpt>
      <trkpt lat="49.30581" lon="1.15576">
        <ele>15.232033</ele>
        <time>2021-09-14T04:16:51.451Z</time>
      </trkpt>
      <trkpt lat="49.3061" lon="1.15331">
        <ele>16.174139</ele>
        <time>2021-09-14T04:17:32.093Z</time>
      </trkpt>
      <trkpt lat="49.30614" lon="1.15297">
        <ele>16.365017</ele>
        <time>2021-09-14T04:17:38.232Z</time>
      </trkpt>
      <trkpt lat="49.30615" lon="1.15149">
        <ele>17.175877</ele>
        <time>2021-09-14T04:18:02.845Z</time>
      </trkpt>
      <trkpt lat="49.30624" lon="1.15067">
        <ele>17.700463</ele>
        <time>2021-09-14T04:18:16.640Z</time>
      </trkpt>
      <trkpt lat="49.30627" lon="1.15025">
        <ele>17.970951</ele>
        <time>2021-09-14T04:18:23.593Z</time>
      </trkpt>
      <trkpt lat="49.30634" lon="1.14909">
        <ele>18.713284</ele>
        <time>2021-09-14T04:18:43.828Z</time>
      </trkpt>
      <trkpt lat="49.30629" lon="1.14868">
        <ele>18.975133</ele>
        <time>2021-09-14T04:18:50.905Z</time>
      </trkpt>
      <trkpt lat="49.30614" lon="1.14777">
        <ele>19.624871</ele>
        <time>2021-09-14T04:19:08.036Z</time>
      </trkpt>
      <trkpt lat="49.30604" lon="1.14696">
        <ele>20.200909</ele>
        <time>2021-09-14T04:19:22.202Z</time>
      </trkpt>
      <trkpt lat="49.30588" lon="1.14683">
        <ele>20.396129</ele>
        <time>2021-09-14T04:19:27.543Z</time>
      </trkpt>
      <trkpt lat="49.3056" lon="1.14681">
        <ele>20.687504</ele>
        <time>2021-09-14T04:19:34.464Z</time>
      </trkpt>
      <trkpt lat="49.30555" lon="1.14674">
        <ele>20.760719</ele>
        <time>2021-09-14T04:19:36.774Z</time>
      </trkpt>
      <trkpt lat="49.30552" lon="1.14678">
        <ele>20.800117</ele>
        <time>2021-09-14T04:19:37.774Z</time>
      </trkpt>
      <trkpt lat="49.30535" lon="1.14673">
        <ele>20.858529</ele>
        <time>2021-09-14T04:19:42.060Z</time>
      </trkpt>
      <trkpt lat="49.30528" lon="1.1467">
        <ele>20.833667</ele>
        <time>2021-09-14T04:19:43.774Z</time>
      </trkpt>
      <trkpt lat="49.30528" lon="1.14668">
        <ele>20.828323</ele>
        <time>2021-09-14T04:19:44.151Z</time>
      </trkpt>
      <trkpt lat="49.30521" lon="1.14659">
        <ele>20.793176</ele>
        <time>2021-09-14T04:19:46.863Z</time>
      </trkpt>
      <trkpt lat="49.3052" lon="1.14659">
        <ele>20.78754</ele>
        <time>2021-09-14T04:19:47.183Z</time>
      </trkpt>
      <trkpt lat="49.30521" lon="1.14649">
        <ele>20.762296</ele>
        <time>2021-09-14T04:19:48.519Z</time>
      </trkpt>
      <trkpt lat="49.30534" lon="1.14497">
        <ele>20.390085</ele>
        <time>2021-09-14T04:20:09.797Z</time>
      </trkpt>
      <trkpt lat="49.30544" lon="1.14438">
        <ele>20.24186</ele>
        <time>2021-09-14T04:20:17.115Z</time>
      </trkpt>
      <trkpt lat="49.3057" lon="1.14283">
        <ele>18.866788</ele>
        <time>2021-09-14T04:20:35.911Z</time>
      </trkpt>
      <trkpt lat="49.30588" lon="1.14165">
        <ele>17.78776</ele>
        <time>2021-09-14T04:20:50.622Z</time>
      </trkpt>
      <trkpt lat="49.30597" lon="1.141">
        <ele>17.580472</ele>
        <time>2021-09-14T04:20:59.285Z</time>
      </trkpt>
      <trkpt lat="49.30598" lon="1.14054">
        <ele>17.451096</ele>
        <time>2021-09-14T04:21:05.413Z</time>
      </trkpt>
      <trkpt lat="49.30597" lon="1.1402">
        <ele>17.355169</ele>
        <time>2021-09-14T04:21:10.025Z</time>
      </trkpt>
      <trkpt lat="49.30591" lon="1.13987">
        <ele>17.259135</ele>
        <time>2021-09-14T04:21:14.590Z</time>
      </trkpt>
      <trkpt lat="49.3059" lon="1.13978">
        <ele>17.231654</ele>
        <time>2021-09-14T04:21:16.079Z</time>
      </trkpt>
      <trkpt lat="49.3056" lon="1.13861">
        <ele>17.065476</ele>
        <time>2021-09-14T04:21:34.007Z</time>
      </trkpt>
      <trkpt lat="49.30553" lon="1.13843">
        <ele>17.113532</ele>
        <time>2021-09-14T04:21:37.152Z</time>
      </trkpt>
      <trkpt lat="49.30549" lon="1.13833">
        <ele>17.141468</ele>
        <time>2021-09-14T04:21:38.903Z</time>
      </trkpt>
      <trkpt lat="49.30513" lon="1.13772">
        <ele>17.332957</ele>
        <time>2021-09-14T04:21:51.991Z</time>
      </trkpt>
      <trkpt lat="49.305" lon="1.13754">
        <ele>17.396131</ele>
        <time>2021-09-14T04:21:56.013Z</time>
      </trkpt>
      <trkpt lat="49.30497" lon="1.1375">
        <ele>17.409763</ele>
        <time>2021-09-14T04:21:56.849Z</time>
      </trkpt>
      <trkpt lat="49.30465" lon="1.13708">
        <ele>17.56117</ele>
        <time>2021-09-14T04:22:07.024Z</time>
      </trkpt>
      <trkpt lat="49.30418" lon="1.13595">
        <ele>18.387516</ele>
        <time>2021-09-14T04:22:29.072Z</time>
      </trkpt>
      <trkpt lat="49.30404" lon="1.13475">
        <ele>19.259004</ele>
        <time>2021-09-14T04:22:51.294Z</time>
      </trkpt>
      <trkpt lat="49.30402" lon="1.13362">
        <ele>19.90435</ele>
        <time>2021-09-14T04:23:11.482Z</time>
      </trkpt>
      <trkpt lat="49.30403" lon="1.13331">
        <ele>20.050406</ele>
        <time>2021-09-14T04:23:16.973Z</time>
      </trkpt>
      <trkpt lat="49.30405" lon="1.13306">
        <ele>20.1687</ele>
        <time>2021-09-14T04:23:21.239Z</time>
      </trkpt>
      <trkpt lat="49.30428" lon="1.13165">
        <ele>20.861818</ele>
        <time>2021-09-14T04:23:44.430Z</time>
      </trkpt>
      <trkpt lat="49.30419" lon="1.13112">
        <ele>20.687677</ele>
        <time>2021-09-14T04:23:52.026Z</time>
      </trkpt>
      <trkpt lat="49.3041" lon="1.13091">
        <ele>20.576628</ele>
        <time>2021-09-14T04:23:55.352Z</time>
      </trkpt>
      <trkpt lat="49.30464" lon="1.1303">
        <ele>20.115434</ele>
        <time>2021-09-14T04:24:08.409Z</time>
      </trkpt>
      <trkpt lat="49.30476" lon="1.13012">
        <ele>19.999827</ele>
        <time>2021-09-14T04:24:11.694Z</time>
      </trkpt>
      <trkpt lat="49.30483" lon="1.12994">
        <ele>19.902951</ele>
        <time>2021-09-14T04:24:14.274Z</time>
      </trkpt>
      <trkpt lat="49.30534" lon="1.12772">
        <ele>18.9653</ele>
        <time>2021-09-14T04:24:43.920Z</time>
      </trkpt>
      <trkpt lat="49.30543" lon="1.1272">
        <ele>18.75842</ele>
        <time>2021-09-14T04:24:51.635Z</time>
      </trkpt>
      <trkpt lat="49.30544" lon="1.12645">
        <ele>18.525331</ele>
        <time>2021-09-14T04:25:03.241Z</time>
      </trkpt>
      <trkpt lat="49.30536" lon="1.12432">
        <ele>18.05701</ele>
        <time>2021-09-14T04:25:35.448Z</time>
      </trkpt>
      <trkpt lat="49.30527" lon="1.12335">
        <ele>16.644435</ele>
        <time>2021-09-14T04:25:46.201Z</time>
      </trkpt>
      <trkpt lat="49.30659" lon="1.12369">
        <ele>12.642728</ele>
        <time>2021-09-14T04:26:25.348Z</time>
      </trkpt>
      <trkpt lat="49.30659" lon="1.12347">
        <ele>12.408378</ele>
        <time>2021-09-14T04:26:29.478Z</time>
      </trkpt>
      <trkpt lat="49.30641" lon="1.12256">
        <ele>11.394389</ele>
        <time>2021-09-14T04:26:47.561Z</time>
      </trkpt>
      <trkpt lat="49.30641" lon="1.12226">
        <ele>11.072635</ele>
        <time>2021-09-14T04:26:53.815Z</time>
      </trkpt>
      <trkpt lat="49.30647" lon="1.12037">
        <ele>9.826976</ele>
        <time>2021-09-14T04:27:39.701Z</time>
      </trkpt>
      <trkpt lat="49.30645" lon="1.11678">
        <ele>10.53927</ele>
        <time>2021-09-14T04:29:10.673Z</time>
      </trkpt>
      <trkpt lat="49.30651" lon="1.11466">
        <ele>10.760628</ele>
        <time>2021-09-14T04:30:02.041Z</time>
      </trkpt>
      <trkpt lat="49.30651" lon="1.11447">
        <ele>10.760922</ele>
        <time>2021-09-14T04:30:06.767Z</time>
      </trkpt>
      <trkpt lat="49.30655" lon="1.11378">
        <ele>10.761961</ele>
        <time>2021-09-14T04:30:17.236Z</time>
      </trkpt>
      <trkpt lat="49.30656" lon="1.11309">
        <ele>10.762997</ele>
        <time>2021-09-14T04:30:27.695Z</time>
      </trkpt>
      <trkpt lat="49.30653" lon="1.11277">
        <ele>10.763487</ele>
        <time>2021-09-14T04:30:32.606Z</time>
      </trkpt>
      <trkpt lat="49.30644" lon="1.11244">
        <ele>10.748529</ele>
        <time>2021-09-14T04:30:37.812Z</time>
      </trkpt>
      <trkpt lat="49.3064" lon="1.11228">
        <ele>10.73922</ele>
        <time>2021-09-14T04:30:40.443Z</time>
      </trkpt>
      <trkpt lat="49.30606" lon="1.11106">
        <ele>10.669596</ele>
        <time>2021-09-14T04:31:00.086Z</time>
      </trkpt>
      <trkpt lat="49.30598" lon="1.11078">
        <ele>10.653325</ele>
        <time>2021-09-14T04:31:04.568Z</time>
      </trkpt>
      <trkpt lat="49.30591" lon="1.11061">
        <ele>10.642921</ele>
        <time>2021-09-14T04:31:07.655Z</time>
      </trkpt>
      <trkpt lat="49.30584" lon="1.11041">
        <ele>10.631147</ele>
        <time>2021-09-14T04:31:10.939Z</time>
      </trkpt>
      <trkpt lat="49.30559" lon="1.10965">
        <ele>10.602897</ele>
        <time>2021-09-14T04:31:23.916Z</time>
      </trkpt>
      <trkpt lat="49.30552" lon="1.10906">
        <ele>10.587465</ele>
        <time>2021-09-14T04:31:32.914Z</time>
      </trkpt>
      <trkpt lat="49.30551" lon="1.10881">
        <ele>10.581163</ele>
        <time>2021-09-14T04:31:36.449Z</time>
      </trkpt>
      <trkpt lat="49.30551" lon="1.10865">
        <ele>10.577209</ele>
        <time>2021-09-14T04:31:38.813Z</time>
      </trkpt>
      <trkpt lat="49.3055" lon="1.10849">
        <ele>10.572953</ele>
        <time>2021-09-14T04:31:41.317Z</time>
      </trkpt>
      <trkpt lat="49.3055" lon="1.10838">
        <ele>10.570253</ele>
        <time>2021-09-14T04:31:42.884Z</time>
      </trkpt>
      <trkpt lat="49.30551" lon="1.10795">
        <ele>10.559396</ele>
        <time>2021-09-14T04:31:49.266Z</time>
      </trkpt>
      <trkpt lat="49.30551" lon="1.10783">
        <ele>10.556261</ele>
        <time>2021-09-14T04:31:51.188Z</time>
      </trkpt>
      <trkpt lat="49.30551" lon="1.10776">
        <ele>10.554432</ele>
        <time>2021-09-14T04:31:52.233Z</time>
      </trkpt>
      <trkpt lat="49.30545" lon="1.10766">
        <ele>10.551138</ele>
        <time>2021-09-14T04:31:54.229Z</time>
      </trkpt>
      <trkpt lat="49.30552" lon="1.10732">
        <ele>10.551464</ele>
        <time>2021-09-14T04:31:59.718Z</time>
      </trkpt>
      <trkpt lat="49.30556" lon="1.10708">
        <ele>10.554874</ele>
        <time>2021-09-14T04:32:03.602Z</time>
      </trkpt>
      <trkpt lat="49.3056" lon="1.1066">
        <ele>10.561283</ele>
        <time>2021-09-14T04:32:10.993Z</time>
      </trkpt>
      <trkpt lat="49.3056" lon="1.10642">
        <ele>10.563674</ele>
        <time>2021-09-14T04:32:13.761Z</time>
      </trkpt>
      <trkpt lat="49.30562" lon="1.10572">
        <ele>10.573</ele>
        <time>2021-09-14T04:32:24.378Z</time>
      </trkpt>
      <trkpt lat="49.30562" lon="1.10534">
        <ele>10.578075</ele>
        <time>2021-09-14T04:32:29.915Z</time>
      </trkpt>
      <trkpt lat="49.30563" lon="1.10505">
        <ele>10.58195</ele>
        <time>2021-09-14T04:32:34.233Z</time>
      </trkpt>
      <trkpt lat="49.30565" lon="1.1048">
        <ele>10.585191</ele>
        <time>2021-09-14T04:32:37.983Z</time>
      </trkpt>
      <trkpt lat="49.30574" lon="1.10425">
        <ele>10.588264</ele>
        <time>2021-09-14T04:32:46.621Z</time>
      </trkpt>
      <trkpt lat="49.30577" lon="1.10394">
        <ele>10.589942</ele>
        <time>2021-09-14T04:32:51.415Z</time>
      </trkpt>
      <trkpt lat="49.30578" lon="1.10371">
        <ele>10.5912</ele>
        <time>2021-09-14T04:32:54.953Z</time>
      </trkpt>
      <trkpt lat="49.3058" lon="1.10339">
        <ele>10.592922</ele>
        <time>2021-09-14T04:32:59.894Z</time>
      </trkpt>
      <trkpt lat="49.30581" lon="1.10317">
        <ele>10.594142</ele>
        <time>2021-09-14T04:33:03.356Z</time>
      </trkpt>
      <trkpt lat="49.30583" lon="1.10236">
        <ele>10.59852</ele>
        <time>2021-09-14T04:33:15.442Z</time>
      </trkpt>
      <trkpt lat="49.30576" lon="1.10127">
        <ele>10.62149</ele>
        <time>2021-09-14T04:33:31.800Z</time>
      </trkpt>
      <trkpt lat="49.30577" lon="1.1009">
        <ele>10.631277</ele>
        <time>2021-09-14T04:33:37.509Z</time>
      </trkpt>
      <trkpt lat="49.30578" lon="1.10081">
        <ele>10.633714</ele>
        <time>2021-09-14T04:33:38.899Z</time>
      </trkpt>
      <trkpt lat="49.3058" lon="1.10055">
        <ele>10.640594</ele>
        <time>2021-09-14T04:33:43.009Z</time>
      </trkpt>
      <trkpt lat="49.30581" lon="1.10029">
        <ele>10.647415</ele>
        <time>2021-09-14T04:33:47.056Z</time>
      </trkpt>
      <trkpt lat="49.30582" lon="1.10016">
        <ele>10.65106</ele>
        <time>2021-09-14T04:33:49.192Z</time>
      </trkpt>
      <trkpt lat="49.3058" lon="1.09882">
        <ele>10.665915</ele>
        <time>2021-09-14T04:34:09.320Z</time>
      </trkpt>
      <trkpt lat="49.30581" lon="1.09873">
        <ele>10.66481</ele>
        <time>2021-09-14T04:34:10.594Z</time>
      </trkpt>
      <trkpt lat="49.30583" lon="1.09811">
        <ele>10.65655</ele>
        <time>2021-09-14T04:34:19.806Z</time>
      </trkpt>
      <trkpt lat="49.30585" lon="1.09778">
        <ele>10.652327</ele>
        <time>2021-09-14T04:34:24.769Z</time>
      </trkpt>
      <trkpt lat="49.30584" lon="1.09727">
        <ele>10.645594</ele>
        <time>2021-09-14T04:34:32.708Z</time>
      </trkpt>
      <trkpt lat="49.30568" lon="1.09646">
        <ele>10.614489</ele>
        <time>2021-09-14T04:34:45.731Z</time>
      </trkpt>
      <trkpt lat="49.30556" lon="1.09598">
        <ele>10.543447</ele>
        <time>2021-09-14T04:34:53.299Z</time>
      </trkpt>
      <trkpt lat="49.30539" lon="1.09533">
        <ele>10.447177</ele>
        <time>2021-09-14T04:35:03.398Z</time>
      </trkpt>
      <trkpt lat="49.30536" lon="1.09517">
        <ele>10.423572</ele>
        <time>2021-09-14T04:35:05.833Z</time>
      </trkpt>
      <trkpt lat="49.30529" lon="1.09457">
        <ele>10.340286</ele>
        <time>2021-09-14T04:35:14.571Z</time>
      </trkpt>
      <trkpt lat="49.3053" lon="1.09385">
        <ele>10.216181</ele>
        <time>2021-09-14T04:35:24.993Z</time>
      </trkpt>
      <trkpt lat="49.3053" lon="1.09358">
        <ele>10.119665</ele>
        <time>2021-09-14T04:35:28.953Z</time>
      </trkpt>
      <trkpt lat="49.3052" lon="1.09274">
        <ele>9.815559</ele>
        <time>2021-09-14T04:35:41.045Z</time>
      </trkpt>
      <trkpt lat="49.30492" lon="1.09042">
        <ele>8.795125</ele>
        <time>2021-09-14T04:36:13.097Z</time>
      </trkpt>
      <trkpt lat="49.30491" lon="1.09033">
        <ele>8.744528</ele>
        <time>2021-09-14T04:36:14.245Z</time>
      </trkpt>
      <trkpt lat="49.30479" lon="1.08989">
        <ele>8.470183</ele>
        <time>2021-09-14T04:36:20.638Z</time>
      </trkpt>
      <trkpt lat="49.30481" lon="1.08958">
        <ele>8.290801</ele>
        <time>2021-09-14T04:36:24.778Z</time>
      </trkpt>
      <trkpt lat="49.30485" lon="1.08926">
        <ele>8.104937</ele>
        <time>2021-09-14T04:36:29.062Z</time>
      </trkpt>
      <trkpt lat="49.30486" lon="1.08866">
        <ele>7.766043</ele>
        <time>2021-09-14T04:36:36.866Z</time>
      </trkpt>
      <trkpt lat="49.30512" lon="1.08702">
        <ele>7.301142</ele>
        <time>2021-09-14T04:36:59.808Z</time>
      </trkpt>
      <trkpt lat="49.30513" lon="1.08638">
        <ele>7.141083</ele>
        <time>2021-09-14T04:37:09.030Z</time>
      </trkpt>
      <trkpt lat="49.30508" lon="1.08597">
        <ele>7.037156</ele>
        <time>2021-09-14T04:37:15.295Z</time>
      </trkpt>
      <trkpt lat="49.3044" lon="1.08246">
        <ele>8.509278</ele>
        <time>2021-09-14T04:38:17.048Z</time>
      </trkpt>
      <trkpt lat="49.30382" lon="1.08091">
        <ele>9.50537</ele>
        <time>2021-09-14T04:38:48.950Z</time>
      </trkpt>
      <trkpt lat="49.30345" lon="1.07958">
        <ele>9.761215</ele>
        <time>2021-09-14T04:39:13.202Z</time>
      </trkpt>
      <trkpt lat="49.30339" lon="1.07938">
        <ele>9.78652</ele>
        <time>2021-09-14T04:39:16.434Z</time>
      </trkpt>
      <trkpt lat="49.30306" lon="1.07801">
        <ele>9.861596</ele>
        <time>2021-09-14T04:39:37.924Z</time>
      </trkpt>
      <trkpt lat="49.30274" lon="1.07681">
        <ele>9.290405</ele>
        <time>2021-09-14T04:39:55.478Z</time>
      </trkpt>
      <trkpt lat="49.30254" lon="1.07587">
        <ele>8.854726</ele>
        <time>2021-09-14T04:40:08.812Z</time>
      </trkpt>
      <trkpt lat="49.3025" lon="1.07564">
        <ele>8.749911</ele>
        <time>2021-09-14T04:40:12.009Z</time>
      </trkpt>
      <trkpt lat="49.3024" lon="1.07477">
        <ele>8.339398</ele>
        <time>2021-09-14T04:40:24.002Z</time>
      </trkpt>
      <trkpt lat="49.30235" lon="1.07436">
        <ele>8.145241</ele>
        <time>2021-09-14T04:40:29.652Z</time>
      </trkpt>
      <trkpt lat="49.30209" lon="1.07319">
        <ele>7.572215</ele>
        <time>2021-09-14T04:40:46.637Z</time>
      </trkpt>
      <trkpt lat="49.30187" lon="1.0725">
        <ele>7.236126</ele>
        <time>2021-09-14T04:40:56.960Z</time>
      </trkpt>
      <trkpt lat="49.3007" lon="1.06909">
        <ele>5.768842</ele>
        <time>2021-09-14T04:41:50.026Z</time>
      </trkpt>
      <trkpt lat="49.30018" lon="1.06781">
        <ele>5.394101</ele>
        <time>2021-09-14T04:42:11.726Z</time>
      </trkpt>
      <trkpt lat="49.29933" lon="1.06474">
        <ele>5.225785</ele>
        <time>2021-09-14T04:43:02.103Z</time>
      </trkpt>
      <trkpt lat="49.29927" lon="1.06462">
        <ele>5.213311</ele>
        <time>2021-09-14T04:43:04.535Z</time>
      </trkpt>
      <trkpt lat="49.29931" lon="1.06444">
        <ele>5.19825</ele>
        <time>2021-09-14T04:43:07.167Z</time>
      </trkpt>
      <trkpt lat="49.29939" lon="1.0642">
        <ele>5.175869</ele>
        <time>2021-09-14T04:43:11.184Z</time>
      </trkpt>
      <trkpt lat="49.30147" lon="1.0633">
        <ele>4.698338</ele>
        <time>2021-09-14T04:43:59.051Z</time>
      </trkpt>
      <trkpt lat="49.3015" lon="1.06317">
        <ele>4.674003</ele>
        <time>2021-09-14T04:44:00.969Z</time>
      </trkpt>
      <trkpt lat="49.3015" lon="1.06297">
        <ele>4.637294</ele>
        <time>2021-09-14T04:44:03.922Z</time>
      </trkpt>
      <trkpt lat="49.30112" lon="1.06091">
        <ele>4.433373</ele>
        <time>2021-09-14T04:44:35.149Z</time>
      </trkpt>
      <trkpt lat="49.30089" lon="1.06033">
        <ele>4.381173</ele>
        <time>2021-09-14T04:44:45.248Z</time>
      </trkpt>
      <trkpt lat="49.30057" lon="1.06001">
        <ele>4.416208</ele>
        <time>2021-09-14T04:44:54.142Z</time>
      </trkpt>
      <trkpt lat="49.29883" lon="1.05897">
        <ele>5.058275</ele>
        <time>2021-09-14T04:45:40.246Z</time>
      </trkpt>
      <trkpt lat="49.29829" lon="1.05843">
        <ele>5.375605</ele>
        <time>2021-09-14T04:45:56.708Z</time>
      </trkpt>
      <trkpt lat="49.29805" lon="1.05807">
        <ele>5.542523</ele>
        <time>2021-09-14T04:46:05.322Z</time>
      </trkpt>
      <trkpt lat="49.29752" lon="1.05705">
        <ele>5.853801</ele>
        <time>2021-09-14T04:46:26.550Z</time>
      </trkpt>
      <trkpt lat="49.29752" lon="1.05705">
        <ele>5.853801</ele>
        <time>2021-09-14T04:46:26.583Z</time>
      </trkpt>
      <trkpt lat="49.29693" lon="1.05523">
        <ele>6.009142</ele>
        <time>2021-09-14T04:46:57.437Z</time>
      </trkpt>
      <trkpt lat="49.29667" lon="1.05443">
        <ele>5.962662</ele>
        <time>2021-09-14T04:47:10.647Z</time>
      </trkpt>
      <trkpt lat="49.29612" lon="1.0515">
        <ele>5.656237</ele>
        <time>2021-09-14T04:47:55.183Z</time>
      </trkpt>
      <trkpt lat="49.29578" lon="1.04971">
        <ele>5.521924</ele>
        <time>2021-09-14T04:48:23.178Z</time>
      </trkpt>
      <trkpt lat="49.29576" lon="1.04955">
        <ele>5.522377</ele>
        <time>2021-09-14T04:48:25.563Z</time>
      </trkpt>
      <trkpt lat="49.29571" lon="1.04925">
        <ele>5.523231</ele>
        <time>2021-09-14T04:48:30.239Z</time>
      </trkpt>
      <trkpt lat="49.29566" lon="1.04898">
        <ele>5.524028</ele>
        <time>2021-09-14T04:48:34.530Z</time>
      </trkpt>
      <trkpt lat="49.29528" lon="1.0469">
        <ele>5.505063</ele>
        <time>2021-09-14T04:49:07.273Z</time>
      </trkpt>
      <trkpt lat="49.29468" lon="1.0444">
        <ele>5.095285</ele>
        <time>2021-09-14T04:49:45.919Z</time>
      </trkpt>
      <trkpt lat="49.29457" lon="1.04403">
        <ele>5.026017</ele>
        <time>2021-09-14T04:49:51.648Z</time>
      </trkpt>
      <trkpt lat="49.29443" lon="1.04281">
        <ele>4.811642</ele>
        <time>2021-09-14T04:50:09.537Z</time>
      </trkpt>
      <trkpt lat="49.29436" lon="1.04207">
        <ele>4.683499</ele>
        <time>2021-09-14T04:50:20.187Z</time>
      </trkpt>
      <trkpt lat="49.29417" lon="1.03978">
        <ele>4.610456</ele>
        <time>2021-09-14T04:50:54.583Z</time>
      </trkpt>
      <trkpt lat="49.29412" lon="1.03911">
        <ele>4.602784</ele>
        <time>2021-09-14T04:51:05.141Z</time>
      </trkpt>
      <trkpt lat="49.29398" lon="1.03759">
        <ele>5.035503</ele>
        <time>2021-09-14T04:51:29.554Z</time>
      </trkpt>
      <trkpt lat="49.29393" lon="1.03565">
        <ele>5.613856</ele>
        <time>2021-09-14T04:52:02.033Z</time>
      </trkpt>
      <trkpt lat="49.29391" lon="1.03549">
        <ele>5.664693</ele>
        <time>2021-09-14T04:52:04.767Z</time>
      </trkpt>
      <trkpt lat="49.29391" lon="1.03544">
        <ele>5.679106</ele>
        <time>2021-09-14T04:52:05.935Z</time>
      </trkpt>
      <trkpt lat="49.29388" lon="1.03535">
        <ele>5.709593</ele>
        <time>2021-09-14T04:52:08.466Z</time>
      </trkpt>
      <trkpt lat="49.2938" lon="1.03517">
        <ele>5.776128</ele>
        <time>2021-09-14T04:52:12.099Z</time>
      </trkpt>
      <trkpt lat="49.29356" lon="1.03352">
        <ele>6.251978</ele>
        <time>2021-09-14T04:52:38.570Z</time>
      </trkpt>
      <trkpt lat="49.2933" lon="1.03253">
        <ele>6.205879</ele>
        <time>2021-09-14T04:52:54.527Z</time>
      </trkpt>
      <trkpt lat="49.29308" lon="1.03128">
        <ele>6.149729</ele>
        <time>2021-09-14T04:53:12.578Z</time>
      </trkpt>
      <trkpt lat="49.29298" lon="1.03088">
        <ele>6.099003</ele>
        <time>2021-09-14T04:53:18.234Z</time>
      </trkpt>
      <trkpt lat="49.29276" lon="1.03043">
        <ele>5.942306</ele>
        <time>2021-09-14T04:53:25.766Z</time>
      </trkpt>
      <trkpt lat="49.29271" lon="1.0303">
        <ele>5.89959</ele>
        <time>2021-09-14T04:53:27.761Z</time>
      </trkpt>
      <trkpt lat="49.29271" lon="1.0301">
        <ele>5.841909</ele>
        <time>2021-09-14T04:53:30.499Z</time>
      </trkpt>
      <trkpt lat="49.29277" lon="1.02981">
        <ele>5.758464</ele>
        <time>2021-09-14T04:53:34.564Z</time>
      </trkpt>
      <trkpt lat="49.29263" lon="1.02901">
        <ele>5.528116</ele>
        <time>2021-09-14T04:53:45.682Z</time>
      </trkpt>
      <trkpt lat="49.29262" lon="1.02834">
        <ele>5.372314</ele>
        <time>2021-09-14T04:53:54.905Z</time>
      </trkpt>
      <trkpt lat="49.29254" lon="1.02815">
        <ele>5.379257</ele>
        <time>2021-09-14T04:53:57.864Z</time>
      </trkpt>
      <trkpt lat="49.29247" lon="1.02794">
        <ele>5.386861</ele>
        <time>2021-09-14T04:54:01.244Z</time>
      </trkpt>
      <trkpt lat="49.29245" lon="1.02696">
        <ele>5.417412</ele>
        <time>2021-09-14T04:54:15.398Z</time>
      </trkpt>
      <trkpt lat="49.29234" lon="1.02616">
        <ele>5.443123</ele>
        <time>2021-09-14T04:54:27.832Z</time>
      </trkpt>
      <trkpt lat="49.29237" lon="1.02542">
        <ele>5.570008</ele>
        <time>2021-09-14T04:54:39.342Z</time>
      </trkpt>
      <trkpt lat="49.29229" lon="1.02491">
        <ele>5.746066</ele>
        <time>2021-09-14T04:54:47.571Z</time>
      </trkpt>
      <trkpt lat="49.29222" lon="1.02248">
        <ele>6.456407</ele>
        <time>2021-09-14T04:55:26.315Z</time>
      </trkpt>
      <trkpt lat="49.29225" lon="1.02159">
        <ele>6.580149</ele>
        <time>2021-09-14T04:55:40.220Z</time>
      </trkpt>
      <trkpt lat="49.29228" lon="1.02076">
        <ele>6.694493</ele>
        <time>2021-09-14T04:55:52.737Z</time>
      </trkpt>
      <trkpt lat="49.29248" lon="1.01546">
        <ele>5.815257</ele>
        <time>2021-09-14T04:57:06.228Z</time>
      </trkpt>
      <trkpt lat="49.29249" lon="1.01443">
        <ele>5.648068</ele>
        <time>2021-09-14T04:57:19.570Z</time>
      </trkpt>
      <trkpt lat="49.2925" lon="1.01267">
        <ele>5.616314</ele>
        <time>2021-09-14T04:57:44.216Z</time>
      </trkpt>
      <trkpt lat="49.29256" lon="1.01258">
        <ele>5.614117</ele>
        <time>2021-09-14T04:57:46.054Z</time>
      </trkpt>
      <trkpt lat="49.29258" lon="1.01203">
        <ele>5.608907</ele>
        <time>2021-09-14T04:57:55.343Z</time>
      </trkpt>
      <trkpt lat="49.29263" lon="1.01063">
        <ele>6.864737</ele>
        <time>2021-09-14T04:58:20.616Z</time>
      </trkpt>
      <trkpt lat="49.29268" lon="1.00981">
        <ele>7.599953</ele>
        <time>2021-09-14T04:58:36.696Z</time>
      </trkpt>
      <trkpt lat="49.29273" lon="1.00933">
        <ele>8.043171</ele>
        <time>2021-09-14T04:58:47.305Z</time>
      </trkpt>
      <trkpt lat="49.29278" lon="1.00914">
        <ele>8.159765</ele>
        <time>2021-09-14T04:58:51.211Z</time>
      </trkpt>
      <trkpt lat="49.29279" lon="1.00875">
        <ele>8.35738</ele>
        <time>2021-09-14T04:58:58.952Z</time>
      </trkpt>
      <trkpt lat="49.29272" lon="1.00871">
        <ele>8.414138</ele>
        <time>2021-09-14T04:59:00.782Z</time>
      </trkpt>
      <trkpt lat="49.29263" lon="1.00868">
        <ele>8.481344</ele>
        <time>2021-09-14T04:59:03.054Z</time>
      </trkpt>
      <trkpt lat="49.29262" lon="1.00858">
        <ele>8.533526</ele>
        <time>2021-09-14T04:59:05.554Z</time>
      </trkpt>
      <trkpt lat="49.29262" lon="1.00827">
        <ele>8.688613</ele>
        <time>2021-09-14T04:59:11.833Z</time>
      </trkpt>
      <trkpt lat="49.29261" lon="1.00825">
        <ele>8.7049</ele>
        <time>2021-09-14T04:59:12.591Z</time>
      </trkpt>
      <trkpt lat="49.29264" lon="1.00794">
        <ele>8.865751</ele>
        <time>2021-09-14T04:59:17.844Z</time>
      </trkpt>
      <trkpt lat="49.29271" lon="1.00728">
        <ele>9.200794</ele>
        <time>2021-09-14T04:59:27.937Z</time>
      </trkpt>
      <trkpt lat="49.29277" lon="1.00665">
        <ele>9.452139</ele>
        <time>2021-09-14T04:59:37.110Z</time>
      </trkpt>
      <trkpt lat="49.29279" lon="1.00655">
        <ele>9.432916</ele>
        <time>2021-09-14T04:59:38.420Z</time>
      </trkpt>
      <trkpt lat="49.29295" lon="1.00567">
        <ele>9.267671</ele>
        <time>2021-09-14T04:59:52.479Z</time>
      </trkpt>
      <trkpt lat="49.29297" lon="1.00541">
        <ele>9.219053</ele>
        <time>2021-09-14T04:59:55.613Z</time>
      </trkpt>
      <trkpt lat="49.29297" lon="1.00534">
        <ele>9.206164</ele>
        <time>2021-09-14T04:59:56.974Z</time>
      </trkpt>
      <trkpt lat="49.29324" lon="1.00437">
        <ele>9.015211</ele>
        <time>2021-09-14T05:00:11.081Z</time>
      </trkpt>
      <trkpt lat="49.29322" lon="1.00429">
        <ele>8.99903</ele>
        <time>2021-09-14T05:00:12.645Z</time>
      </trkpt>
      <trkpt lat="49.2931" lon="1.00418">
        <ele>8.970014</ele>
        <time>2021-09-14T05:00:16.049Z</time>
      </trkpt>
      <trkpt lat="49.29295" lon="1.00405">
        <ele>8.970796</ele>
        <time>2021-09-14T05:00:19.581Z</time>
      </trkpt>
      <trkpt lat="49.29267" lon="1.00388">
        <ele>8.972218</ele>
        <time>2021-09-14T05:00:26.619Z</time>
      </trkpt>
      <trkpt lat="49.2927" lon="1.00366">
        <ele>8.972898</ele>
        <time>2021-09-14T05:00:30.352Z</time>
      </trkpt>
      <trkpt lat="49.29251" lon="1.00356">
        <ele>8.97383</ele>
        <time>2021-09-14T05:00:35.234Z</time>
      </trkpt>
      <trkpt lat="49.29206" lon="1.00343">
        <ele>8.975988</ele>
        <time>2021-09-14T05:00:46.509Z</time>
      </trkpt>
      <trkpt lat="49.29204" lon="1.00349">
        <ele>8.976197</ele>
        <time>2021-09-14T05:00:47.581Z</time>
      </trkpt>
      <trkpt lat="49.29244" lon="1.00364">
        <ele>8.978122</ele>
        <time>2021-09-14T05:00:56.702Z</time>
      </trkpt>
      <trkpt lat="49.29268" lon="1.00377">
        <ele>8.762974</ele>
        <time>2021-09-14T05:01:02.200Z</time>
      </trkpt>
      <trkpt lat="49.29335" lon="1.00419">
        <ele>8.100195</ele>
        <time>2021-09-14T05:01:16.973Z</time>
      </trkpt>
      <trkpt lat="49.2949" lon="1.00517">
        <ele>6.013395</ele>
        <time>2021-09-14T05:01:47.675Z</time>
      </trkpt>
      <trkpt lat="49.2949" lon="1.00517">
        <ele>6.013395</ele>
        <time>2021-09-14T05:01:47.715Z</time>
      </trkpt>
      <trkpt lat="49.29559" lon="1.00558">
        <ele>4.838315</ele>
        <time>2021-09-14T05:02:01.097Z</time>
      </trkpt>
      <trkpt lat="49.29556" lon="1.00566">
        <ele>4.7439</ele>
        <time>2021-09-14T05:02:02.458Z</time>
      </trkpt>
      <trkpt lat="49.29551" lon="1.00569">
        <ele>4.659883</ele>
        <time>2021-09-14T05:02:03.653Z</time>
      </trkpt>
      <trkpt lat="49.29535" lon="1.00561">
        <ele>4.474624</ele>
        <time>2021-09-14T05:02:07.234Z</time>
      </trkpt>
      <trkpt lat="49.29501" lon="1.0055">
        <ele>4.389059</ele>
        <time>2021-09-14T05:02:14.088Z</time>
      </trkpt>
      <trkpt lat="49.29474" lon="1.00534">
        <ele>4.315919</ele>
        <time>2021-09-14T05:02:20.145Z</time>
      </trkpt>
      <trkpt lat="49.29489" lon="1.00487">
        <ele>4.22944</ele>
        <time>2021-09-14T05:02:28.593Z</time>
      </trkpt>
      <trkpt lat="49.29525" lon="1.00377">
        <ele>4.06204</ele>
        <time>2021-09-14T05:02:47.505Z</time>
      </trkpt>
      <trkpt lat="49.29535" lon="1.00333">
        <ele>4.196724</ele>
        <time>2021-09-14T05:02:54.797Z</time>
      </trkpt>
      <trkpt lat="49.29549" lon="1.00341">
        <ele>4.264549</ele>
        <time>2021-09-14T05:02:58.646Z</time>
      </trkpt>
      <trkpt lat="49.2957" lon="1.0036">
        <ele>4.375262</ele>
        <time>2021-09-14T05:03:04.962Z</time>
      </trkpt>
      <trkpt lat="49.29578" lon="1.00393">
        <ele>4.478542</ele>
        <time>2021-09-14T05:03:10.590Z</time>
      </trkpt>
      <trkpt lat="49.29582" lon="1.00397">
        <ele>4.498743</ele>
        <time>2021-09-14T05:03:11.750Z</time>
      </trkpt>
      <trkpt lat="49.29587" lon="1.00394">
        <ele>4.52329</ele>
        <time>2021-09-14T05:03:13.113Z</time>
      </trkpt>
      <trkpt lat="49.29601" lon="1.00365">
        <ele>4.628387</ele>
        <time>2021-09-14T05:03:18.570Z</time>
      </trkpt>
      <trkpt lat="49.29608" lon="1.00356">
        <ele>4.670057</ele>
        <time>2021-09-14T05:03:20.775Z</time>
      </trkpt>
      <trkpt lat="49.29608" lon="1.00356">
        <ele>4.670057</ele>
        <time>2021-09-14T05:03:20.785Z</time>
      </trkpt>
      <trkpt lat="49.29613" lon="1.00356">
        <ele>4.688915</ele>
        <time>2021-09-14T05:03:21.770Z</time>
      </trkpt>
      <trkpt lat="49.29643" lon="1.00407">
        <ele>5.009312</ele>
        <time>2021-09-14T05:03:33.154Z</time>
      </trkpt>
      <trkpt lat="49.29688" lon="1.00467">
        <ele>6.070833</ele>
        <time>2021-09-14T05:03:50.675Z</time>
      </trkpt>
      <trkpt lat="49.29693" lon="1.00482">
        <ele>6.261695</ele>
        <time>2021-09-14T05:03:53.822Z</time>
      </trkpt>
      <trkpt lat="49.29695" lon="1.00521">
        <ele>6.707837</ele>
        <time>2021-09-14T05:04:02.112Z</time>
      </trkpt>
      <trkpt lat="49.29696" lon="1.00547">
        <ele>7.008706</ele>
        <time>2021-09-14T05:04:07.016Z</time>
      </trkpt>
      <trkpt lat="49.29705" lon="1.0056">
        <ele>7.231139</ele>
        <time>2021-09-14T05:04:11.698Z</time>
      </trkpt>
      <trkpt lat="49.29736" lon="1.00588">
        <ele>7.864735</ele>
        <time>2021-09-14T05:04:23.182Z</time>
      </trkpt>
      <trkpt lat="49.29768" lon="1.0062">
        <ele>8.513829</ele>
        <time>2021-09-14T05:04:35.467Z</time>
      </trkpt>
      <trkpt lat="49.29793" lon="1.00632">
        <ele>8.947813</ele>
        <time>2021-09-14T05:04:43.513Z</time>
      </trkpt>
      <trkpt lat="49.29796" lon="1.00626">
        <ele>9.032372</ele>
        <time>2021-09-14T05:04:45.488Z</time>
      </trkpt>
      <trkpt lat="49.29843" lon="1.00551">
        <ele>10.173394</ele>
        <time>2021-09-14T05:05:06.807Z</time>
      </trkpt>
      <trkpt lat="49.29884" lon="1.00467">
        <ele>11.003902</ele>
        <time>2021-09-14T05:05:24.977Z</time>
      </trkpt>
      <trkpt lat="49.29887" lon="1.0046">
        <ele>10.992161</ele>
        <time>2021-09-14T05:05:26.418Z</time>
      </trkpt>
      <trkpt lat="49.29895" lon="1.00444">
        <ele>10.964088</ele>
        <time>2021-09-14T05:05:29.345Z</time>
      </trkpt>
      <trkpt lat="49.29905" lon="1.0042">
        <ele>10.925332</ele>
        <time>2021-09-14T05:05:33.403Z</time>
      </trkpt>
      <trkpt lat="49.29911" lon="1.00409">
        <ele>10.906702</ele>
        <time>2021-09-14T05:05:35.326Z</time>
      </trkpt>
      <trkpt lat="49.29935" lon="1.00361">
        <ele>10.822569</ele>
        <time>2021-09-14T05:05:43.937Z</time>
      </trkpt>
      <trkpt lat="49.29939" lon="1.00354">
        <ele>10.809191</ele>
        <time>2021-09-14T05:05:45.272Z</time>
      </trkpt>
      <trkpt lat="49.29946" lon="1.0034">
        <ele>10.785786</ele>
        <time>2021-09-14T05:05:47.637Z</time>
      </trkpt>
      <trkpt lat="49.29954" lon="1.00325">
        <ele>10.758794</ele>
        <time>2021-09-14T05:05:50.402Z</time>
      </trkpt>
      <trkpt lat="49.29963" lon="1.00312">
        <ele>10.733401</ele>
        <time>2021-09-14T05:05:52.955Z</time>
      </trkpt>
      <trkpt lat="49.29971" lon="1.00302">
        <ele>10.711173</ele>
        <time>2021-09-14T05:05:55.163Z</time>
      </trkpt>
      <trkpt lat="49.29974" lon="1.00298">
        <ele>10.702649</ele>
        <time>2021-09-14T05:05:56.035Z</time>
      </trkpt>
      <trkpt lat="49.29986" lon="1.00284">
        <ele>10.670338</ele>
        <time>2021-09-14T05:05:59.306Z</time>
      </trkpt>
      <trkpt lat="49.30003" lon="1.00265">
        <ele>10.571914</ele>
        <time>2021-09-14T05:06:03.502Z</time>
      </trkpt>
      <trkpt lat="49.30019" lon="1.00251">
        <ele>10.462244</ele>
        <time>2021-09-14T05:06:07.516Z</time>
      </trkpt>
      <trkpt lat="49.30038" lon="1.00237">
        <ele>10.339504</ele>
        <time>2021-09-14T05:06:12.047Z</time>
      </trkpt>
      <trkpt lat="49.30102" lon="1.00203">
        <ele>9.946225</ele>
        <time>2021-09-14T05:06:26.536Z</time>
      </trkpt>
      <trkpt lat="49.30178" lon="1.00182">
        <ele>9.491893</ele>
        <time>2021-09-14T05:06:42.868Z</time>
      </trkpt>
      <trkpt lat="49.30202" lon="1.00181">
        <ele>9.347449</ele>
        <time>2021-09-14T05:06:47.880Z</time>
      </trkpt>
      <trkpt lat="49.30236" lon="1.0018">
        <ele>9.141299</ele>
        <time>2021-09-14T05:06:55.102Z</time>
      </trkpt>
      <trkpt lat="49.30261" lon="1.00179">
        <ele>8.992054</ele>
        <time>2021-09-14T05:07:00.387Z</time>
      </trkpt>
      <trkpt lat="49.30277" lon="1.00175">
        <ele>8.892249</ele>
        <time>2021-09-14T05:07:03.814Z</time>
      </trkpt>
      <trkpt lat="49.30361" lon="1.0016">
        <ele>8.386687</ele>
        <time>2021-09-14T05:07:21.597Z</time>
      </trkpt>
      <trkpt lat="49.30431" lon="1.00147">
        <ele>7.966845</ele>
        <time>2021-09-14T05:07:36.514Z</time>
      </trkpt>
      <trkpt lat="49.3047" lon="1.00149">
        <ele>7.739087</ele>
        <time>2021-09-14T05:07:44.688Z</time>
      </trkpt>
      <trkpt lat="49.30485" lon="1.0015">
        <ele>7.64626</ele>
        <time>2021-09-14T05:07:47.970Z</time>
      </trkpt>
      <trkpt lat="49.30649" lon="1.00215">
        <ele>7.216879</ele>
        <time>2021-09-14T05:08:25.244Z</time>
      </trkpt>
      <trkpt lat="49.3072" lon="1.0024">
        <ele>7.171789</ele>
        <time>2021-09-14T05:08:42.580Z</time>
      </trkpt>
      <trkpt lat="49.30731" lon="1.00242">
        <ele>7.182157</ele>
        <time>2021-09-14T05:08:45.369Z</time>
      </trkpt>
      <trkpt lat="49.30762" lon="1.00242">
        <ele>7.211584</ele>
        <time>2021-09-14T05:08:52.972Z</time>
      </trkpt>
      <trkpt lat="49.30768" lon="1.00246">
        <ele>7.217041</ele>
        <time>2021-09-14T05:08:54.500Z</time>
      </trkpt>
      <trkpt lat="49.30773" lon="1.00254">
        <ele>7.224078</ele>
        <time>2021-09-14T05:08:56.357Z</time>
      </trkpt>
      <trkpt lat="49.30787" lon="1.00276">
        <ele>7.24262</ele>
        <time>2021-09-14T05:09:01.071Z</time>
      </trkpt>
      <trkpt lat="49.30797" lon="1.00292">
        <ele>7.255933</ele>
        <time>2021-09-14T05:09:04.760Z</time>
      </trkpt>
      <trkpt lat="49.30798" lon="1.00282">
        <ele>7.261791</ele>
        <time>2021-09-14T05:09:06.935Z</time>
      </trkpt>
      <trkpt lat="49.3085" lon="1.00181">
        <ele>7.106875</ele>
        <time>2021-09-14T05:09:37.908Z</time>
      </trkpt>
      <trkpt lat="49.30918" lon="1.00066">
        <ele>6.470226</ele>
        <time>2021-09-14T05:10:12.306Z</time>
      </trkpt>
      <trkpt lat="49.30924" lon="1.0005">
        <ele>6.39384</ele>
        <time>2021-09-14T05:10:16.280Z</time>
      </trkpt>
      <trkpt lat="49.31105" lon="0.99774">
        <ele>5.647602</ele>
        <time>2021-09-14T05:11:09.056Z</time>
      </trkpt>
      <trkpt lat="49.31131" lon="0.9974">
        <ele>5.856917</ele>
        <time>2021-09-14T05:11:17.979Z</time>
      </trkpt>
      <trkpt lat="49.31165" lon="0.99705">
        <ele>6.107689</ele>
        <time>2021-09-14T05:11:28.464Z</time>
      </trkpt>
      <trkpt lat="49.31201" lon="0.99669">
        <ele>6.367951</ele>
        <time>2021-09-14T05:11:39.705Z</time>
      </trkpt>
      <trkpt lat="49.31207" lon="0.99681">
        <ele>6.427513</ele>
        <time>2021-09-14T05:11:42.304Z</time>
      </trkpt>
      <trkpt lat="49.31234" lon="0.99651">
        <ele>6.630372</ele>
        <time>2021-09-14T05:11:51.801Z</time>
      </trkpt>
      <trkpt lat="49.31248" lon="0.9964">
        <ele>6.728295</ele>
        <time>2021-09-14T05:11:56.544Z</time>
      </trkpt>
      <trkpt lat="49.31251" lon="0.9965">
        <ele>6.771505</ele>
        <time>2021-09-14T05:11:58.196Z</time>
      </trkpt>
      <trkpt lat="49.31256" lon="0.99672">
        <ele>6.86314</ele>
        <time>2021-09-14T05:12:02.070Z</time>
      </trkpt>
      <trkpt lat="49.31276" lon="0.99711">
        <ele>7.055129</ele>
        <time>2021-09-14T05:12:09.987Z</time>
      </trkpt>
      <trkpt lat="49.31295" lon="0.99741">
        <ele>7.219568</ele>
        <time>2021-09-14T05:12:16.484Z</time>
      </trkpt>
      <trkpt lat="49.31301" lon="0.99751">
        <ele>7.276082</ele>
        <time>2021-09-14T05:12:18.674Z</time>
      </trkpt>
      <trkpt lat="49.31309" lon="0.99763">
        <ele>7.344542</ele>
        <time>2021-09-14T05:12:21.246Z</time>
      </trkpt>
      <trkpt lat="49.31317" lon="0.99775">
        <ele>7.413433</ele>
        <time>2021-09-14T05:12:23.692Z</time>
      </trkpt>
      <trkpt lat="49.31404" lon="0.99919">
        <ele>7.965711</ele>
        <time>2021-09-14T05:12:53.390Z</time>
      </trkpt>
      <trkpt lat="49.31415" lon="0.99938">
        <ele>8.032925</ele>
        <time>2021-09-14T05:12:57.825Z</time>
      </trkpt>
      <trkpt lat="49.31421" lon="0.99948">
        <ele>8.067351</ele>
        <time>2021-09-14T05:13:00.014Z</time>
      </trkpt>
      <trkpt lat="49.31416" lon="0.99972">
        <ele>8.130474</ele>
        <time>2021-09-14T05:13:03.785Z</time>
      </trkpt>
      <trkpt lat="49.31434" lon="0.99979">
        <ele>8.202114</ele>
        <time>2021-09-14T05:13:08.476Z</time>
      </trkpt>
      <trkpt lat="49.31461" lon="1">
        <ele>8.307624</ele>
        <time>2021-09-14T05:13:15.746Z</time>
      </trkpt>
      <trkpt lat="49.31514" lon="1.00065">
        <ele>8.501939</ele>
        <time>2021-09-14T05:13:31.779Z</time>
      </trkpt>
      <trkpt lat="49.31608" lon="1.00185">
        <ele>8.770956</ele>
        <time>2021-09-14T05:14:00.036Z</time>
      </trkpt>
      <trkpt lat="49.31689" lon="1.00302">
        <ele>8.657963</ele>
        <time>2021-09-14T05:14:23.959Z</time>
      </trkpt>
      <trkpt lat="49.31831" lon="1.00543">
        <ele>8.44325</ele>
        <time>2021-09-14T05:15:09.795Z</time>
      </trkpt>
      <trkpt lat="49.31994" lon="1.00839">
        <ele>9.081545</ele>
        <time>2021-09-14T05:16:08.953Z</time>
      </trkpt>
      <trkpt lat="49.3203" lon="1.00917">
        <ele>9.257705</ele>
        <time>2021-09-14T05:16:23.651Z</time>
      </trkpt>
      <trkpt lat="49.32106" lon="1.0109">
        <ele>9.464608</ele>
        <time>2021-09-14T05:16:55.022Z</time>
      </trkpt>
      <trkpt lat="49.32138" lon="1.01165">
        <ele>9.491102</ele>
        <time>2021-09-14T05:17:08.024Z</time>
      </trkpt>
      <trkpt lat="49.3216" lon="1.01238">
        <ele>9.503047</ele>
        <time>2021-09-14T05:17:19.524Z</time>
      </trkpt>
      <trkpt lat="49.32279" lon="1.01641">
        <ele>9.158968</ele>
        <time>2021-09-14T05:18:22.009Z</time>
      </trkpt>
      <trkpt lat="49.32309" lon="1.01779">
        <ele>9.092888</ele>
        <time>2021-09-14T05:18:43.081Z</time>
      </trkpt>
      <trkpt lat="49.32332" lon="1.0184">
        <ele>9.078787</ele>
        <time>2021-09-14T05:18:53.288Z</time>
      </trkpt>
      <trkpt lat="49.32385" lon="1.02128">
        <ele>9.08938</ele>
        <time>2021-09-14T05:19:36.583Z</time>
      </trkpt>
      <trkpt lat="49.32428" lon="1.02269">
        <ele>9.166962</ele>
        <time>2021-09-14T05:19:59.464Z</time>
      </trkpt>
      <trkpt lat="49.32462" lon="1.02517">
        <ele>9.62587</ele>
        <time>2021-09-14T05:20:38.393Z</time>
      </trkpt>
      <trkpt lat="49.32482" lon="1.02598">
        <ele>9.62938</ele>
        <time>2021-09-14T05:20:51.076Z</time>
      </trkpt>
      <trkpt lat="49.32487" lon="1.02615">
        <ele>9.628938</ele>
        <time>2021-09-14T05:20:54.221Z</time>
      </trkpt>
      <trkpt lat="49.32493" lon="1.02648">
        <ele>9.62812</ele>
        <time>2021-09-14T05:20:58.898Z</time>
      </trkpt>
      <trkpt lat="49.32494" lon="1.02759">
        <ele>9.625466</ele>
        <time>2021-09-14T05:21:14.738Z</time>
      </trkpt>
      <trkpt lat="49.32524" lon="1.03022">
        <ele>9.519057</ele>
        <time>2021-09-14T05:21:52.091Z</time>
      </trkpt>
      <trkpt lat="49.32558" lon="1.03435">
        <ele>10.517634</ele>
        <time>2021-09-14T05:22:57.415Z</time>
      </trkpt>
      <trkpt lat="49.32611" lon="1.03909">
        <ele>11.142018</ele>
        <time>2021-09-14T05:24:11.041Z</time>
      </trkpt>
      <trkpt lat="49.32631" lon="1.04153">
        <ele>10.022227</ele>
        <time>2021-09-14T05:24:42.416Z</time>
      </trkpt>
      <trkpt lat="49.3264" lon="1.04253">
        <ele>9.240177</ele>
        <time>2021-09-14T05:24:54.715Z</time>
      </trkpt>
      <trkpt lat="49.32642" lon="1.04282">
        <ele>9.011527</ele>
        <time>2021-09-14T05:24:58.321Z</time>
      </trkpt>
      <trkpt lat="49.32654" lon="1.04356">
        <ele>8.411792</ele>
        <time>2021-09-14T05:25:07.771Z</time>
      </trkpt>
      <trkpt lat="49.32694" lon="1.04536">
        <ele>7.116551</ele>
        <time>2021-09-14T05:25:30.826Z</time>
      </trkpt>
      <trkpt lat="49.32702" lon="1.04616">
        <ele>6.607329</ele>
        <time>2021-09-14T05:25:41.228Z</time>
      </trkpt>
      <trkpt lat="49.32708" lon="1.04655">
        <ele>6.35532</ele>
        <time>2021-09-14T05:25:46.323Z</time>
      </trkpt>
      <trkpt lat="49.32736" lon="1.04859">
        <ele>5.77317</ele>
        <time>2021-09-14T05:26:14.574Z</time>
      </trkpt>
      <trkpt lat="49.32941" lon="1.05648">
        <ele>5.449455</ele>
        <time>2021-09-14T05:28:16.078Z</time>
      </trkpt>
      <trkpt lat="49.32949" lon="1.05674">
        <ele>5.471685</ele>
        <time>2021-09-14T05:28:20.285Z</time>
      </trkpt>
      <trkpt lat="49.32979" lon="1.05747">
        <ele>5.682699</ele>
        <time>2021-09-14T05:28:34.357Z</time>
      </trkpt>
      <trkpt lat="49.33055" lon="1.05986">
        <ele>6.883094</ele>
        <time>2021-09-14T05:29:18.452Z</time>
      </trkpt>
      <trkpt lat="49.33106" lon="1.06096">
        <ele>7.260176</ele>
        <time>2021-09-14T05:29:39.691Z</time>
      </trkpt>
      <trkpt lat="49.33192" lon="1.0631">
        <ele>7.673432</ele>
        <time>2021-09-14T05:30:17.640Z</time>
      </trkpt>
      <trkpt lat="49.33199" lon="1.06328">
        <ele>7.687689</ele>
        <time>2021-09-14T05:30:20.720Z</time>
      </trkpt>
      <trkpt lat="49.33237" lon="1.06421">
        <ele>7.761456</ele>
        <time>2021-09-14T05:30:36.515Z</time>
      </trkpt>
      <trkpt lat="49.3327" lon="1.06522">
        <ele>7.699321</ele>
        <time>2021-09-14T05:30:52.712Z</time>
      </trkpt>
      <trkpt lat="49.33275" lon="1.06547">
        <ele>7.682556</ele>
        <time>2021-09-14T05:30:56.327Z</time>
      </trkpt>
      <trkpt lat="49.33288" lon="1.06616">
        <ele>7.635177</ele>
        <time>2021-09-14T05:31:06.711Z</time>
      </trkpt>
      <trkpt lat="49.3335" lon="1.06887">
        <ele>7.315364</ele>
        <time>2021-09-14T05:31:46.878Z</time>
      </trkpt>
      <trkpt lat="49.33396" lon="1.07058">
        <ele>7.22139</ele>
        <time>2021-09-14T05:32:13.148Z</time>
      </trkpt>
      <trkpt lat="49.33411" lon="1.07106">
        <ele>7.214852</ele>
        <time>2021-09-14T05:32:20.832Z</time>
      </trkpt>
      <trkpt lat="49.33489" lon="1.07382">
        <ele>7.74989</ele>
        <time>2021-09-14T05:33:05.589Z</time>
      </trkpt>
      <trkpt lat="49.3353" lon="1.07512">
        <ele>8.468444</ele>
        <time>2021-09-14T05:33:30.421Z</time>
      </trkpt>
      <trkpt lat="49.3354" lon="1.07541">
        <ele>8.709686</ele>
        <time>2021-09-14T05:33:35.846Z</time>
      </trkpt>
      <trkpt lat="49.33556" lon="1.07586">
        <ele>9.085073</ele>
        <time>2021-09-14T05:33:44.566Z</time>
      </trkpt>
      <trkpt lat="49.3356" lon="1.07598">
        <ele>9.187074</ele>
        <time>2021-09-14T05:33:47.177Z</time>
      </trkpt>
      <trkpt lat="49.33661" lon="1.07914">
        <ele>12.345495</ele>
        <time>2021-09-14T05:34:50.825Z</time>
      </trkpt>
      <trkpt lat="49.33663" lon="1.07918">
        <ele>12.386267</ele>
        <time>2021-09-14T05:34:51.591Z</time>
      </trkpt>
      <trkpt lat="49.33672" lon="1.07948">
        <ele>12.726894</ele>
        <time>2021-09-14T05:34:57.943Z</time>
      </trkpt>
      <trkpt lat="49.33705" lon="1.08051">
        <ele>14.58772</ele>
        <time>2021-09-14T05:35:20.645Z</time>
      </trkpt>
      <trkpt lat="49.33724" lon="1.08106">
        <ele>15.598016</ele>
        <time>2021-09-14T05:35:34.057Z</time>
      </trkpt>
      <trkpt lat="49.33779" lon="1.08263">
        <ele>18.33939</ele>
        <time>2021-09-14T05:36:14.018Z</time>
      </trkpt>
      <trkpt lat="49.33785" lon="1.0828">
        <ele>18.630103</ele>
        <time>2021-09-14T05:36:18.845Z</time>
      </trkpt>
      <trkpt lat="49.33795" lon="1.083">
        <ele>19.011187</ele>
        <time>2021-09-14T05:36:23.864Z</time>
      </trkpt>
      <trkpt lat="49.33797" lon="1.08302">
        <ele>19.052688</ele>
        <time>2021-09-14T05:36:24.502Z</time>
      </trkpt>
      <trkpt lat="49.33796" lon="1.08305">
        <ele>19.095825</ele>
        <time>2021-09-14T05:36:25.012Z</time>
      </trkpt>
      <trkpt lat="49.33797" lon="1.08308">
        <ele>19.141866</ele>
        <time>2021-09-14T05:36:25.529Z</time>
      </trkpt>
      <trkpt lat="49.33797" lon="1.08311">
        <ele>19.18642</ele>
        <time>2021-09-14T05:36:26.147Z</time>
      </trkpt>
      <trkpt lat="49.33799" lon="1.08313">
        <ele>19.230557</ele>
        <time>2021-09-14T05:36:26.790Z</time>
      </trkpt>
      <trkpt lat="49.33801" lon="1.08315">
        <ele>19.276053</ele>
        <time>2021-09-14T05:36:27.492Z</time>
      </trkpt>
      <trkpt lat="49.33803" lon="1.08315">
        <ele>19.319291</ele>
        <time>2021-09-14T05:36:28.217Z</time>
      </trkpt>
      <trkpt lat="49.33808" lon="1.08308">
        <ele>19.483898</ele>
        <time>2021-09-14T05:36:30.474Z</time>
      </trkpt>
      <trkpt lat="49.33809" lon="1.08306">
        <ele>19.527445</ele>
        <time>2021-09-14T05:36:31.025Z</time>
      </trkpt>
      <trkpt lat="49.33812" lon="1.08306">
        <ele>19.592845</ele>
        <time>2021-09-14T05:36:31.941Z</time>
      </trkpt>
      <trkpt lat="49.33816" lon="1.08306">
        <ele>19.680786</ele>
        <time>2021-09-14T05:36:32.997Z</time>
      </trkpt>
      <trkpt lat="49.33821" lon="1.08309">
        <ele>19.818137</ele>
        <time>2021-09-14T05:36:34.778Z</time>
      </trkpt>
      <trkpt lat="49.3386" lon="1.08342">
        <ele>20.818442</ele>
        <time>2021-09-14T05:36:47.860Z</time>
      </trkpt>
      <trkpt lat="49.33869" lon="1.08349">
        <ele>21.042078</ele>
        <time>2021-09-14T05:36:51.231Z</time>
      </trkpt>
      <trkpt lat="49.33914" lon="1.0839">
        <ele>21.462409</ele>
        <time>2021-09-14T05:37:05.862Z</time>
      </trkpt>
      <trkpt lat="49.33927" lon="1.08401">
        <ele>21.552706</ele>
        <time>2021-09-14T05:37:09.930Z</time>
      </trkpt>
      <trkpt lat="49.33935" lon="1.08409">
        <ele>21.615259</ele>
        <time>2021-09-14T05:37:12.518Z</time>
      </trkpt>
      <trkpt lat="49.33964" lon="1.08445">
        <ele>21.844828</ele>
        <time>2021-09-14T05:37:21.755Z</time>
      </trkpt>
      <trkpt lat="49.33972" lon="1.08454">
        <ele>21.902998</ele>
        <time>2021-09-14T05:37:23.836Z</time>
      </trkpt>
      <trkpt lat="49.33975" lon="1.0846">
        <ele>21.93577</ele>
        <time>2021-09-14T05:37:25.172Z</time>
      </trkpt>
      <trkpt lat="49.33994" lon="1.08487">
        <ele>22.095807</ele>
        <time>2021-09-14T05:37:31.157Z</time>
      </trkpt>
      <trkpt lat="49.33998" lon="1.08492">
        <ele>22.126248</ele>
        <time>2021-09-14T05:37:32.224Z</time>
      </trkpt>
      <trkpt lat="49.34003" lon="1.08501">
        <ele>22.174742</ele>
        <time>2021-09-14T05:37:34.089Z</time>
      </trkpt>
      <trkpt lat="49.34083" lon="1.08647">
        <ele>22.068388</ele>
        <time>2021-09-14T05:38:03.061Z</time>
      </trkpt>
      <trkpt lat="49.34093" lon="1.08664">
        <ele>22.03768</ele>
        <time>2021-09-14T05:38:06.593Z</time>
      </trkpt>
      <trkpt lat="49.3413" lon="1.0873">
        <ele>21.920164</ele>
        <time>2021-09-14T05:38:18.806Z</time>
      </trkpt>
      <trkpt lat="49.34138" lon="1.08748">
        <ele>21.812219</ele>
        <time>2021-09-14T05:38:21.720Z</time>
      </trkpt>
      <trkpt lat="49.34138" lon="1.08754">
        <ele>21.777125</ele>
        <time>2021-09-14T05:38:22.616Z</time>
      </trkpt>
      <trkpt lat="49.34139" lon="1.08761">
        <ele>21.734062</ele>
        <time>2021-09-14T05:38:23.637Z</time>
      </trkpt>
      <trkpt lat="49.34145" lon="1.08764">
        <ele>21.677469</ele>
        <time>2021-09-14T05:38:24.839Z</time>
      </trkpt>
      <trkpt lat="49.34151" lon="1.08769">
        <ele>21.61239</ele>
        <time>2021-09-14T05:38:26.382Z</time>
      </trkpt>
      <trkpt lat="49.34177" lon="1.08815">
        <ele>21.266497</ele>
        <time>2021-09-14T05:38:34.485Z</time>
      </trkpt>
      <trkpt lat="49.34212" lon="1.08878">
        <ele>20.790081</ele>
        <time>2021-09-14T05:38:45.468Z</time>
      </trkpt>
      <trkpt lat="49.34218" lon="1.08889">
        <ele>20.708657</ele>
        <time>2021-09-14T05:38:47.157Z</time>
      </trkpt>
      <trkpt lat="49.34275" lon="1.08992">
        <ele>19.93474</ele>
        <time>2021-09-14T05:39:05.090Z</time>
      </trkpt>
      <trkpt lat="49.34289" lon="1.09006">
        <ele>19.787332</ele>
        <time>2021-09-14T05:39:08.408Z</time>
      </trkpt>
      <trkpt lat="49.34297" lon="1.09018">
        <ele>19.695147</ele>
        <time>2021-09-14T05:39:10.661Z</time>
      </trkpt>
      <trkpt lat="49.34328" lon="1.09086">
        <ele>19.219465</ele>
        <time>2021-09-14T05:39:22.051Z</time>
      </trkpt>
      <trkpt lat="49.34344" lon="1.09115">
        <ele>19.003519</ele>
        <time>2021-09-14T05:39:27.272Z</time>
      </trkpt>
      <trkpt lat="49.34389" lon="1.09194">
        <ele>18.387177</ele>
        <time>2021-09-14T05:39:41.267Z</time>
      </trkpt>
      <trkpt lat="49.34403" lon="1.09214">
        <ele>18.217274</ele>
        <time>2021-09-14T05:39:44.895Z</time>
      </trkpt>
      <trkpt lat="49.34433" lon="1.09249">
        <ele>17.869774</ele>
        <time>2021-09-14T05:39:52.531Z</time>
      </trkpt>
      <trkpt lat="49.34446" lon="1.0926">
        <ele>17.736999</ele>
        <time>2021-09-14T05:39:55.355Z</time>
      </trkpt>
      <trkpt lat="49.34454" lon="1.09267">
        <ele>17.648443</ele>
        <time>2021-09-14T05:39:57.252Z</time>
      </trkpt>
      <trkpt lat="49.34484" lon="1.09292">
        <ele>17.341169</ele>
        <time>2021-09-14T05:40:04.144Z</time>
      </trkpt>
      <trkpt lat="49.34535" lon="1.09323">
        <ele>17.123692</ele>
        <time>2021-09-14T05:40:15.928Z</time>
      </trkpt>
      <trkpt lat="49.34543" lon="1.09328">
        <ele>17.124528</ele>
        <time>2021-09-14T05:40:17.588Z</time>
      </trkpt>
      <trkpt lat="49.34545" lon="1.09323">
        <ele>17.124899</ele>
        <time>2021-09-14T05:40:18.774Z</time>
      </trkpt>
      <trkpt lat="49.34568" lon="1.0928">
        <ele>17.128371</ele>
        <time>2021-09-14T05:40:26.768Z</time>
      </trkpt>
      <trkpt lat="49.34585" lon="1.09262">
        <ele>17.130289</ele>
        <time>2021-09-14T05:40:31.280Z</time>
      </trkpt>
      <trkpt lat="49.34629" lon="1.0923">
        <ele>17.134928</ele>
        <time>2021-09-14T05:40:42.800Z</time>
      </trkpt>
      <trkpt lat="49.34635" lon="1.09234">
        <ele>17.135554</ele>
        <time>2021-09-14T05:40:44.900Z</time>
      </trkpt>
      <trkpt lat="49.34718" lon="1.09158">
        <ele>17.86605</ele>
        <time>2021-09-14T05:41:09.620Z</time>
      </trkpt>
      <trkpt lat="49.34777" lon="1.09053">
        <ele>18.780038</ele>
        <time>2021-09-14T05:41:33.789Z</time>
      </trkpt>
      <trkpt lat="49.34822" lon="1.08969">
        <ele>20.01102</ele>
        <time>2021-09-14T05:41:53.260Z</time>
      </trkpt>
      <trkpt lat="49.34841" lon="1.08931">
        <ele>20.624945</ele>
        <time>2021-09-14T05:42:02.068Z</time>
      </trkpt>
      <trkpt lat="49.34981" lon="1.08674">
        <ele>26.848524</ele>
        <time>2021-09-14T05:43:12.722Z</time>
      </trkpt>
      <trkpt lat="49.34983" lon="1.08659">
        <ele>27.19948</ele>
        <time>2021-09-14T05:43:17.047Z</time>
      </trkpt>
      <trkpt lat="49.3501" lon="1.08602">
        <ele>28.823427</ele>
        <time>2021-09-14T05:43:37.476Z</time>
      </trkpt>
      <trkpt lat="49.35031" lon="1.08556">
        <ele>31.178804</ele>
        <time>2021-09-14T05:43:54.137Z</time>
      </trkpt>
      <trkpt lat="49.35033" lon="1.0855">
        <ele>31.4537</ele>
        <time>2021-09-14T05:43:56.035Z</time>
      </trkpt>
      <trkpt lat="49.3505" lon="1.08499">
        <ele>33.902649</ele>
        <time>2021-09-14T05:44:14.334Z</time>
      </trkpt>
      <trkpt lat="49.3506" lon="1.08472">
        <ele>35.273922</ele>
        <time>2021-09-14T05:44:24.881Z</time>
      </trkpt>
      <trkpt lat="49.35066" lon="1.08457">
        <ele>36.015448</ele>
        <time>2021-09-14T05:44:31.345Z</time>
      </trkpt>
      <trkpt lat="49.35094" lon="1.084">
        <ele>39.088786</ele>
        <time>2021-09-14T05:44:55.871Z</time>
      </trkpt>
      <trkpt lat="49.35122" lon="1.08362">
        <ele>41.422793</ele>
        <time>2021-09-14T05:45:15.308Z</time>
      </trkpt>
      <trkpt lat="49.35154" lon="1.08318">
        <ele>43.794088</ele>
        <time>2021-09-14T05:45:36.528Z</time>
      </trkpt>
      <trkpt lat="49.35179" lon="1.08285">
        <ele>45.598353</ele>
        <time>2021-09-14T05:45:51.524Z</time>
      </trkpt>
      <trkpt lat="49.35195" lon="1.08272">
        <ele>46.574037</ele>
        <time>2021-09-14T05:45:58.943Z</time>
      </trkpt>
      <trkpt lat="49.35207" lon="1.08262">
        <ele>47.325254</ele>
        <time>2021-09-14T05:46:04.747Z</time>
      </trkpt>
      <trkpt lat="49.35247" lon="1.08217">
        <ele>50.082984</ele>
        <time>2021-09-14T05:46:25.861Z</time>
      </trkpt>
      <trkpt lat="49.35261" lon="1.08205">
        <ele>50.835172</ele>
        <time>2021-09-14T05:46:32.654Z</time>
      </trkpt>
      <trkpt lat="49.35282" lon="1.08187">
        <ele>51.75729</ele>
        <time>2021-09-14T05:46:42.103Z</time>
      </trkpt>
      <trkpt lat="49.35295" lon="1.08161">
        <ele>52.536712</ele>
        <time>2021-09-14T05:46:50.331Z</time>
      </trkpt>
      <trkpt lat="49.35316" lon="1.08097">
        <ele>54.309579</ele>
        <time>2021-09-14T05:47:07.459Z</time>
      </trkpt>
      <trkpt lat="49.35324" lon="1.08081">
        <ele>54.788616</ele>
        <time>2021-09-14T05:47:12.456Z</time>
      </trkpt>
      <trkpt lat="49.35524" lon="1.07716">
        <ele>65.284868</ele>
        <time>2021-09-14T05:49:07.509Z</time>
      </trkpt>
      <trkpt lat="49.35646" lon="1.0749">
        <ele>70.614549</ele>
        <time>2021-09-14T05:50:10.498Z</time>
      </trkpt>
      <trkpt lat="49.35742" lon="1.07313">
        <ele>74.833197</ele>
        <time>2021-09-14T05:51:02.924Z</time>
      </trkpt>
      <trkpt lat="49.35917" lon="1.06996">
        <ele>82.121356</ele>
        <time>2021-09-14T05:52:38.413Z</time>
      </trkpt>
      <trkpt lat="49.36113" lon="1.06635">
        <ele>85.240691</ele>
        <time>2021-09-14T05:53:58.347Z</time>
      </trkpt>
      <trkpt lat="49.36577" lon="1.05789">
        <ele>90.15316</ele>
        <time>2021-09-14T05:57:07.600Z</time>
      </trkpt>
      <trkpt lat="49.36613" lon="1.05723">
        <ele>90.147117</ele>
        <time>2021-09-14T05:57:20.914Z</time>
      </trkpt>
      <trkpt lat="49.37128" lon="1.06093">
        <ele>82.243815</ele>
        <time>2021-09-14T05:59:04.784Z</time>
      </trkpt>
      <trkpt lat="49.37431" lon="1.06312">
        <ele>78.750294</ele>
        <time>2021-09-14T06:00:09.293Z</time>
      </trkpt>
      <trkpt lat="49.37444" lon="1.06322">
        <ele>78.605814</ele>
        <time>2021-09-14T06:00:12.097Z</time>
      </trkpt>
      <trkpt lat="49.37487" lon="1.06354">
        <ele>78.23334</ele>
        <time>2021-09-14T06:00:21.386Z</time>
      </trkpt>
      <trkpt lat="49.3749" lon="1.06347">
        <ele>78.200826</ele>
        <time>2021-09-14T06:00:22.539Z</time>
      </trkpt>
      <trkpt lat="49.37495" lon="1.06343">
        <ele>78.170462</ele>
        <time>2021-09-14T06:00:23.592Z</time>
      </trkpt>
      <trkpt lat="49.37496" lon="1.06342">
        <ele>78.160647</ele>
        <time>2021-09-14T06:00:23.906Z</time>
      </trkpt>
      <trkpt lat="49.37502" lon="1.06342">
        <ele>78.128195</ele>
        <time>2021-09-14T06:00:25.019Z</time>
      </trkpt>
      <trkpt lat="49.37506" lon="1.06344">
        <ele>78.104235</ele>
        <time>2021-09-14T06:00:25.799Z</time>
      </trkpt>
      <trkpt lat="49.37508" lon="1.06346">
        <ele>78.089494</ele>
        <time>2021-09-14T06:00:26.261Z</time>
      </trkpt>
      <trkpt lat="49.3751" lon="1.06352">
        <ele>78.061402</ele>
        <time>2021-09-14T06:00:27.206Z</time>
      </trkpt>
      <trkpt lat="49.37512" lon="1.06359">
        <ele>78.034178</ele>
        <time>2021-09-14T06:00:28.087Z</time>
      </trkpt>
      <trkpt lat="49.37857" lon="1.06248">
        <ele>76.040402</ele>
        <time>2021-09-14T06:01:41.551Z</time>
      </trkpt>
      <trkpt lat="49.37977" lon="1.06215">
        <ele>74.79233</ele>
        <time>2021-09-14T06:02:04.247Z</time>
      </trkpt>
      <trkpt lat="49.38006" lon="1.06205">
        <ele>74.557704</ele>
        <time>2021-09-14T06:02:09.726Z</time>
      </trkpt>
      <trkpt lat="49.38021" lon="1.062">
        <ele>74.446134</ele>
        <time>2021-09-14T06:02:12.553Z</time>
      </trkpt>
      <trkpt lat="49.38076" lon="1.06185">
        <ele>74.035197</ele>
        <time>2021-09-14T06:02:23.303Z</time>
      </trkpt>
      <trkpt lat="49.38101" lon="1.06177">
        <ele>73.843942</ele>
        <time>2021-09-14T06:02:28.474Z</time>
      </trkpt>
      <trkpt lat="49.38153" lon="1.06162">
        <ele>73.453368</ele>
        <time>2021-09-14T06:02:39.663Z</time>
      </trkpt>
      <trkpt lat="49.38407" lon="1.06088">
        <ele>74.262876</ele>
        <time>2021-09-14T06:03:41.749Z</time>
      </trkpt>
      <trkpt lat="49.3842" lon="1.06084">
        <ele>74.298752</ele>
        <time>2021-09-14T06:03:45.027Z</time>
      </trkpt>
      <trkpt lat="49.38432" lon="1.0608">
        <ele>74.331356</ele>
        <time>2021-09-14T06:03:47.978Z</time>
      </trkpt>
      <trkpt lat="49.38497" lon="1.06061">
        <ele>74.509971</ele>
        <time>2021-09-14T06:04:03.056Z</time>
      </trkpt>
      <trkpt lat="49.38576" lon="1.06038">
        <ele>74.289185</ele>
        <time>2021-09-14T06:04:20.599Z</time>
      </trkpt>
      <trkpt lat="49.386" lon="1.06031">
        <ele>74.187999</ele>
        <time>2021-09-14T06:04:25.754Z</time>
      </trkpt>
      <trkpt lat="49.38656" lon="1.06015">
        <ele>73.956607</ele>
        <time>2021-09-14T06:04:37.196Z</time>
      </trkpt>
      <trkpt lat="49.38822" lon="1.05966">
        <ele>72.999578</ele>
        <time>2021-09-14T06:05:10.739Z</time>
      </trkpt>
      <trkpt lat="49.38835" lon="1.05964">
        <ele>72.920324</ele>
        <time>2021-09-14T06:05:13.551Z</time>
      </trkpt>
      <trkpt lat="49.38843" lon="1.05963">
        <ele>72.871299</ele>
        <time>2021-09-14T06:05:15.208Z</time>
      </trkpt>
      <trkpt lat="49.38846" lon="1.05963">
        <ele>72.856103</ele>
        <time>2021-09-14T06:05:15.731Z</time>
      </trkpt>
      <trkpt lat="49.38853" lon="1.05962">
        <ele>72.811158</ele>
        <time>2021-09-14T06:05:17.817Z</time>
      </trkpt>
      <trkpt lat="49.38856" lon="1.05961">
        <ele>72.794717</ele>
        <time>2021-09-14T06:05:18.576Z</time>
      </trkpt>
      <trkpt lat="49.38857" lon="1.05961">
        <ele>72.785614</ele>
        <time>2021-09-14T06:05:19.027Z</time>
      </trkpt>
      <trkpt lat="49.38859" lon="1.05961">
        <ele>72.775269</ele>
        <time>2021-09-14T06:05:19.535Z</time>
      </trkpt>
      <trkpt lat="49.38885" lon="1.05953">
        <ele>72.65605</ele>
        <time>2021-09-14T06:05:25.178Z</time>
      </trkpt>
      <trkpt lat="49.3889" lon="1.05952">
        <ele>72.63409</ele>
        <time>2021-09-14T06:05:26.381Z</time>
      </trkpt>
      <trkpt lat="49.38896" lon="1.05944">
        <ele>72.605062</ele>
        <time>2021-09-14T06:05:28.160Z</time>
      </trkpt>
      <trkpt lat="49.38899" lon="1.05939">
        <ele>72.586684</ele>
        <time>2021-09-14T06:05:29.252Z</time>
      </trkpt>
      <trkpt lat="49.38908" lon="1.0594">
        <ele>72.554876</ele>
        <time>2021-09-14T06:05:30.955Z</time>
      </trkpt>
      <trkpt lat="49.38959" lon="1.05926">
        <ele>72.35293</ele>
        <time>2021-09-14T06:05:42.150Z</time>
      </trkpt>
      <trkpt lat="49.38972" lon="1.05922">
        <ele>72.300776</ele>
        <time>2021-09-14T06:05:45.135Z</time>
      </trkpt>
      <trkpt lat="49.38999" lon="1.05914">
        <ele>72.198028</ele>
        <time>2021-09-14T06:05:50.460Z</time>
      </trkpt>
      <trkpt lat="49.39002" lon="1.05914">
        <ele>72.185909</ele>
        <time>2021-09-14T06:05:51.254Z</time>
      </trkpt>
      <trkpt lat="49.39075" lon="1.05893">
        <ele>71.564402</ele>
        <time>2021-09-14T06:06:06.350Z</time>
      </trkpt>
      <trkpt lat="49.39091" lon="1.05888">
        <ele>71.34673</ele>
        <time>2021-09-14T06:06:09.483Z</time>
      </trkpt>
      <trkpt lat="49.39127" lon="1.05878">
        <ele>70.847868</ele>
        <time>2021-09-14T06:06:16.480Z</time>
      </trkpt>
      <trkpt lat="49.3915" lon="1.05871">
        <ele>70.532416</ele>
        <time>2021-09-14T06:06:20.698Z</time>
      </trkpt>
      <trkpt lat="49.39164" lon="1.05868">
        <ele>70.331048</ele>
        <time>2021-09-14T06:06:23.435Z</time>
      </trkpt>
      <trkpt lat="49.39167" lon="1.05867">
        <ele>70.302114</ele>
        <time>2021-09-14T06:06:23.801Z</time>
      </trkpt>
      <trkpt lat="49.39185" lon="1.05862">
        <ele>70.051821</ele>
        <time>2021-09-14T06:06:27.041Z</time>
      </trkpt>
      <trkpt lat="49.39202" lon="1.05862">
        <ele>69.81612</ele>
        <time>2021-09-14T06:06:30.178Z</time>
      </trkpt>
      <trkpt lat="49.39207" lon="1.0587">
        <ele>69.723893</ele>
        <time>2021-09-14T06:06:31.393Z</time>
      </trkpt>
      <trkpt lat="49.3922" lon="1.05884">
        <ele>69.480238</ele>
        <time>2021-09-14T06:06:34.155Z</time>
      </trkpt>
      <trkpt lat="49.39223" lon="1.05885">
        <ele>69.424056</ele>
        <time>2021-09-14T06:06:34.702Z</time>
      </trkpt>
      <trkpt lat="49.39225" lon="1.05886">
        <ele>69.393713</ele>
        <time>2021-09-14T06:06:35.026Z</time>
      </trkpt>
      <trkpt lat="49.39233" lon="1.05891">
        <ele>69.237355</ele>
        <time>2021-09-14T06:06:36.566Z</time>
      </trkpt>
      <trkpt lat="49.39243" lon="1.05893">
        <ele>69.065514</ele>
        <time>2021-09-14T06:06:38.216Z</time>
      </trkpt>
      <trkpt lat="49.39247" lon="1.05893">
        <ele>68.983302</ele>
        <time>2021-09-14T06:06:39.013Z</time>
      </trkpt>
      <trkpt lat="49.39254" lon="1.05892">
        <ele>68.852885</ele>
        <time>2021-09-14T06:06:40.265Z</time>
      </trkpt>
      <trkpt lat="49.39275" lon="1.05883">
        <ele>68.471615</ele>
        <time>2021-09-14T06:06:44.030Z</time>
      </trkpt>
      <trkpt lat="49.39278" lon="1.05881">
        <ele>68.413378</ele>
        <time>2021-09-14T06:06:44.572Z</time>
      </trkpt>
      <trkpt lat="49.39282" lon="1.05884">
        <ele>68.339764</ele>
        <time>2021-09-14T06:06:45.347Z</time>
      </trkpt>
      <trkpt lat="49.39284" lon="1.05885">
        <ele>68.308549</ele>
        <time>2021-09-14T06:06:45.655Z</time>
      </trkpt>
      <trkpt lat="49.39289" lon="1.05888">
        <ele>68.197999</ele>
        <time>2021-09-14T06:06:46.816Z</time>
      </trkpt>
      <trkpt lat="49.39359" lon="1.05935">
        <ele>66.844345</ele>
        <time>2021-09-14T06:07:01.142Z</time>
      </trkpt>
      <trkpt lat="49.39399" lon="1.05961">
        <ele>66.136961</ele>
        <time>2021-09-14T06:07:09.626Z</time>
      </trkpt>
      <trkpt lat="49.39406" lon="1.05966">
        <ele>66.028137</ele>
        <time>2021-09-14T06:07:11.127Z</time>
      </trkpt>
      <trkpt lat="49.39526" lon="1.06054">
        <ele>64.127838</ele>
        <time>2021-09-14T06:07:37.053Z</time>
      </trkpt>
      <trkpt lat="49.39529" lon="1.06062">
        <ele>64.039312</ele>
        <time>2021-09-14T06:07:38.174Z</time>
      </trkpt>
      <trkpt lat="49.39533" lon="1.06061">
        <ele>63.978619</ele>
        <time>2021-09-14T06:07:39.019Z</time>
      </trkpt>
      <trkpt lat="49.39536" lon="1.06061">
        <ele>63.934458</ele>
        <time>2021-09-14T06:07:39.623Z</time>
      </trkpt>
      <trkpt lat="49.39562" lon="1.0608">
        <ele>63.471853</ele>
        <time>2021-09-14T06:07:45.125Z</time>
      </trkpt>
      <trkpt lat="49.39566" lon="1.06083">
        <ele>63.395814</ele>
        <time>2021-09-14T06:07:46.024Z</time>
      </trkpt>
      <trkpt lat="49.39569" lon="1.06084">
        <ele>63.351292</ele>
        <time>2021-09-14T06:07:46.558Z</time>
      </trkpt>
      <trkpt lat="49.39643" lon="1.06137">
        <ele>61.974932</ele>
        <time>2021-09-14T06:08:02.196Z</time>
      </trkpt>
      <trkpt lat="49.3966" lon="1.06148">
        <ele>61.669245</ele>
        <time>2021-09-14T06:08:05.513Z</time>
      </trkpt>
      <trkpt lat="49.39725" lon="1.06195">
        <ele>60.403132</ele>
        <time>2021-09-14T06:08:18.973Z</time>
      </trkpt>
      <trkpt lat="49.39734" lon="1.0621">
        <ele>60.165549</ele>
        <time>2021-09-14T06:08:21.347Z</time>
      </trkpt>
      <trkpt lat="49.39742" lon="1.06207">
        <ele>60.012816</ele>
        <time>2021-09-14T06:08:22.823Z</time>
      </trkpt>
      <trkpt lat="49.39767" lon="1.06226">
        <ele>59.476297</ele>
        <time>2021-09-14T06:08:28.051Z</time>
      </trkpt>
      <trkpt lat="49.39775" lon="1.06232">
        <ele>59.304111</ele>
        <time>2021-09-14T06:08:29.670Z</time>
      </trkpt>
      <trkpt lat="49.39782" lon="1.06239">
        <ele>59.143293</ele>
        <time>2021-09-14T06:08:31.242Z</time>
      </trkpt>
      <trkpt lat="49.39806" lon="1.06256">
        <ele>58.653133</ele>
        <time>2021-09-14T06:08:36.133Z</time>
      </trkpt>
      <trkpt lat="49.39807" lon="1.06256">
        <ele>58.631447</ele>
        <time>2021-09-14T06:08:36.318Z</time>
      </trkpt>
      <trkpt lat="49.3981" lon="1.06255">
        <ele>58.569222</ele>
        <time>2021-09-14T06:08:36.960Z</time>
      </trkpt>
      <trkpt lat="49.39813" lon="1.06257">
        <ele>58.506901</ele>
        <time>2021-09-14T06:08:37.600Z</time>
      </trkpt>
      <trkpt lat="49.39851" lon="1.06284">
        <ele>57.714242</ele>
        <time>2021-09-14T06:08:45.535Z</time>
      </trkpt>
      <trkpt lat="49.39866" lon="1.06294">
        <ele>57.414998</ele>
        <time>2021-09-14T06:08:48.503Z</time>
      </trkpt>
      <trkpt lat="49.399" lon="1.06318">
        <ele>56.650787</ele>
        <time>2021-09-14T06:08:55.362Z</time>
      </trkpt>
      <trkpt lat="49.399" lon="1.06321">
        <ele>56.606662</ele>
        <time>2021-09-14T06:08:55.722Z</time>
      </trkpt>
      <trkpt lat="49.39905" lon="1.06327">
        <ele>56.476334</ele>
        <time>2021-09-14T06:08:56.876Z</time>
      </trkpt>
      <trkpt lat="49.39934" lon="1.06347">
        <ele>55.816673</ele>
        <time>2021-09-14T06:09:02.820Z</time>
      </trkpt>
      <trkpt lat="49.3995" lon="1.06358">
        <ele>55.47166</ele>
        <time>2021-09-14T06:09:05.803Z</time>
      </trkpt>
      <trkpt lat="49.39971" lon="1.06372">
        <ele>54.999137</ele>
        <time>2021-09-14T06:09:10.011Z</time>
      </trkpt>
      <trkpt lat="49.39974" lon="1.06375">
        <ele>54.913763</ele>
        <time>2021-09-14T06:09:10.768Z</time>
      </trkpt>
      <trkpt lat="49.40012" lon="1.06402">
        <ele>54.050388</ele>
        <time>2021-09-14T06:09:18.386Z</time>
      </trkpt>
      <trkpt lat="49.40048" lon="1.06427">
        <ele>53.262072</ele>
        <time>2021-09-14T06:09:25.710Z</time>
      </trkpt>
      <trkpt lat="49.40074" lon="1.0645">
        <ele>52.653033</ele>
        <time>2021-09-14T06:09:31.640Z</time>
      </trkpt>
      <trkpt lat="49.40076" lon="1.06451">
        <ele>52.61921</ele>
        <time>2021-09-14T06:09:31.893Z</time>
      </trkpt>
      <trkpt lat="49.40083" lon="1.06457">
        <ele>52.469046</ele>
        <time>2021-09-14T06:09:33.286Z</time>
      </trkpt>
      <trkpt lat="49.40086" lon="1.06459">
        <ele>52.397248</ele>
        <time>2021-09-14T06:09:33.948Z</time>
      </trkpt>
      <trkpt lat="49.40089" lon="1.06462">
        <ele>52.322416</ele>
        <time>2021-09-14T06:09:34.666Z</time>
      </trkpt>
      <trkpt lat="49.401" lon="1.06469">
        <ele>52.078838</ele>
        <time>2021-09-14T06:09:37.005Z</time>
      </trkpt>
      <trkpt lat="49.40116" lon="1.06481">
        <ele>51.724547</ele>
        <time>2021-09-14T06:09:40.091Z</time>
      </trkpt>
      <trkpt lat="49.40121" lon="1.06485">
        <ele>51.619515</ele>
        <time>2021-09-14T06:09:41.072Z</time>
      </trkpt>
      <trkpt lat="49.4015" lon="1.06506">
        <ele>50.972176</ele>
        <time>2021-09-14T06:09:46.926Z</time>
      </trkpt>
      <trkpt lat="49.40179" lon="1.06526">
        <ele>50.343908</ele>
        <time>2021-09-14T06:09:52.691Z</time>
      </trkpt>
      <trkpt lat="49.40184" lon="1.0653">
        <ele>50.217478</ele>
        <time>2021-09-14T06:09:53.843Z</time>
      </trkpt>
      <trkpt lat="49.40206" lon="1.06547">
        <ele>49.732549</ele>
        <time>2021-09-14T06:09:58.308Z</time>
      </trkpt>
      <trkpt lat="49.40209" lon="1.06548">
        <ele>49.673766</ele>
        <time>2021-09-14T06:09:58.880Z</time>
      </trkpt>
      <trkpt lat="49.40213" lon="1.06551">
        <ele>49.587022</ele>
        <time>2021-09-14T06:09:59.660Z</time>
      </trkpt>
      <trkpt lat="49.40232" lon="1.06562">
        <ele>49.178214</ele>
        <time>2021-09-14T06:10:03.581Z</time>
      </trkpt>
      <trkpt lat="49.40241" lon="1.06567">
        <ele>48.999219</ele>
        <time>2021-09-14T06:10:05.229Z</time>
      </trkpt>
      <trkpt lat="49.40247" lon="1.06573">
        <ele>48.841509</ele>
        <time>2021-09-14T06:10:06.695Z</time>
      </trkpt>
      <trkpt lat="49.4028" lon="1.06595">
        <ele>48.119389</ele>
        <time>2021-09-14T06:10:13.490Z</time>
      </trkpt>
      <trkpt lat="49.40282" lon="1.06596">
        <ele>48.080201</ele>
        <time>2021-09-14T06:10:13.844Z</time>
      </trkpt>
      <trkpt lat="49.40285" lon="1.06599">
        <ele>48.011446</ele>
        <time>2021-09-14T06:10:14.468Z</time>
      </trkpt>
      <trkpt lat="49.40334" lon="1.06635">
        <ele>46.930289</ele>
        <time>2021-09-14T06:10:24.589Z</time>
      </trkpt>
      <trkpt lat="49.40337" lon="1.06637">
        <ele>46.870425</ele>
        <time>2021-09-14T06:10:25.119Z</time>
      </trkpt>
      <trkpt lat="49.40339" lon="1.06638">
        <ele>46.82834</ele>
        <time>2021-09-14T06:10:25.496Z</time>
      </trkpt>
      <trkpt lat="49.40358" lon="1.06653">
        <ele>46.360454</ele>
        <time>2021-09-14T06:10:29.380Z</time>
      </trkpt>
      <trkpt lat="49.40371" lon="1.06662">
        <ele>45.994423</ele>
        <time>2021-09-14T06:10:31.922Z</time>
      </trkpt>
      <trkpt lat="49.40401" lon="1.06687">
        <ele>45.115316</ele>
        <time>2021-09-14T06:10:38.083Z</time>
      </trkpt>
      <trkpt lat="49.40416" lon="1.06698">
        <ele>44.696748</ele>
        <time>2021-09-14T06:10:40.861Z</time>
      </trkpt>
      <trkpt lat="49.40461" lon="1.06733">
        <ele>43.405963</ele>
        <time>2021-09-14T06:10:49.791Z</time>
      </trkpt>
      <trkpt lat="49.40506" lon="1.06772">
        <ele>42.081351</ele>
        <time>2021-09-14T06:10:58.837Z</time>
      </trkpt>
      <trkpt lat="49.40526" lon="1.06788">
        <ele>41.501137</ele>
        <time>2021-09-14T06:11:02.808Z</time>
      </trkpt>
      <trkpt lat="49.40538" lon="1.06795">
        <ele>41.173291</ele>
        <time>2021-09-14T06:11:05.077Z</time>
      </trkpt>
      <trkpt lat="49.40546" lon="1.068">
        <ele>40.946453</ele>
        <time>2021-09-14T06:11:06.556Z</time>
      </trkpt>
      <trkpt lat="49.40753" lon="1.06958">
        <ele>35.656246</ele>
        <time>2021-09-14T06:11:47.852Z</time>
      </trkpt>
      <trkpt lat="49.40821" lon="1.07007">
        <ele>34.213439</ele>
        <time>2021-09-14T06:12:02.306Z</time>
      </trkpt>
      <trkpt lat="49.40922" lon="1.07081">
        <ele>33.265784</ele>
        <time>2021-09-14T06:12:24.729Z</time>
      </trkpt>
      <trkpt lat="49.40924" lon="1.07082">
        <ele>33.255281</ele>
        <time>2021-09-14T06:12:25.026Z</time>
      </trkpt>
      <trkpt lat="49.40935" lon="1.0709">
        <ele>33.172175</ele>
        <time>2021-09-14T06:12:27.700Z</time>
      </trkpt>
      <trkpt lat="49.40936" lon="1.07089">
        <ele>33.165917</ele>
        <time>2021-09-14T06:12:27.847Z</time>
      </trkpt>
      <trkpt lat="49.40949" lon="1.07084">
        <ele>33.078655</ele>
        <time>2021-09-14T06:12:31.005Z</time>
      </trkpt>
      <trkpt lat="49.40953" lon="1.07068">
        <ele>33.004886</ele>
        <time>2021-09-14T06:12:33.540Z</time>
      </trkpt>
      <trkpt lat="49.40949" lon="1.07084">
        <ele>32.931117</ele>
        <time>2021-09-14T06:12:35.954Z</time>
      </trkpt>
      <trkpt lat="49.40957" lon="1.0709">
        <ele>32.866632</ele>
        <time>2021-09-14T06:12:38.133Z</time>
      </trkpt>
      <trkpt lat="49.40983" lon="1.07107">
        <ele>32.706327</ele>
        <time>2021-09-14T06:12:44.098Z</time>
      </trkpt>
      <trkpt lat="49.41003" lon="1.07122">
        <ele>32.715318</ele>
        <time>2021-09-14T06:12:49.087Z</time>
      </trkpt>
      <trkpt lat="49.41012" lon="1.07127">
        <ele>32.719533</ele>
        <time>2021-09-14T06:12:51.217Z</time>
      </trkpt>
      <trkpt lat="49.41016" lon="1.07128">
        <ele>32.721149</ele>
        <time>2021-09-14T06:12:51.992Z</time>
      </trkpt>
      <trkpt lat="49.41019" lon="1.07129">
        <ele>32.72239</ele>
        <time>2021-09-14T06:12:52.638Z</time>
      </trkpt>
      <trkpt lat="49.41021" lon="1.07129">
        <ele>32.723177</ele>
        <time>2021-09-14T06:12:53.291Z</time>
      </trkpt>
      <trkpt lat="49.41043" lon="1.07137">
        <ele>32.732549</ele>
        <time>2021-09-14T06:12:58.128Z</time>
      </trkpt>
      <trkpt lat="49.41082" lon="1.07165">
        <ele>32.750065</ele>
        <time>2021-09-14T06:13:07.373Z</time>
      </trkpt>
      <trkpt lat="49.41145" lon="1.07211">
        <ele>32.778668</ele>
        <time>2021-09-14T06:13:23.583Z</time>
      </trkpt>
      <trkpt lat="49.41158" lon="1.07221">
        <ele>32.806563</ele>
        <time>2021-09-14T06:13:27.261Z</time>
      </trkpt>
      <trkpt lat="49.4116" lon="1.07222">
        <ele>32.8106</ele>
        <time>2021-09-14T06:13:27.715Z</time>
      </trkpt>
      <trkpt lat="49.41163" lon="1.07212">
        <ele>32.825077</ele>
        <time>2021-09-14T06:13:29.417Z</time>
      </trkpt>
      <trkpt lat="49.41164" lon="1.0721">
        <ele>32.828007</ele>
        <time>2021-09-14T06:13:29.748Z</time>
      </trkpt>
      <trkpt lat="49.41166" lon="1.07206">
        <ele>32.834606</ele>
        <time>2021-09-14T06:13:30.543Z</time>
      </trkpt>
      <trkpt lat="49.41175" lon="1.07201">
        <ele>32.852719</ele>
        <time>2021-09-14T06:13:32.786Z</time>
      </trkpt>
      <trkpt lat="49.41214" lon="1.07174">
        <ele>32.937459</ele>
        <time>2021-09-14T06:13:43.140Z</time>
      </trkpt>
      <trkpt lat="49.41218" lon="1.07172">
        <ele>32.945072</ele>
        <time>2021-09-14T06:13:44.126Z</time>
      </trkpt>
      <trkpt lat="49.41224" lon="1.07176">
        <ele>32.958564</ele>
        <time>2021-09-14T06:13:45.756Z</time>
      </trkpt>
      <trkpt lat="49.41231" lon="1.0718">
        <ele>32.973793</ele>
        <time>2021-09-14T06:13:47.583Z</time>
      </trkpt>
      <trkpt lat="49.41238" lon="1.07183">
        <ele>32.987767</ele>
        <time>2021-09-14T06:13:49.268Z</time>
      </trkpt>
      <trkpt lat="49.41241" lon="1.07192">
        <ele>32.999966</ele>
        <time>2021-09-14T06:13:50.748Z</time>
      </trkpt>
      <trkpt lat="49.41254" lon="1.07239">
        <ele>33.065727</ele>
        <time>2021-09-14T06:13:58.723Z</time>
      </trkpt>
      <trkpt lat="49.41257" lon="1.0725">
        <ele>33.08133</ele>
        <time>2021-09-14T06:14:00.655Z</time>
      </trkpt>
      <trkpt lat="49.41261" lon="1.07263">
        <ele>33.099746</ele>
        <time>2021-09-14T06:14:02.979Z</time>
      </trkpt>
      <trkpt lat="49.41269" lon="1.07293">
        <ele>33.11559</ele>
        <time>2021-09-14T06:14:07.847Z</time>
      </trkpt>
      <trkpt lat="49.4127" lon="1.073">
        <ele>33.100017</ele>
        <time>2021-09-14T06:14:08.911Z</time>
      </trkpt>
      <trkpt lat="49.41273" lon="1.07309">
        <ele>33.076658</ele>
        <time>2021-09-14T06:14:10.590Z</time>
      </trkpt>
      <trkpt lat="49.41313" lon="1.07338">
        <ele>32.921629</ele>
        <time>2021-09-14T06:14:20.377Z</time>
      </trkpt>
      <trkpt lat="49.41315" lon="1.0734">
        <ele>32.913446</ele>
        <time>2021-09-14T06:14:20.882Z</time>
      </trkpt>
      <trkpt lat="49.41339" lon="1.07357">
        <ele>32.81986</ele>
        <time>2021-09-14T06:14:26.778Z</time>
      </trkpt>
      <trkpt lat="49.41352" lon="1.07366">
        <ele>32.771987</ele>
        <time>2021-09-14T06:14:29.600Z</time>
      </trkpt>
      <trkpt lat="49.41391" lon="1.07394">
        <ele>32.622444</ele>
        <time>2021-09-14T06:14:38.446Z</time>
      </trkpt>
      <trkpt lat="49.41395" lon="1.07397">
        <ele>32.607004</ele>
        <time>2021-09-14T06:14:39.343Z</time>
      </trkpt>
      <trkpt lat="49.41399" lon="1.074">
        <ele>32.59001</ele>
        <time>2021-09-14T06:14:40.383Z</time>
      </trkpt>
      <trkpt lat="49.41438" lon="1.07429">
        <ele>32.217736</ele>
        <time>2021-09-14T06:14:49.030Z</time>
      </trkpt>
      <trkpt lat="49.4146" lon="1.07444">
        <ele>31.856404</ele>
        <time>2021-09-14T06:14:53.489Z</time>
      </trkpt>
      <trkpt lat="49.41465" lon="1.07448">
        <ele>31.76742</ele>
        <time>2021-09-14T06:14:54.554Z</time>
      </trkpt>
      <trkpt lat="49.41488" lon="1.07465">
        <ele>31.375828</ele>
        <time>2021-09-14T06:14:59.098Z</time>
      </trkpt>
      <trkpt lat="49.4151" lon="1.07481">
        <ele>31.006347</ele>
        <time>2021-09-14T06:15:03.456Z</time>
      </trkpt>
      <trkpt lat="49.41527" lon="1.07493">
        <ele>30.725431</ele>
        <time>2021-09-14T06:15:06.831Z</time>
      </trkpt>
      <trkpt lat="49.41548" lon="1.07508">
        <ele>30.379441</ele>
        <time>2021-09-14T06:15:10.857Z</time>
      </trkpt>
      <trkpt lat="49.41598" lon="1.07547">
        <ele>29.398803</ele>
        <time>2021-09-14T06:15:21.056Z</time>
      </trkpt>
      <trkpt lat="49.416" lon="1.07549">
        <ele>29.345384</ele>
        <time>2021-09-14T06:15:21.484Z</time>
      </trkpt>
      <trkpt lat="49.41604" lon="1.07553">
        <ele>29.229764</ele>
        <time>2021-09-14T06:15:22.310Z</time>
      </trkpt>
      <trkpt lat="49.41613" lon="1.07558">
        <ele>29.025261</ele>
        <time>2021-09-14T06:15:23.909Z</time>
      </trkpt>
      <trkpt lat="49.41647" lon="1.07583">
        <ele>28.14915</ele>
        <time>2021-09-14T06:15:30.712Z</time>
      </trkpt>
      <trkpt lat="49.41667" lon="1.07597">
        <ele>27.665453</ele>
        <time>2021-09-14T06:15:34.301Z</time>
      </trkpt>
      <trkpt lat="49.41673" lon="1.07602">
        <ele>27.495707</ele>
        <time>2021-09-14T06:15:35.545Z</time>
      </trkpt>
      <trkpt lat="49.4172" lon="1.07637">
        <ele>26.310183</ele>
        <time>2021-09-14T06:15:44.348Z</time>
      </trkpt>
      <trkpt lat="49.41729" lon="1.07644">
        <ele>26.075266</ele>
        <time>2021-09-14T06:15:46.104Z</time>
      </trkpt>
      <trkpt lat="49.41787" lon="1.07683">
        <ele>24.371212</ele>
        <time>2021-09-14T06:15:56.767Z</time>
      </trkpt>
      <trkpt lat="49.41794" lon="1.07689">
        <ele>24.138002</ele>
        <time>2021-09-14T06:15:58.186Z</time>
      </trkpt>
      <trkpt lat="49.41797" lon="1.07691">
        <ele>24.038569</ele>
        <time>2021-09-14T06:15:58.701Z</time>
      </trkpt>
      <trkpt lat="49.41875" lon="1.07749">
        <ele>21.546034</ele>
        <time>2021-09-14T06:16:13.134Z</time>
      </trkpt>
      <trkpt lat="49.41883" lon="1.07755">
        <ele>21.279256</ele>
        <time>2021-09-14T06:16:14.662Z</time>
      </trkpt>
      <trkpt lat="49.419" lon="1.07766">
        <ele>20.75436</ele>
        <time>2021-09-14T06:16:17.556Z</time>
      </trkpt>
      <trkpt lat="49.41922" lon="1.0778">
        <ele>19.980717</ele>
        <time>2021-09-14T06:16:21.481Z</time>
      </trkpt>
      <trkpt lat="49.41938" lon="1.07792">
        <ele>19.363576</ele>
        <time>2021-09-14T06:16:24.274Z</time>
      </trkpt>
      <trkpt lat="49.41939" lon="1.07793">
        <ele>19.331924</ele>
        <time>2021-09-14T06:16:24.420Z</time>
      </trkpt>
      <trkpt lat="49.41941" lon="1.07794">
        <ele>19.241059</ele>
        <time>2021-09-14T06:16:24.843Z</time>
      </trkpt>
      <trkpt lat="49.41948" lon="1.07799">
        <ele>18.998281</ele>
        <time>2021-09-14T06:16:25.965Z</time>
      </trkpt>
      <trkpt lat="49.41954" lon="1.07804">
        <ele>18.762647</ele>
        <time>2021-09-14T06:16:27.073Z</time>
      </trkpt>
      <trkpt lat="49.41962" lon="1.07811">
        <ele>18.428053</ele>
        <time>2021-09-14T06:16:28.625Z</time>
      </trkpt>
      <trkpt lat="49.41973" lon="1.0782">
        <ele>18.014869</ele>
        <time>2021-09-14T06:16:30.551Z</time>
      </trkpt>
      <trkpt lat="49.41987" lon="1.0783">
        <ele>17.474176</ele>
        <time>2021-09-14T06:16:33.054Z</time>
      </trkpt>
      <trkpt lat="49.41991" lon="1.07834">
        <ele>17.315041</ele>
        <time>2021-09-14T06:16:33.782Z</time>
      </trkpt>
      <trkpt lat="49.42002" lon="1.07842">
        <ele>16.911076</ele>
        <time>2021-09-14T06:16:35.664Z</time>
      </trkpt>
      <trkpt lat="49.42011" lon="1.0785">
        <ele>16.532566</ele>
        <time>2021-09-14T06:16:37.436Z</time>
      </trkpt>
      <trkpt lat="49.42016" lon="1.07854">
        <ele>16.343749</ele>
        <time>2021-09-14T06:16:38.322Z</time>
      </trkpt>
      <trkpt lat="49.42036" lon="1.07869">
        <ele>15.568301</ele>
        <time>2021-09-14T06:16:41.970Z</time>
      </trkpt>
      <trkpt lat="49.42077" lon="1.07899">
        <ele>14.148347</ele>
        <time>2021-09-14T06:16:49.182Z</time>
      </trkpt>
      <trkpt lat="49.42114" lon="1.07927">
        <ele>13.379557</ele>
        <time>2021-09-14T06:16:56.009Z</time>
      </trkpt>
      <trkpt lat="49.42127" lon="1.07936">
        <ele>13.117375</ele>
        <time>2021-09-14T06:16:58.450Z</time>
      </trkpt>
      <trkpt lat="49.42203" lon="1.07992">
        <ele>11.573582</ele>
        <time>2021-09-14T06:17:13.600Z</time>
      </trkpt>
      <trkpt lat="49.42204" lon="1.07993">
        <ele>11.548465</ele>
        <time>2021-09-14T06:17:13.810Z</time>
      </trkpt>
      <trkpt lat="49.42216" lon="1.08001">
        <ele>11.317498</ele>
        <time>2021-09-14T06:17:16.309Z</time>
      </trkpt>
      <trkpt lat="49.42223" lon="1.08007">
        <ele>11.154822</ele>
        <time>2021-09-14T06:17:18.111Z</time>
      </trkpt>
      <trkpt lat="49.42225" lon="1.08008">
        <ele>11.130253</ele>
        <time>2021-09-14T06:17:18.451Z</time>
      </trkpt>
      <trkpt lat="49.42312" lon="1.08069">
        <ele>11.338767</ele>
        <time>2021-09-14T06:17:40.829Z</time>
      </trkpt>
      <trkpt lat="49.42321" lon="1.08075">
        <ele>11.378512</ele>
        <time>2021-09-14T06:17:43.398Z</time>
      </trkpt>
      <trkpt lat="49.42325" lon="1.08078">
        <ele>11.394779</ele>
        <time>2021-09-14T06:17:44.467Z</time>
      </trkpt>
      <trkpt lat="49.42332" lon="1.08084">
        <ele>11.427661</ele>
        <time>2021-09-14T06:17:46.511Z</time>
      </trkpt>
      <trkpt lat="49.42371" lon="1.08113">
        <ele>11.602989</ele>
        <time>2021-09-14T06:17:57.409Z</time>
      </trkpt>
      <trkpt lat="49.42393" lon="1.08129">
        <ele>11.705313</ele>
        <time>2021-09-14T06:18:03.839Z</time>
      </trkpt>
      <trkpt lat="49.42401" lon="1.08135">
        <ele>11.757728</ele>
        <time>2021-09-14T06:18:06.095Z</time>
      </trkpt>
      <trkpt lat="49.42412" lon="1.08143">
        <ele>11.833905</ele>
        <time>2021-09-14T06:18:09.117Z</time>
      </trkpt>
      <trkpt lat="49.42423" lon="1.0815">
        <ele>11.908337</ele>
        <time>2021-09-14T06:18:12.129Z</time>
      </trkpt>
      <trkpt lat="49.42449" lon="1.08169">
        <ele>12.098547</ele>
        <time>2021-09-14T06:18:19.740Z</time>
      </trkpt>
      <trkpt lat="49.42507" lon="1.08212">
        <ele>12.510084</ele>
        <time>2021-09-14T06:18:35.929Z</time>
      </trkpt>
      <trkpt lat="49.42567" lon="1.08254">
        <ele>12.844654</ele>
        <time>2021-09-14T06:18:51.884Z</time>
      </trkpt>
      <trkpt lat="49.42578" lon="1.08261">
        <ele>12.818291</ele>
        <time>2021-09-14T06:18:54.648Z</time>
      </trkpt>
      <trkpt lat="49.42578" lon="1.08261">
        <ele>12.818291</ele>
        <time>2021-09-14T06:18:54.655Z</time>
      </trkpt>
      <trkpt lat="49.42588" lon="1.08268">
        <ele>12.793628</ele>
        <time>2021-09-14T06:18:57.013Z</time>
      </trkpt>
      <trkpt lat="49.42701" lon="1.08347">
        <ele>12.513726</ele>
        <time>2021-09-14T06:19:22.975Z</time>
      </trkpt>
      <trkpt lat="49.4271" lon="1.08353">
        <ele>12.492429</ele>
        <time>2021-09-14T06:19:24.941Z</time>
      </trkpt>
      <trkpt lat="49.42715" lon="1.08356">
        <ele>12.479791</ele>
        <time>2021-09-14T06:19:26.087Z</time>
      </trkpt>
      <trkpt lat="49.42718" lon="1.08359">
        <ele>12.472775</ele>
        <time>2021-09-14T06:19:26.761Z</time>
      </trkpt>
      <trkpt lat="49.42724" lon="1.08363">
        <ele>12.444447</ele>
        <time>2021-09-14T06:19:28.324Z</time>
      </trkpt>
      <trkpt lat="49.42735" lon="1.08371">
        <ele>12.372075</ele>
        <time>2021-09-14T06:19:30.706Z</time>
      </trkpt>
      <trkpt lat="49.42739" lon="1.08374">
        <ele>12.343197</ele>
        <time>2021-09-14T06:19:31.577Z</time>
      </trkpt>
      <trkpt lat="49.42773" lon="1.08397">
        <ele>12.106521</ele>
        <time>2021-09-14T06:19:39.137Z</time>
      </trkpt>
      <trkpt lat="49.42809" lon="1.08424">
        <ele>11.852672</ele>
        <time>2021-09-14T06:19:47.250Z</time>
      </trkpt>
      <trkpt lat="49.42811" lon="1.08425">
        <ele>11.837945</ele>
        <time>2021-09-14T06:19:47.740Z</time>
      </trkpt>
      <trkpt lat="49.42817" lon="1.0843">
        <ele>11.79172</ele>
        <time>2021-09-14T06:19:49.149Z</time>
      </trkpt>
      <trkpt lat="49.42825" lon="1.08435">
        <ele>11.737226</ele>
        <time>2021-09-14T06:19:50.804Z</time>
      </trkpt>
      <trkpt lat="49.42844" lon="1.0845">
        <ele>11.604592</ele>
        <time>2021-09-14T06:19:55.033Z</time>
      </trkpt>
      <trkpt lat="49.42845" lon="1.08451">
        <ele>11.592884</ele>
        <time>2021-09-14T06:19:55.384Z</time>
      </trkpt>
      <trkpt lat="49.42879" lon="1.08479">
        <ele>11.350235</ele>
        <time>2021-09-14T06:20:02.973Z</time>
      </trkpt>
      <trkpt lat="49.42883" lon="1.08482">
        <ele>11.32041</ele>
        <time>2021-09-14T06:20:03.843Z</time>
      </trkpt>
      <trkpt lat="49.42887" lon="1.08486">
        <ele>11.294257</ele>
        <time>2021-09-14T06:20:04.784Z</time>
      </trkpt>
      <trkpt lat="49.42944" lon="1.08527">
        <ele>10.963421</ele>
        <time>2021-09-14T06:20:17.548Z</time>
      </trkpt>
      <trkpt lat="49.42947" lon="1.0853">
        <ele>10.945182</ele>
        <time>2021-09-14T06:20:18.218Z</time>
      </trkpt>
      <trkpt lat="49.42957" lon="1.08537">
        <ele>10.887022</ele>
        <time>2021-09-14T06:20:20.344Z</time>
      </trkpt>
      <trkpt lat="49.42962" lon="1.08541">
        <ele>10.857286</ele>
        <time>2021-09-14T06:20:21.556Z</time>
      </trkpt>
      <trkpt lat="49.42964" lon="1.08543">
        <ele>10.842982</ele>
        <time>2021-09-14T06:20:22.065Z</time>
      </trkpt>
      <trkpt lat="49.42965" lon="1.08544">
        <ele>10.83575</ele>
        <time>2021-09-14T06:20:22.395Z</time>
      </trkpt>
      <trkpt lat="49.43009" lon="1.08578">
        <ele>10.574507</ele>
        <time>2021-09-14T06:20:32.593Z</time>
      </trkpt>
      <trkpt lat="49.43049" lon="1.08608">
        <ele>10.360014</ele>
        <time>2021-09-14T06:20:41.719Z</time>
      </trkpt>
      <trkpt lat="49.43052" lon="1.08611">
        <ele>10.355734</ele>
        <time>2021-09-14T06:20:42.427Z</time>
      </trkpt>
      <trkpt lat="49.43071" lon="1.08625">
        <ele>10.331757</ele>
        <time>2021-09-14T06:20:46.984Z</time>
      </trkpt>
      <trkpt lat="49.43074" lon="1.08627">
        <ele>10.328148</ele>
        <time>2021-09-14T06:20:47.750Z</time>
      </trkpt>
      <trkpt lat="49.43092" lon="1.08644">
        <ele>10.303495</ele>
        <time>2021-09-14T06:20:52.354Z</time>
      </trkpt>
      <trkpt lat="49.43095" lon="1.08649">
        <ele>10.298786</ele>
        <time>2021-09-14T06:20:53.389Z</time>
      </trkpt>
      <trkpt lat="49.43138" lon="1.08731">
        <ele>10.220241</ele>
        <time>2021-09-14T06:21:08.344Z</time>
      </trkpt>
      <trkpt lat="49.43145" lon="1.08743">
        <ele>10.208521</ele>
        <time>2021-09-14T06:21:10.731Z</time>
      </trkpt>
      <trkpt lat="49.43191" lon="1.08829">
        <ele>10.131196</ele>
        <time>2021-09-14T06:21:27.374Z</time>
      </trkpt>
      <trkpt lat="49.43197" lon="1.08836">
        <ele>10.12375</ele>
        <time>2021-09-14T06:21:29.153Z</time>
      </trkpt>
      <trkpt lat="49.43201" lon="1.08842">
        <ele>10.118504</ele>
        <time>2021-09-14T06:21:30.420Z</time>
      </trkpt>
      <trkpt lat="49.43251" lon="1.08936">
        <ele>10.043582</ele>
        <time>2021-09-14T06:21:47.771Z</time>
      </trkpt>
      <trkpt lat="49.43256" lon="1.08946">
        <ele>10.035731</ele>
        <time>2021-09-14T06:21:49.562Z</time>
      </trkpt>
      <trkpt lat="49.43261" lon="1.08955">
        <ele>10.028872</ele>
        <time>2021-09-14T06:21:51.075Z</time>
      </trkpt>
      <trkpt lat="49.43286" lon="1.09">
        <ele>9.992506</ele>
        <time>2021-09-14T06:21:59.252Z</time>
      </trkpt>
      <trkpt lat="49.43312" lon="1.09049">
        <ele>9.851686</ele>
        <time>2021-09-14T06:22:07.939Z</time>
      </trkpt>
      <trkpt lat="49.43313" lon="1.09051">
        <ele>9.845048</ele>
        <time>2021-09-14T06:22:08.312Z</time>
      </trkpt>
      <trkpt lat="49.43328" lon="1.09079">
        <ele>9.756277</ele>
        <time>2021-09-14T06:22:13.379Z</time>
      </trkpt>
      <trkpt lat="49.43339" lon="1.09098">
        <ele>9.696272</ele>
        <time>2021-09-14T06:22:16.641Z</time>
      </trkpt>
      <trkpt lat="49.4335" lon="1.09086">
        <ele>9.646376</ele>
        <time>2021-09-14T06:22:19.533Z</time>
      </trkpt>
      <trkpt lat="49.43369" lon="1.09051">
        <ele>9.53793</ele>
        <time>2021-09-14T06:22:25.559Z</time>
      </trkpt>
      <trkpt lat="49.43408" lon="1.08918">
        <ele>9.373892</ele>
        <time>2021-09-14T06:22:45.376Z</time>
      </trkpt>
      <trkpt lat="49.4341" lon="1.08909">
        <ele>9.382728</ele>
        <time>2021-09-14T06:22:46.670Z</time>
      </trkpt>
      <trkpt lat="49.43413" lon="1.08901">
        <ele>9.389842</ele>
        <time>2021-09-14T06:22:47.879Z</time>
      </trkpt>
      <trkpt lat="49.43406" lon="1.08895">
        <ele>9.400012</ele>
        <time>2021-09-14T06:22:49.543Z</time>
      </trkpt>
      <trkpt lat="49.43365" lon="1.08845">
        <ele>9.469149</ele>
        <time>2021-09-14T06:23:01.364Z</time>
      </trkpt>
      <trkpt lat="49.43406" lon="1.08895">
        <ele>9.538286</ele>
        <time>2021-09-14T06:23:14.578Z</time>
      </trkpt>
      <trkpt lat="49.43413" lon="1.08901">
        <ele>9.548456</ele>
        <time>2021-09-14T06:23:16.450Z</time>
      </trkpt>
      <trkpt lat="49.43425" lon="1.08911">
        <ele>9.600492</ele>
        <time>2021-09-14T06:23:19.517Z</time>
      </trkpt>
      <trkpt lat="49.43432" lon="1.08916">
        <ele>9.665064</ele>
        <time>2021-09-14T06:23:21.715Z</time>
      </trkpt>
      <trkpt lat="49.4344" lon="1.08922">
        <ele>9.748361</ele>
        <time>2021-09-14T06:23:24.034Z</time>
      </trkpt>
      <trkpt lat="49.43449" lon="1.08927">
        <ele>9.834187</ele>
        <time>2021-09-14T06:23:26.402Z</time>
      </trkpt>
      <trkpt lat="49.43458" lon="1.08933">
        <ele>9.914397</ele>
        <time>2021-09-14T06:23:28.604Z</time>
      </trkpt>
      <trkpt lat="49.43461" lon="1.08935">
        <ele>9.9424</ele>
        <time>2021-09-14T06:23:29.850Z</time>
      </trkpt>
      <trkpt lat="49.43516" lon="1.08974">
        <ele>10.476184</ele>
        <time>2021-09-14T06:23:45.139Z</time>
      </trkpt>
      <trkpt lat="49.43525" lon="1.08981">
        <ele>10.564081</ele>
        <time>2021-09-14T06:23:48.054Z</time>
      </trkpt>
      <trkpt lat="49.4355" lon="1.08998">
        <ele>10.801661</ele>
        <time>2021-09-14T06:23:54.927Z</time>
      </trkpt>
      <trkpt lat="49.43583" lon="1.09022">
        <ele>11.121741</ele>
        <time>2021-09-14T06:24:04.703Z</time>
      </trkpt>
      <trkpt lat="49.43585" lon="1.09023">
        <ele>11.133054</ele>
        <time>2021-09-14T06:24:05.209Z</time>
      </trkpt>
      <trkpt lat="49.43593" lon="1.09028">
        <ele>11.15997</ele>
        <time>2021-09-14T06:24:08.059Z</time>
      </trkpt>
      <trkpt lat="49.43601" lon="1.09033">
        <ele>11.187873</ele>
        <time>2021-09-14T06:24:10.310Z</time>
      </trkpt>
      <trkpt lat="49.43613" lon="1.09042">
        <ele>11.228272</ele>
        <time>2021-09-14T06:24:13.618Z</time>
      </trkpt>
      <trkpt lat="49.43614" lon="1.09038">
        <ele>11.236878</ele>
        <time>2021-09-14T06:24:14.368Z</time>
      </trkpt>
      <trkpt lat="49.43614" lon="1.09035">
        <ele>11.24288</ele>
        <time>2021-09-14T06:24:14.951Z</time>
      </trkpt>
      <trkpt lat="49.43614" lon="1.09022">
        <ele>11.267985</ele>
        <time>2021-09-14T06:24:17.158Z</time>
      </trkpt>
      <trkpt lat="49.43614" lon="1.0902">
        <ele>11.272237</ele>
        <time>2021-09-14T06:24:17.671Z</time>
      </trkpt>
      <trkpt lat="49.43618" lon="1.09005">
        <ele>11.305369</ele>
        <time>2021-09-14T06:24:20.386Z</time>
      </trkpt>
      <trkpt lat="49.43682" lon="1.08788">
        <ele>11.533507</ele>
        <time>2021-09-14T06:24:55.952Z</time>
      </trkpt>
      <trkpt lat="49.43694" lon="1.0877">
        <ele>11.447633</ele>
        <time>2021-09-14T06:24:59.646Z</time>
      </trkpt>
      <trkpt lat="49.43695" lon="1.08766">
        <ele>11.433526</ele>
        <time>2021-09-14T06:25:00.183Z</time>
      </trkpt>
      <trkpt lat="49.43695" lon="1.08765">
        <ele>11.428452</ele>
        <time>2021-09-14T06:25:00.365Z</time>
      </trkpt>
      <trkpt lat="49.43696" lon="1.08761">
        <ele>11.414649</ele>
        <time>2021-09-14T06:25:00.993Z</time>
      </trkpt>
      <trkpt lat="49.43699" lon="1.08751">
        <ele>11.379431</ele>
        <time>2021-09-14T06:25:02.642Z</time>
      </trkpt>
      <trkpt lat="49.43701" lon="1.08744">
        <ele>11.353246</ele>
        <time>2021-09-14T06:25:03.693Z</time>
      </trkpt>
      <trkpt lat="49.43703" lon="1.08733">
        <ele>11.317212</ele>
        <time>2021-09-14T06:25:05.113Z</time>
      </trkpt>
      <trkpt lat="49.43695" lon="1.08728">
        <ele>11.273269</ele>
        <time>2021-09-14T06:25:07.105Z</time>
      </trkpt>
      <trkpt lat="49.43696" lon="1.08725">
        <ele>11.259549</ele>
        <time>2021-09-14T06:25:08.967Z</time>
      </trkpt>
      <trkpt lat="49.43697" lon="1.08721">
        <ele>11.246947</ele>
        <time>2021-09-14T06:25:10.700Z</time>
      </trkpt>
      <trkpt lat="49.43706" lon="1.08692">
        <ele>11.1414</ele>
        <time>2021-09-14T06:25:25.086Z</time>
      </trkpt>
      <trkpt lat="49.43697" lon="1.08721">
        <ele>11.035854</ele>
        <time>2021-09-14T06:25:39.473Z</time>
      </trkpt>
      <trkpt lat="49.43696" lon="1.08725">
        <ele>11.023252</ele>
        <time>2021-09-14T06:25:41.206Z</time>
      </trkpt>
      <trkpt lat="49.43695" lon="1.08728">
        <ele>11.009531</ele>
        <time>2021-09-14T06:25:43.067Z</time>
      </trkpt>
      <trkpt lat="49.43703" lon="1.08733">
        <ele>10.965588</ele>
        <time>2021-09-14T06:25:44.757Z</time>
      </trkpt>
      <trkpt lat="49.43704" lon="1.08729">
        <ele>10.952289</ele>
        <time>2021-09-14T06:25:45.277Z</time>
      </trkpt>
      <trkpt lat="49.43711" lon="1.08685">
        <ele>10.799161</ele>
        <time>2021-09-14T06:25:51.529Z</time>
      </trkpt>
      <trkpt lat="49.43886" lon="1.08069">
        <ele>7.385768</ele>
        <time>2021-09-14T06:27:22.115Z</time>
      </trkpt>
      <trkpt lat="49.43891" lon="1.08053">
        <ele>7.278289</ele>
        <time>2021-09-14T06:27:24.539Z</time>
      </trkpt>
      <trkpt lat="49.43892" lon="1.08049">
        <ele>7.254099</ele>
        <time>2021-09-14T06:27:25.092Z</time>
      </trkpt>
      <trkpt lat="49.43894" lon="1.08041">
        <ele>7.199854</ele>
        <time>2021-09-14T06:27:26.268Z</time>
      </trkpt>
      <trkpt lat="49.43897" lon="1.08038">
        <ele>7.17122</ele>
        <time>2021-09-14T06:27:26.851Z</time>
      </trkpt>
      <trkpt lat="49.43896" lon="1.08046">
        <ele>7.126457</ele>
        <time>2021-09-14T06:27:30.289Z</time>
      </trkpt>
      <trkpt lat="49.43899" lon="1.08043">
        <ele>7.09119</ele>
        <time>2021-09-14T06:27:32.943Z</time>
      </trkpt>
      <trkpt lat="49.43911" lon="1.08046">
        <ele>6.986915</ele>
        <time>2021-09-14T06:27:40.859Z</time>
      </trkpt>
      <trkpt lat="49.43912" lon="1.08053">
        <ele>6.941394</ele>
        <time>2021-09-14T06:27:44.345Z</time>
      </trkpt>
      <trkpt lat="49.43916" lon="1.08057">
        <ele>6.900377</ele>
        <time>2021-09-14T06:27:49.891Z</time>
      </trkpt>
      <trkpt lat="49.43923" lon="1.08034">
        <ele>6.750689</ele>
        <time>2021-09-14T06:28:10.101Z</time>
      </trkpt>
      <trkpt lat="49.43924" lon="1.08035">
        <ele>6.736356</ele>
        <time>2021-09-14T06:28:11.997Z</time>
      </trkpt>
      <trkpt lat="49.43919" lon="1.08055">
        <ele>6.611039</ele>
        <time>2021-09-14T06:28:28.922Z</time>
      </trkpt>
      <trkpt lat="49.43924" lon="1.08035">
        <ele>6.485723</ele>
        <time>2021-09-14T06:28:45.848Z</time>
      </trkpt>
      <trkpt lat="49.43923" lon="1.08034">
        <ele>6.471389</ele>
        <time>2021-09-14T06:28:47.744Z</time>
      </trkpt>
      <trkpt lat="49.43916" lon="1.08057">
        <ele>6.313123</ele>
        <time>2021-09-14T06:29:07.954Z</time>
      </trkpt>
      <trkpt lat="49.43912" lon="1.08053">
        <ele>6.26742</ele>
        <time>2021-09-14T06:29:13.500Z</time>
      </trkpt>
      <trkpt lat="49.43911" lon="1.08046">
        <ele>6.216698</ele>
        <time>2021-09-14T06:29:16.986Z</time>
      </trkpt>
      <trkpt lat="49.43917" lon="1.08048">
        <ele>6.152751</ele>
        <time>2021-09-14T06:29:21.338Z</time>
      </trkpt>
      <trkpt lat="49.44058" lon="1.08149">
        <ele>4.568949</ele>
        <time>2021-09-14T06:31:09.393Z</time>
      </trkpt>
      <trkpt lat="49.44082" lon="1.08166">
        <ele>4.330313</ele>
        <time>2021-09-14T06:31:27.724Z</time>
      </trkpt>
      <trkpt lat="49.44079" lon="1.08173">
        <ele>4.283457</ele>
        <time>2021-09-14T06:31:34.115Z</time>
      </trkpt>
      <trkpt lat="49.44077" lon="1.08171">
        <ele>4.26068</ele>
        <time>2021-09-14T06:31:37.254Z</time>
      </trkpt>
      <trkpt lat="49.44085" lon="1.08143">
        <ele>4.074212</ele>
        <time>2021-09-14T06:32:02.779Z</time>
      </trkpt>
      <trkpt lat="49.44076" lon="1.08136">
        <ele>3.978975</ele>
        <time>2021-09-14T06:32:10.089Z</time>
      </trkpt>
      <trkpt lat="49.44069" lon="1.08157">
        <ele>3.843579</ele>
        <time>2021-09-14T06:32:14.111Z</time>
      </trkpt>
      <trkpt lat="49.44069" lon="1.08164">
        <ele>3.804012</ele>
        <time>2021-09-14T06:32:15.248Z</time>
      </trkpt>
      <trkpt lat="49.44069" lon="1.0817">
        <ele>3.765494</ele>
        <time>2021-09-14T06:32:16.418Z</time>
      </trkpt>
      <trkpt lat="49.44062" lon="1.08172">
        <ele>3.70066</ele>
        <time>2021-09-14T06:32:17.736Z</time>
      </trkpt>
      <trkpt lat="49.44055" lon="1.08182">
        <ele>3.613394</ele>
        <time>2021-09-14T06:32:19.607Z</time>
      </trkpt>
      <trkpt lat="49.44055" lon="1.08156">
        <ele>3.463187</ele>
        <time>2021-09-14T06:32:22.880Z</time>
      </trkpt>
      <trkpt lat="49.44068" lon="1.08115">
        <ele>3.197656</ele>
        <time>2021-09-14T06:32:28.587Z</time>
      </trkpt>
      <trkpt lat="49.44106" lon="1.07985">
        <ele>2.676852</ele>
        <time>2021-09-14T06:32:47.386Z</time>
      </trkpt>
      <trkpt lat="49.44204" lon="1.07658">
        <ele>1.912404</ele>
        <time>2021-09-14T06:33:37.121Z</time>
      </trkpt>
      <trkpt lat="49.44211" lon="1.07634">
        <ele>1.869977</ele>
        <time>2021-09-14T06:33:40.749Z</time>
      </trkpt>
      <trkpt lat="49.44218" lon="1.07609">
        <ele>1.82637</ele>
        <time>2021-09-14T06:33:44.586Z</time>
      </trkpt>
      <trkpt lat="49.44222" lon="1.07596">
        <ele>1.802492</ele>
        <time>2021-09-14T06:33:46.698Z</time>
      </trkpt>
      <trkpt lat="49.44263" lon="1.07461">
        <ele>1.649912</ele>
        <time>2021-09-14T06:34:07.714Z</time>
      </trkpt>
      <trkpt lat="49.44319" lon="1.07274">
        <ele>1.52485</ele>
        <time>2021-09-14T06:34:37.004Z</time>
      </trkpt>
      <trkpt lat="49.44351" lon="1.0716">
        <ele>1.558559</ele>
        <time>2021-09-14T06:34:54.258Z</time>
      </trkpt>
      <trkpt lat="49.44353" lon="1.07153">
        <ele>1.560449</ele>
        <time>2021-09-14T06:34:55.337Z</time>
      </trkpt>
      <trkpt lat="49.44366" lon="1.07108">
        <ele>1.573689</ele>
        <time>2021-09-14T06:35:02.968Z</time>
      </trkpt>
      <trkpt lat="49.44385" lon="1.07025">
        <ele>1.684066</ele>
        <time>2021-09-14T06:35:16.731Z</time>
      </trkpt>
      <trkpt lat="49.44412" lon="1.06884">
        <ele>2.003798</ele>
        <time>2021-09-14T06:35:39.205Z</time>
      </trkpt>
      <trkpt lat="49.44443" lon="1.06619">
        <ele>2.508981</ele>
        <time>2021-09-14T06:36:20.377Z</time>
      </trkpt>
      <trkpt lat="49.44452" lon="1.06447">
        <ele>2.944346</ele>
        <time>2021-09-14T06:36:45.846Z</time>
      </trkpt>
      <trkpt lat="49.44468" lon="1.06449">
        <ele>3.03061</ele>
        <time>2021-09-14T06:36:49.906Z</time>
      </trkpt>
      <trkpt lat="49.44484" lon="1.06449">
        <ele>3.116751</ele>
        <time>2021-09-14T06:36:54.129Z</time>
      </trkpt>
      <trkpt lat="49.44483" lon="1.06438">
        <ele>3.157606</ele>
        <time>2021-09-14T06:36:56.429Z</time>
      </trkpt>
      <trkpt lat="49.44479" lon="1.06392">
        <ele>3.317379</ele>
        <time>2021-09-14T06:37:05.948Z</time>
      </trkpt>
      <trkpt lat="49.44483" lon="1.06389">
        <ele>3.343449</ele>
        <time>2021-09-14T06:37:07.219Z</time>
      </trkpt>
      <trkpt lat="49.44487" lon="1.06387">
        <ele>3.362561</ele>
        <time>2021-09-14T06:37:08.053Z</time>
      </trkpt>
      <trkpt lat="49.44493" lon="1.06386">
        <ele>3.393438</ele>
        <time>2021-09-14T06:37:09.618Z</time>
      </trkpt>
      <trkpt lat="49.44493" lon="1.06385">
        <ele>3.396894</ele>
        <time>2021-09-14T06:37:09.758Z</time>
      </trkpt>
      <trkpt lat="49.44493" lon="1.06384">
        <ele>3.402769</ele>
        <time>2021-09-14T06:37:10.016Z</time>
      </trkpt>
      <trkpt lat="49.44493" lon="1.06378">
        <ele>3.422122</ele>
        <time>2021-09-14T06:37:10.887Z</time>
      </trkpt>
      <trkpt lat="49.44493" lon="1.0637">
        <ele>3.449774</ele>
        <time>2021-09-14T06:37:12.366Z</time>
      </trkpt>
      <trkpt lat="49.44501" lon="1.06364">
        <ele>3.499912</ele>
        <time>2021-09-14T06:37:14.728Z</time>
      </trkpt>
      <trkpt lat="49.44505" lon="1.06296">
        <ele>3.735935</ele>
        <time>2021-09-14T06:37:26.086Z</time>
      </trkpt>
      <trkpt lat="49.44518" lon="1.06244">
        <ele>3.932902</ele>
        <time>2021-09-14T06:37:35.689Z</time>
      </trkpt>
      <trkpt lat="49.44542" lon="1.06197">
        <ele>4.143691</ele>
        <time>2021-09-14T06:37:45.201Z</time>
      </trkpt>
      <trkpt lat="49.44567" lon="1.06168">
        <ele>4.315719</ele>
        <time>2021-09-14T06:37:52.906Z</time>
      </trkpt>
      <trkpt lat="49.44741" lon="1.06013">
        <ele>5.043379</ele>
        <time>2021-09-14T06:38:38.827Z</time>
      </trkpt>
      <trkpt lat="49.44793" lon="1.05985">
        <ele>5.370298</ele>
        <time>2021-09-14T06:38:52.220Z</time>
      </trkpt>
      <trkpt lat="49.44872" lon="1.05962">
        <ele>6.170779</ele>
        <time>2021-09-14T06:39:13.834Z</time>
      </trkpt>
      <trkpt lat="49.44909" lon="1.0594">
        <ele>6.559767</ele>
        <time>2021-09-14T06:39:24.415Z</time>
      </trkpt>
      <trkpt lat="49.44926" lon="1.05925">
        <ele>6.753909</ele>
        <time>2021-09-14T06:39:29.563Z</time>
      </trkpt>
      <trkpt lat="49.44928" lon="1.05923">
        <ele>6.780093</ele>
        <time>2021-09-14T06:39:30.256Z</time>
      </trkpt>
      <trkpt lat="49.44934" lon="1.05917">
        <ele>6.853065</ele>
        <time>2021-09-14T06:39:32.617Z</time>
      </trkpt>
      <trkpt lat="49.44998" lon="1.05849">
        <ele>7.224802</ele>
        <time>2021-09-14T06:39:52.967Z</time>
      </trkpt>
      <trkpt lat="49.45036" lon="1.05799">
        <ele>7.440391</ele>
        <time>2021-09-14T06:40:04.862Z</time>
      </trkpt>
      <trkpt lat="49.45063" lon="1.05718">
        <ele>7.691139</ele>
        <time>2021-09-14T06:40:17.892Z</time>
      </trkpt>
      <trkpt lat="49.45064" lon="1.05709">
        <ele>7.64538</ele>
        <time>2021-09-14T06:40:19.189Z</time>
      </trkpt>
      <trkpt lat="49.45066" lon="1.05684">
        <ele>7.524976</ele>
        <time>2021-09-14T06:40:22.224Z</time>
      </trkpt>
      <trkpt lat="49.45065" lon="1.05629">
        <ele>7.252809</ele>
        <time>2021-09-14T06:40:29.402Z</time>
      </trkpt>
      <trkpt lat="49.45055" lon="1.05555">
        <ele>6.879137</ele>
        <time>2021-09-14T06:40:39.141Z</time>
      </trkpt>
      <trkpt lat="49.44974" lon="1.05122">
        <ele>4.550096</ele>
        <time>2021-09-14T06:41:36.022Z</time>
      </trkpt>
      <trkpt lat="49.44958" lon="1.05071">
        <ele>4.415002</ele>
        <time>2021-09-14T06:41:43.753Z</time>
      </trkpt>
      <trkpt lat="49.44958" lon="1.0506">
        <ele>4.388697</ele>
        <time>2021-09-14T06:41:45.095Z</time>
      </trkpt>
      <trkpt lat="49.44957" lon="1.05049">
        <ele>4.361759</ele>
        <time>2021-09-14T06:41:46.696Z</time>
      </trkpt>
      <trkpt lat="49.44954" lon="1.05048">
        <ele>4.352286</ele>
        <time>2021-09-14T06:41:47.313Z</time>
      </trkpt>
      <trkpt lat="49.44948" lon="1.05039">
        <ele>4.318776</ele>
        <time>2021-09-14T06:41:49.301Z</time>
      </trkpt>
      <trkpt lat="49.44946" lon="1.05029">
        <ele>4.294761</ele>
        <time>2021-09-14T06:41:50.781Z</time>
      </trkpt>
      <trkpt lat="49.44944" lon="1.05029">
        <ele>4.287443</ele>
        <time>2021-09-14T06:41:51.271Z</time>
      </trkpt>
      <trkpt lat="49.4493" lon="1.05026">
        <ele>4.235722</ele>
        <time>2021-09-14T06:41:54.134Z</time>
      </trkpt>
      <trkpt lat="49.44916" lon="1.0502">
        <ele>4.181346</ele>
        <time>2021-09-14T06:41:57.520Z</time>
      </trkpt>
      <trkpt lat="49.44899" lon="1.05004">
        <ele>4.107146</ele>
        <time>2021-09-14T06:42:01.877Z</time>
      </trkpt>
      <trkpt lat="49.44744" lon="1.04866">
        <ele>4.699052</ele>
        <time>2021-09-14T06:42:44.535Z</time>
      </trkpt>
      <trkpt lat="49.44694" lon="1.04819">
        <ele>5.028716</ele>
        <time>2021-09-14T06:42:59.248Z</time>
      </trkpt>
      <trkpt lat="49.44658" lon="1.04798">
        <ele>5.269132</ele>
        <time>2021-09-14T06:43:08.779Z</time>
      </trkpt>
      <trkpt lat="49.44602" lon="1.04778">
        <ele>5.635487</ele>
        <time>2021-09-14T06:43:23.291Z</time>
      </trkpt>
      <trkpt lat="49.4456" lon="1.0475">
        <ele>5.91962</ele>
        <time>2021-09-14T06:43:34.653Z</time>
      </trkpt>
      <trkpt lat="49.44102" lon="1.0433">
        <ele>7.5781</ele>
        <time>2021-09-14T06:45:40.226Z</time>
      </trkpt>
      <trkpt lat="49.44094" lon="1.04321">
        <ele>7.552797</ele>
        <time>2021-09-14T06:45:42.496Z</time>
      </trkpt>
      <trkpt lat="49.44065" lon="1.04285">
        <ele>7.296518</ele>
        <time>2021-09-14T06:45:50.259Z</time>
      </trkpt>
      <trkpt lat="49.43988" lon="1.04147">
        <ele>6.471472</ele>
        <time>2021-09-14T06:46:13.367Z</time>
      </trkpt>
      <trkpt lat="49.43965" lon="1.04092">
        <ele>6.14961</ele>
        <time>2021-09-14T06:46:21.327Z</time>
      </trkpt>
      <trkpt lat="49.4395" lon="1.04048">
        <ele>5.881928</ele>
        <time>2021-09-14T06:46:27.503Z</time>
      </trkpt>
      <trkpt lat="49.43942" lon="1.04023">
        <ele>5.728726</ele>
        <time>2021-09-14T06:46:31.102Z</time>
      </trkpt>
      <trkpt lat="49.43872" lon="1.03819">
        <ele>4.911465</ele>
        <time>2021-09-14T06:47:01.275Z</time>
      </trkpt>
      <trkpt lat="49.4381" lon="1.03637">
        <ele>5.083742</ele>
        <time>2021-09-14T06:47:32.819Z</time>
      </trkpt>
      <trkpt lat="49.438" lon="1.03611">
        <ele>5.165213</ele>
        <time>2021-09-14T06:47:37.644Z</time>
      </trkpt>
      <trkpt lat="49.43804" lon="1.03609">
        <ele>5.18423</ele>
        <time>2021-09-14T06:47:38.700Z</time>
      </trkpt>
      <trkpt lat="49.43807" lon="1.03607">
        <ele>5.201263</ele>
        <time>2021-09-14T06:47:39.660Z</time>
      </trkpt>
      <trkpt lat="49.43804" lon="1.03597">
        <ele>5.233485</ele>
        <time>2021-09-14T06:47:41.673Z</time>
      </trkpt>
      <trkpt lat="49.43758" lon="1.03509">
        <ele>5.564188</ele>
        <time>2021-09-14T06:48:00.483Z</time>
      </trkpt>
      <trkpt lat="49.43732" lon="1.03475">
        <ele>5.718379</ele>
        <time>2021-09-14T06:48:09.115Z</time>
      </trkpt>
      <trkpt lat="49.43725" lon="1.03466">
        <ele>5.761752</ele>
        <time>2021-09-14T06:48:11.503Z</time>
      </trkpt>
      <trkpt lat="49.43697" lon="1.0343">
        <ele>5.868574</ele>
        <time>2021-09-14T06:48:20.343Z</time>
      </trkpt>
      <trkpt lat="49.4369" lon="1.03419">
        <ele>5.821875</ele>
        <time>2021-09-14T06:48:22.678Z</time>
      </trkpt>
      <trkpt lat="49.43634" lon="1.03335">
        <ele>5.46186</ele>
        <time>2021-09-14T06:48:40.186Z</time>
      </trkpt>
      <trkpt lat="49.43454" lon="1.0303">
        <ele>3.295978</ele>
        <time>2021-09-14T06:49:34.483Z</time>
      </trkpt>
      <trkpt lat="49.43367" lon="1.02901">
        <ele>2.151739</ele>
        <time>2021-09-14T06:49:58.874Z</time>
      </trkpt>
      <trkpt lat="49.43318" lon="1.02841">
        <ele>1.592919</ele>
        <time>2021-09-14T06:50:11.684Z</time>
      </trkpt>
      <trkpt lat="49.43271" lon="1.02794">
        <ele>1.421252</ele>
        <time>2021-09-14T06:50:23.305Z</time>
      </trkpt>
      <trkpt lat="49.43228" lon="1.02752">
        <ele>1.264379</ele>
        <time>2021-09-14T06:50:34.338Z</time>
      </trkpt>
      <trkpt lat="49.4311" lon="1.02637">
        <ele>1.458257</ele>
        <time>2021-09-14T06:51:07.861Z</time>
      </trkpt>
      <trkpt lat="49.4307" lon="1.026">
        <ele>1.711756</ele>
        <time>2021-09-14T06:51:20.154Z</time>
      </trkpt>
      <trkpt lat="49.42953" lon="1.02493">
        <ele>2.494716</ele>
        <time>2021-09-14T06:51:55.953Z</time>
      </trkpt>
      <trkpt lat="49.42948" lon="1.02488">
        <ele>2.534471</ele>
        <time>2021-09-14T06:51:57.742Z</time>
      </trkpt>
      <trkpt lat="49.42899" lon="1.02439">
        <ele>2.880776</ele>
        <time>2021-09-14T06:52:12.298Z</time>
      </trkpt>
      <trkpt lat="49.42801" lon="1.02325">
        <ele>3.280457</ele>
        <time>2021-09-14T06:52:42.510Z</time>
      </trkpt>
      <trkpt lat="49.42705" lon="1.02245">
        <ele>3.492845</ele>
        <time>2021-09-14T06:53:08.315Z</time>
      </trkpt>
      <trkpt lat="49.42616" lon="1.02171">
        <ele>3.649304</ele>
        <time>2021-09-14T06:53:31.596Z</time>
      </trkpt>
      <trkpt lat="49.42514" lon="1.02086">
        <ele>3.984671</ele>
        <time>2021-09-14T06:54:00.234Z</time>
      </trkpt>
      <trkpt lat="49.42507" lon="1.02082">
        <ele>4.018748</ele>
        <time>2021-09-14T06:54:02.077Z</time>
      </trkpt>
      <trkpt lat="49.4234" lon="1.01966">
        <ele>4.517501</ele>
        <time>2021-09-14T06:54:48.179Z</time>
      </trkpt>
      <trkpt lat="49.42295" lon="1.01933">
        <ele>4.463054</ele>
        <time>2021-09-14T06:54:59.436Z</time>
      </trkpt>
      <trkpt lat="49.42253" lon="1.01901">
        <ele>4.410793</ele>
        <time>2021-09-14T06:55:09.511Z</time>
      </trkpt>
      <trkpt lat="49.42032" lon="1.01763">
        <ele>3.592841</ele>
        <time>2021-09-14T06:56:00.349Z</time>
      </trkpt>
      <trkpt lat="49.41963" lon="1.01721">
        <ele>3.831554</ele>
        <time>2021-09-14T06:56:18.472Z</time>
      </trkpt>
      <trkpt lat="49.41875" lon="1.01668">
        <ele>4.119325</ele>
        <time>2021-09-14T06:56:43.636Z</time>
      </trkpt>
      <trkpt lat="49.41844" lon="1.01649">
        <ele>4.206452</ele>
        <time>2021-09-14T06:56:52.232Z</time>
      </trkpt>
      <trkpt lat="49.41778" lon="1.0161">
        <ele>4.39314</ele>
        <time>2021-09-14T06:57:09.615Z</time>
      </trkpt>
      <trkpt lat="49.41742" lon="1.0159">
        <ele>4.491724</ele>
        <time>2021-09-14T06:57:18.390Z</time>
      </trkpt>
      <trkpt lat="49.41504" lon="1.01455">
        <ele>3.090075</ele>
        <time>2021-09-14T06:58:11.188Z</time>
      </trkpt>
      <trkpt lat="49.415" lon="1.01453">
        <ele>3.076081</ele>
        <time>2021-09-14T06:58:11.957Z</time>
      </trkpt>
      <trkpt lat="49.41468" lon="1.01435">
        <ele>2.968899</ele>
        <time>2021-09-14T06:58:19.659Z</time>
      </trkpt>
      <trkpt lat="49.41417" lon="1.01407">
        <ele>2.800982</ele>
        <time>2021-09-14T06:58:31.863Z</time>
      </trkpt>
      <trkpt lat="49.41393" lon="1.01393">
        <ele>2.719151</ele>
        <time>2021-09-14T06:58:37.944Z</time>
      </trkpt>
      <trkpt lat="49.41352" lon="1.0137">
        <ele>2.988178</ele>
        <time>2021-09-14T06:58:48.554Z</time>
      </trkpt>
      <trkpt lat="49.41337" lon="1.01362">
        <ele>3.084873</ele>
        <time>2021-09-14T06:58:52.786Z</time>
      </trkpt>
      <trkpt lat="49.41117" lon="1.01248">
        <ele>4.553381</ele>
        <time>2021-09-14T06:59:53.657Z</time>
      </trkpt>
      <trkpt lat="49.40962" lon="1.0118">
        <ele>5.121422</ele>
        <time>2021-09-14T07:00:33.994Z</time>
      </trkpt>
      <trkpt lat="49.40692" lon="1.01093">
        <ele>4.794403</ele>
        <time>2021-09-14T07:01:35.999Z</time>
      </trkpt>
      <trkpt lat="49.40388" lon="1.01027">
        <ele>3.35666</ele>
        <time>2021-09-14T07:02:41.287Z</time>
      </trkpt>
      <trkpt lat="49.40377" lon="1.01024">
        <ele>3.314391</ele>
        <time>2021-09-14T07:02:44.036Z</time>
      </trkpt>
      <trkpt lat="49.40362" lon="1.01021">
        <ele>3.252422</ele>
        <time>2021-09-14T07:02:47.433Z</time>
      </trkpt>
      <trkpt lat="49.40285" lon="1.01005">
        <ele>3.244034</ele>
        <time>2021-09-14T07:03:05.616Z</time>
      </trkpt>
      <trkpt lat="49.40067" lon="1.00959">
        <ele>3.46565</ele>
        <time>2021-09-14T07:03:57.900Z</time>
      </trkpt>
      <trkpt lat="49.39901" lon="1.00912">
        <ele>3.66545</ele>
        <time>2021-09-14T07:04:37.062Z</time>
      </trkpt>
      <trkpt lat="49.39897" lon="1.00911">
        <ele>3.670616</ele>
        <time>2021-09-14T07:04:37.967Z</time>
      </trkpt>
      <trkpt lat="49.39785" lon="1.00872">
        <ele>3.918808</ele>
        <time>2021-09-14T07:05:05.585Z</time>
      </trkpt>
      <trkpt lat="49.39634" lon="1.00821">
        <ele>4.623734</ele>
        <time>2021-09-14T07:05:44.643Z</time>
      </trkpt>
      <trkpt lat="49.39608" lon="1.00815">
        <ele>4.708824</ele>
        <time>2021-09-14T07:05:51.337Z</time>
      </trkpt>
      <trkpt lat="49.39575" lon="1.00809">
        <ele>4.821701</ele>
        <time>2021-09-14T07:05:59.944Z</time>
      </trkpt>
      <trkpt lat="49.39522" lon="1.00799">
        <ele>4.995211</ele>
        <time>2021-09-14T07:06:12.908Z</time>
      </trkpt>
      <trkpt lat="49.39067" lon="1.00748">
        <ele>5.158865</ele>
        <time>2021-09-14T07:07:59.421Z</time>
      </trkpt>
      <trkpt lat="49.3905" lon="1.00746">
        <ele>5.098572</ele>
        <time>2021-09-14T07:08:03.356Z</time>
      </trkpt>
      <trkpt lat="49.38961" lon="1.00736">
        <ele>4.792931</ele>
        <time>2021-09-14T07:08:22.530Z</time>
      </trkpt>
      <trkpt lat="49.38922" lon="1.00732">
        <ele>4.659239</ele>
        <time>2021-09-14T07:08:30.675Z</time>
      </trkpt>
      <trkpt lat="49.3877" lon="1.00714">
        <ele>4.031649</ele>
        <time>2021-09-14T07:09:03.839Z</time>
      </trkpt>
      <trkpt lat="49.38763" lon="1.00714">
        <ele>4.005678</ele>
        <time>2021-09-14T07:09:05.375Z</time>
      </trkpt>
      <trkpt lat="49.38717" lon="1.00709">
        <ele>3.780457</ele>
        <time>2021-09-14T07:09:15.544Z</time>
      </trkpt>
      <trkpt lat="49.38693" lon="1.00707">
        <ele>3.646989</ele>
        <time>2021-09-14T07:09:21.111Z</time>
      </trkpt>
      <trkpt lat="49.38591" lon="1.00689">
        <ele>3.079825</ele>
        <time>2021-09-14T07:09:42.829Z</time>
      </trkpt>
      <trkpt lat="49.3859" lon="1.00699">
        <ele>3.043072</ele>
        <time>2021-09-14T07:09:44.450Z</time>
      </trkpt>
      <trkpt lat="49.38588" lon="1.00714">
        <ele>2.990453</ele>
        <time>2021-09-14T07:09:46.301Z</time>
      </trkpt>
      <trkpt lat="49.38578" lon="1.00722">
        <ele>2.926763</ele>
        <time>2021-09-14T07:09:48.630Z</time>
      </trkpt>
      <trkpt lat="49.38576" lon="1.00759">
        <ele>2.69051</ele>
        <time>2021-09-14T07:09:53.558Z</time>
      </trkpt>
      <trkpt lat="49.38571" lon="1.00766">
        <ele>2.614592</ele>
        <time>2021-09-14T07:09:55.155Z</time>
      </trkpt>
      <trkpt lat="49.38566" lon="1.00772">
        <ele>2.55355</ele>
        <time>2021-09-14T07:09:56.225Z</time>
      </trkpt>
      <trkpt lat="49.38558" lon="1.00772">
        <ele>2.472378</ele>
        <time>2021-09-14T07:09:57.854Z</time>
      </trkpt>
      <trkpt lat="49.38563" lon="1.00796">
        <ele>2.30366</ele>
        <time>2021-09-14T07:10:01.007Z</time>
      </trkpt>
      <trkpt lat="49.38554" lon="1.00815">
        <ele>2.148037</ele>
        <time>2021-09-14T07:10:03.846Z</time>
      </trkpt>
      <trkpt lat="49.385" lon="1.00806">
        <ele>1.594093</ele>
        <time>2021-09-14T07:10:13.858Z</time>
      </trkpt>
      <trkpt lat="49.38443" lon="1.00702">
        <ele>1.109301</ele>
        <time>2021-09-14T07:10:30.944Z</time>
      </trkpt>
      <trkpt lat="49.38417" lon="1.00693">
        <ele>1.134363</ele>
        <time>2021-09-14T07:10:36.981Z</time>
      </trkpt>
      <trkpt lat="49.3837" lon="1.00683">
        <ele>1.178652</ele>
        <time>2021-09-14T07:10:47.574Z</time>
      </trkpt>
      <trkpt lat="49.38286" lon="1.00685">
        <ele>1.443597</ele>
        <time>2021-09-14T07:11:09.029Z</time>
      </trkpt>
      <trkpt lat="49.38029" lon="1.00519">
        <ele>4.155036</ele>
        <time>2021-09-14T07:12:25.548Z</time>
      </trkpt>
      <trkpt lat="49.37843" lon="1.00428">
        <ele>3.923815</ele>
        <time>2021-09-14T07:13:05.903Z</time>
      </trkpt>
      <trkpt lat="49.37836" lon="1.00424">
        <ele>3.888189</ele>
        <time>2021-09-14T07:13:07.149Z</time>
      </trkpt>
      <trkpt lat="49.37784" lon="1.00404">
        <ele>3.685221</ele>
        <time>2021-09-14T07:13:18.146Z</time>
      </trkpt>
      <trkpt lat="49.37715" lon="1.00361">
        <ele>3.716422</ele>
        <time>2021-09-14T07:13:33.522Z</time>
      </trkpt>
      <trkpt lat="49.37568" lon="1.00244">
        <ele>4.260068</ele>
        <time>2021-09-14T07:14:14.070Z</time>
      </trkpt>
      <trkpt lat="49.37566" lon="1.00236">
        <ele>4.297696</ele>
        <time>2021-09-14T07:14:15.151Z</time>
      </trkpt>
      <trkpt lat="49.37564" lon="1.00225">
        <ele>4.348569</ele>
        <time>2021-09-14T07:14:17.316Z</time>
      </trkpt>
      <trkpt lat="49.37567" lon="1.00193">
        <ele>4.493139</ele>
        <time>2021-09-14T07:14:22.829Z</time>
      </trkpt>
      <trkpt lat="49.37574" lon="1.00168">
        <ele>4.619442</ele>
        <time>2021-09-14T07:14:27.270Z</time>
      </trkpt>
      <trkpt lat="49.37577" lon="1.00154">
        <ele>4.687262</ele>
        <time>2021-09-14T07:14:30.001Z</time>
      </trkpt>
      <trkpt lat="49.37573" lon="1.00144">
        <ele>4.741418</ele>
        <time>2021-09-14T07:14:31.987Z</time>
      </trkpt>
      <trkpt lat="49.37502" lon="1.00105">
        <ele>5.007212</ele>
        <time>2021-09-14T07:14:50.816Z</time>
      </trkpt>
      <trkpt lat="49.37485" lon="1.00095">
        <ele>5.006211</ele>
        <time>2021-09-14T07:14:55.335Z</time>
      </trkpt>
      <trkpt lat="49.3742" lon="1.00059">
        <ele>5.002513</ele>
        <time>2021-09-14T07:15:11.004Z</time>
      </trkpt>
      <trkpt lat="49.37275" lon="0.99972">
        <ele>3.99937</ele>
        <time>2021-09-14T07:15:41.465Z</time>
      </trkpt>
      <trkpt lat="49.372" lon="0.99912">
        <ele>3.143489</ele>
        <time>2021-09-14T07:15:57.448Z</time>
      </trkpt>
      <trkpt lat="49.3715" lon="0.99895">
        <ele>2.650261</ele>
        <time>2021-09-14T07:16:07.109Z</time>
      </trkpt>
      <trkpt lat="49.37083" lon="0.9986">
        <ele>1.965241</ele>
        <time>2021-09-14T07:16:20.813Z</time>
      </trkpt>
      <trkpt lat="49.37079" lon="0.99863">
        <ele>1.922542</ele>
        <time>2021-09-14T07:16:21.694Z</time>
      </trkpt>
      <trkpt lat="49.37062" lon="0.99856">
        <ele>1.752063</ele>
        <time>2021-09-14T07:16:25.365Z</time>
      </trkpt>
      <trkpt lat="49.37033" lon="0.99836">
        <ele>1.45092</ele>
        <time>2021-09-14T07:16:31.945Z</time>
      </trkpt>
      <trkpt lat="49.36991" lon="0.99801">
        <ele>1.294208</ele>
        <time>2021-09-14T07:16:42.193Z</time>
      </trkpt>
      <trkpt lat="49.36839" lon="0.99681">
        <ele>0.772072</ele>
        <time>2021-09-14T07:17:20.610Z</time>
      </trkpt>
      <trkpt lat="49.36704" lon="0.99565">
        <ele>0.434478</ele>
        <time>2021-09-14T07:17:54.993Z</time>
      </trkpt>
      <trkpt lat="49.3661" lon="0.99471">
        <ele>0.311658</ele>
        <time>2021-09-14T07:18:20.349Z</time>
      </trkpt>
      <trkpt lat="49.36411" lon="0.99254">
        <ele>0.389621</ele>
        <time>2021-09-14T07:19:17.645Z</time>
      </trkpt>
      <trkpt lat="49.35764" lon="0.98309">
        <ele>0.89355</ele>
        <time>2021-09-14T07:22:46.014Z</time>
      </trkpt>
      <trkpt lat="49.35722" lon="0.98228">
        <ele>1.162547</ele>
        <time>2021-09-14T07:23:02.858Z</time>
      </trkpt>
      <trkpt lat="49.35719" lon="0.98207">
        <ele>1.219376</ele>
        <time>2021-09-14T07:23:06.227Z</time>
      </trkpt>
      <trkpt lat="49.35721" lon="0.98159">
        <ele>1.344588</ele>
        <time>2021-09-14T07:23:18.616Z</time>
      </trkpt>
      <trkpt lat="49.35725" lon="0.98126">
        <ele>1.43055</ele>
        <time>2021-09-14T07:23:27.153Z</time>
      </trkpt>
      <trkpt lat="49.35718" lon="0.98074">
        <ele>1.567948</ele>
        <time>2021-09-14T07:23:40.705Z</time>
      </trkpt>
      <trkpt lat="49.35631" lon="0.97794">
        <ele>2.212297</ele>
        <time>2021-09-14T07:24:58.678Z</time>
      </trkpt>
      <trkpt lat="49.35613" lon="0.97757">
        <ele>2.152583</ele>
        <time>2021-09-14T07:25:09.628Z</time>
      </trkpt>
      <trkpt lat="49.35588" lon="0.97723">
        <ele>2.085748</ele>
        <time>2021-09-14T07:25:21.496Z</time>
      </trkpt>
      <trkpt lat="49.35488" lon="0.97637">
        <ele>1.822164</ele>
        <time>2021-09-14T07:26:02.907Z</time>
      </trkpt>
      <trkpt lat="49.35469" lon="0.97608">
        <ele>1.711024</ele>
        <time>2021-09-14T07:26:11.953Z</time>
      </trkpt>
      <trkpt lat="49.35462" lon="0.97596">
        <ele>1.663301</ele>
        <time>2021-09-14T07:26:16.230Z</time>
      </trkpt>
      <trkpt lat="49.35448" lon="0.97554">
        <ele>1.533909</ele>
        <time>2021-09-14T07:26:22.473Z</time>
      </trkpt>
      <trkpt lat="49.35392" lon="0.97334">
        <ele>0.932693</ele>
        <time>2021-09-14T07:26:54.507Z</time>
      </trkpt>
      <trkpt lat="49.3535" lon="0.97115">
        <ele>0.49134</ele>
        <time>2021-09-14T07:27:25.754Z</time>
      </trkpt>
      <trkpt lat="49.35315" lon="0.96823">
        <ele>0.332407</ele>
        <time>2021-09-14T07:28:08.100Z</time>
      </trkpt>
      <trkpt lat="49.35287" lon="0.96421">
        <ele>0.660771</ele>
        <time>2021-09-14T07:29:07.325Z</time>
      </trkpt>
      <trkpt lat="49.35274" lon="0.95988">
        <ele>2.225992</ele>
        <time>2021-09-14T07:30:17.499Z</time>
      </trkpt>
      <trkpt lat="49.35271" lon="0.95636">
        <ele>2.931712</ele>
        <time>2021-09-14T07:31:12.999Z</time>
      </trkpt>
      <trkpt lat="49.35275" lon="0.95417">
        <ele>2.605869</ele>
        <time>2021-09-14T07:31:42.126Z</time>
      </trkpt>
      <trkpt lat="49.35275" lon="0.95327">
        <ele>2.288117</ele>
        <time>2021-09-14T07:31:53.795Z</time>
      </trkpt>
      <trkpt lat="49.35274" lon="0.95149">
        <ele>1.823976</ele>
        <time>2021-09-14T07:32:18.095Z</time>
      </trkpt>
      <trkpt lat="49.35239" lon="0.94553">
        <ele>1.175809</ele>
        <time>2021-09-14T07:33:42.711Z</time>
      </trkpt>
      <trkpt lat="49.35226" lon="0.94307">
        <ele>1.034625</ele>
        <time>2021-09-14T07:34:17.416Z</time>
      </trkpt>
      <trkpt lat="49.35225" lon="0.94244">
        <ele>1.043112</ele>
        <time>2021-09-14T07:34:26.591Z</time>
      </trkpt>
      <trkpt lat="49.35238" lon="0.94027">
        <ele>1.157383</ele>
        <time>2021-09-14T07:34:59.071Z</time>
      </trkpt>
      <trkpt lat="49.35264" lon="0.9385">
        <ele>1.331538</ele>
        <time>2021-09-14T07:35:25.987Z</time>
      </trkpt>
      <trkpt lat="49.35307" lon="0.93663">
        <ele>1.492658</ele>
        <time>2021-09-14T07:35:55.811Z</time>
      </trkpt>
      <trkpt lat="49.35357" lon="0.93509">
        <ele>1.72053</ele>
        <time>2021-09-14T07:36:20.528Z</time>
      </trkpt>
      <trkpt lat="49.35367" lon="0.9351">
        <ele>1.746401</ele>
        <time>2021-09-14T07:36:22.676Z</time>
      </trkpt>
      <trkpt lat="49.35369" lon="0.93504">
        <ele>1.757683</ele>
        <time>2021-09-14T07:36:23.823Z</time>
      </trkpt>
      <trkpt lat="49.35377" lon="0.93482">
        <ele>1.800205</ele>
        <time>2021-09-14T07:36:27.557Z</time>
      </trkpt>
      <trkpt lat="49.35364" lon="0.93483">
        <ele>1.834388</ele>
        <time>2021-09-14T07:36:30.434Z</time>
      </trkpt>
      <trkpt lat="49.35356" lon="0.93493">
        <ele>1.859162</ele>
        <time>2021-09-14T07:36:32.772Z</time>
      </trkpt>
      <trkpt lat="49.35348" lon="0.93505">
        <ele>1.888802</ele>
        <time>2021-09-14T07:36:35.443Z</time>
      </trkpt>
      <trkpt lat="49.35337" lon="0.93529">
        <ele>1.938365</ele>
        <time>2021-09-14T07:36:39.852Z</time>
      </trkpt>
      <trkpt lat="49.35328" lon="0.93547">
        <ele>1.976909</ele>
        <time>2021-09-14T07:36:41.933Z</time>
      </trkpt>
      <trkpt lat="49.35314" lon="0.93566">
        <ele>2.115658</ele>
        <time>2021-09-14T07:36:44.505Z</time>
      </trkpt>
      <trkpt lat="49.35303" lon="0.93571">
        <ele>2.36875</ele>
        <time>2021-09-14T07:36:45.998Z</time>
      </trkpt>
      <trkpt lat="49.35284" lon="0.93562">
        <ele>2.840921</ele>
        <time>2021-09-14T07:36:48.766Z</time>
      </trkpt>
      <trkpt lat="49.35133" lon="0.9337">
        <ele>7.956807</ele>
        <time>2021-09-14T07:37:16.054Z</time>
      </trkpt>
      <trkpt lat="49.35107" lon="0.93348">
        <ele>8.931647</ele>
        <time>2021-09-14T07:37:20.218Z</time>
      </trkpt>
      <trkpt lat="49.35096" lon="0.93342">
        <ele>9.294384</ele>
        <time>2021-09-14T07:37:23.008Z</time>
      </trkpt>
      <trkpt lat="49.35083" lon="0.93334">
        <ele>9.769401</ele>
        <time>2021-09-14T07:37:29.628Z</time>
      </trkpt>
      <trkpt lat="49.35064" lon="0.93313">
        <ele>10.510439</ele>
        <time>2021-09-14T07:37:36.618Z</time>
      </trkpt>
      <trkpt lat="49.35044" lon="0.93292">
        <ele>11.311504</ele>
        <time>2021-09-14T07:37:47.102Z</time>
      </trkpt>
      <trkpt lat="49.35027" lon="0.93268">
        <ele>12.067527</ele>
        <time>2021-09-14T07:37:51.628Z</time>
      </trkpt>
      <trkpt lat="49.35019" lon="0.93258">
        <ele>12.095405</ele>
        <time>2021-09-14T07:37:56.832Z</time>
      </trkpt>
      <trkpt lat="49.35028" lon="0.93242">
        <ele>11.984421</ele>
        <time>2021-09-14T07:37:58.961Z</time>
      </trkpt>
      <trkpt lat="49.35047" lon="0.93211">
        <ele>11.771545</ele>
        <time>2021-09-14T07:38:09.093Z</time>
      </trkpt>
      <trkpt lat="49.35062" lon="0.93192">
        <ele>11.619455</ele>
        <time>2021-09-14T07:38:12.836Z</time>
      </trkpt>
      <trkpt lat="49.35089" lon="0.93176">
        <ele>11.393453</ele>
        <time>2021-09-14T07:38:18.539Z</time>
      </trkpt>
      <trkpt lat="49.3511" lon="0.93167">
        <ele>11.227221</ele>
        <time>2021-09-14T07:38:26.008Z</time>
      </trkpt>
      <trkpt lat="49.35119" lon="0.93164">
        <ele>11.154384</ele>
        <time>2021-09-14T07:38:27.312Z</time>
      </trkpt>
      <trkpt lat="49.35123" lon="0.93162">
        <ele>11.122185</ele>
        <time>2021-09-14T07:38:27.940Z</time>
      </trkpt>
      <trkpt lat="49.35156" lon="0.93151">
        <ele>10.854894</ele>
        <time>2021-09-14T07:38:33.636Z</time>
      </trkpt>
      <trkpt lat="49.3516" lon="0.93147">
        <ele>10.824579</ele>
        <time>2021-09-14T07:38:34.248Z</time>
      </trkpt>
      <trkpt lat="49.35192" lon="0.93102">
        <ele>10.093832</ele>
        <time>2021-09-14T07:38:41.064Z</time>
      </trkpt>
      <trkpt lat="49.35194" lon="0.93097">
        <ele>10.015264</ele>
        <time>2021-09-14T07:38:41.885Z</time>
      </trkpt>
      <trkpt lat="49.35201" lon="0.93085">
        <ele>9.816867</ele>
        <time>2021-09-14T07:38:43.554Z</time>
      </trkpt>
      <trkpt lat="49.35205" lon="0.93077">
        <ele>9.696269</ele>
        <time>2021-09-14T07:38:44.454Z</time>
      </trkpt>
      <trkpt lat="49.35214" lon="0.93062">
        <ele>9.441511</ele>
        <time>2021-09-14T07:38:46.786Z</time>
      </trkpt>
      <trkpt lat="49.35233" lon="0.93048">
        <ele>9.02715</ele>
        <time>2021-09-14T07:38:50.614Z</time>
      </trkpt>
      <trkpt lat="49.3524" lon="0.93047">
        <ele>8.896172</ele>
        <time>2021-09-14T07:38:51.690Z</time>
      </trkpt>
      <trkpt lat="49.35244" lon="0.93045">
        <ele>8.811205</ele>
        <time>2021-09-14T07:38:53.008Z</time>
      </trkpt>
      <trkpt lat="49.35268" lon="0.93006">
        <ele>8.157838</ele>
        <time>2021-09-14T07:39:00.188Z</time>
      </trkpt>
      <trkpt lat="49.35268" lon="0.93005">
        <ele>8.136814</ele>
        <time>2021-09-14T07:39:00.624Z</time>
      </trkpt>
      <trkpt lat="49.35286" lon="0.92974">
        <ele>7.615695</ele>
        <time>2021-09-14T07:39:06.195Z</time>
      </trkpt>
      <trkpt lat="49.35303" lon="0.92944">
        <ele>7.21571</ele>
        <time>2021-09-14T07:39:11.370Z</time>
      </trkpt>
      <trkpt lat="49.35304" lon="0.92941">
        <ele>7.192519</ele>
        <time>2021-09-14T07:39:11.870Z</time>
      </trkpt>
      <trkpt lat="49.35328" lon="0.92902">
        <ele>6.857297</ele>
        <time>2021-09-14T07:39:18.464Z</time>
      </trkpt>
      <trkpt lat="49.35355" lon="0.92855">
        <ele>6.456112</ele>
        <time>2021-09-14T07:39:26.503Z</time>
      </trkpt>
      <trkpt lat="49.35363" lon="0.9284">
        <ele>6.336349</ele>
        <time>2021-09-14T07:39:28.891Z</time>
      </trkpt>
      <trkpt lat="49.35375" lon="0.92821">
        <ele>6.162297</ele>
        <time>2021-09-14T07:39:32.271Z</time>
      </trkpt>
      <trkpt lat="49.35546" lon="0.92594">
        <ele>3.949107</ele>
        <time>2021-09-14T07:40:15.026Z</time>
      </trkpt>
      <trkpt lat="49.35746" lon="0.92369">
        <ele>3.895112</ele>
        <time>2021-09-14T07:41:10.444Z</time>
      </trkpt>
      <trkpt lat="49.35765" lon="0.92345">
        <ele>3.987292</ele>
        <time>2021-09-14T07:41:16.794Z</time>
      </trkpt>
      <trkpt lat="49.35785" lon="0.92321">
        <ele>4.078463</ele>
        <time>2021-09-14T07:41:22.838Z</time>
      </trkpt>
      <trkpt lat="49.35791" lon="0.92313">
        <ele>4.106979</ele>
        <time>2021-09-14T07:41:24.917Z</time>
      </trkpt>
      <trkpt lat="49.35814" lon="0.92281">
        <ele>4.22107</ele>
        <time>2021-09-14T07:41:32.558Z</time>
      </trkpt>
      <trkpt lat="49.35854" lon="0.92222">
        <ele>4.328481</ele>
        <time>2021-09-14T07:41:45.844Z</time>
      </trkpt>
      <trkpt lat="49.35871" lon="0.92205">
        <ele>4.289169</ele>
        <time>2021-09-14T07:41:50.628Z</time>
      </trkpt>
      <trkpt lat="49.35933" lon="0.92172">
        <ele>4.161212</ele>
        <time>2021-09-14T07:42:05.078Z</time>
      </trkpt>
      <trkpt lat="49.35985" lon="0.92114">
        <ele>4.034729</ele>
        <time>2021-09-14T07:42:18.190Z</time>
      </trkpt>
      <trkpt lat="49.36053" lon="0.92057">
        <ele>3.511286</ele>
        <time>2021-09-14T07:42:33.317Z</time>
      </trkpt>
      <trkpt lat="49.36274" lon="0.91939">
        <ele>1.994712</ele>
        <time>2021-09-14T07:43:19.768Z</time>
      </trkpt>
      <trkpt lat="49.36407" lon="0.91836">
        <ele>1.719251</ele>
        <time>2021-09-14T07:43:52.280Z</time>
      </trkpt>
      <trkpt lat="49.36506" lon="0.91774">
        <ele>1.790036</ele>
        <time>2021-09-14T07:44:17.080Z</time>
      </trkpt>
      <trkpt lat="49.36765" lon="0.91681">
        <ele>1.892579</ele>
        <time>2021-09-14T07:45:17.489Z</time>
      </trkpt>
      <trkpt lat="49.36876" lon="0.91653">
        <ele>1.595419</ele>
        <time>2021-09-14T07:45:40.753Z</time>
      </trkpt>
      <trkpt lat="49.36942" lon="0.9163">
        <ele>1.234494</ele>
        <time>2021-09-14T07:45:54.451Z</time>
      </trkpt>
      <trkpt lat="49.37058" lon="0.91615">
        <ele>0.776093</ele>
        <time>2021-09-14T07:46:18.373Z</time>
      </trkpt>
      <trkpt lat="49.37111" lon="0.91591">
        <ele>0.712302</ele>
        <time>2021-09-14T07:46:30.349Z</time>
      </trkpt>
      <trkpt lat="49.37133" lon="0.91588">
        <ele>0.687626</ele>
        <time>2021-09-14T07:46:35.113Z</time>
      </trkpt>
      <trkpt lat="49.37203" lon="0.91599">
        <ele>0.631673</ele>
        <time>2021-09-14T07:46:51.153Z</time>
      </trkpt>
      <trkpt lat="49.3722" lon="0.91602">
        <ele>0.696885</ele>
        <time>2021-09-14T07:46:55.126Z</time>
      </trkpt>
      <trkpt lat="49.37247" lon="0.91604">
        <ele>0.798045</ele>
        <time>2021-09-14T07:47:01.423Z</time>
      </trkpt>
      <trkpt lat="49.37337" lon="0.91594">
        <ele>1.138304</ele>
        <time>2021-09-14T07:47:22.891Z</time>
      </trkpt>
      <trkpt lat="49.37412" lon="0.91608">
        <ele>1.582053</ele>
        <time>2021-09-14T07:47:41.432Z</time>
      </trkpt>
      <trkpt lat="49.37458" lon="0.91603">
        <ele>1.968464</ele>
        <time>2021-09-14T07:47:53.045Z</time>
      </trkpt>
      <trkpt lat="49.37507" lon="0.91597">
        <ele>2.378737</ele>
        <time>2021-09-14T07:48:05.799Z</time>
      </trkpt>
      <trkpt lat="49.37604" lon="0.91588">
        <ele>3.083074</ele>
        <time>2021-09-14T07:48:31.593Z</time>
      </trkpt>
      <trkpt lat="49.37683" lon="0.91569">
        <ele>3.559688</ele>
        <time>2021-09-14T07:48:51.566Z</time>
      </trkpt>
      <trkpt lat="49.37689" lon="0.91568">
        <ele>3.596007</ele>
        <time>2021-09-14T07:48:52.999Z</time>
      </trkpt>
      <trkpt lat="49.37882" lon="0.91533">
        <ele>3.843626</ele>
        <time>2021-09-14T07:49:36.346Z</time>
      </trkpt>
      <trkpt lat="49.3808" lon="0.9151">
        <ele>3.534726</ele>
        <time>2021-09-14T07:50:19.267Z</time>
      </trkpt>
      <trkpt lat="49.38209" lon="0.91514">
        <ele>2.868599</ele>
        <time>2021-09-14T07:50:46.249Z</time>
      </trkpt>
      <trkpt lat="49.38398" lon="0.91531">
        <ele>1.573472</ele>
        <time>2021-09-14T07:51:23.020Z</time>
      </trkpt>
      <trkpt lat="49.38492" lon="0.91548">
        <ele>1.180879</ele>
        <time>2021-09-14T07:51:42.452Z</time>
      </trkpt>
      <trkpt lat="49.38539" lon="0.91559">
        <ele>1.204447</ele>
        <time>2021-09-14T07:51:52.910Z</time>
      </trkpt>
      <trkpt lat="49.38618" lon="0.9158">
        <ele>1.244481</ele>
        <time>2021-09-14T07:52:11.763Z</time>
      </trkpt>
      <trkpt lat="49.38721" lon="0.91606">
        <ele>1.652192</ele>
        <time>2021-09-14T07:52:37.674Z</time>
      </trkpt>
      <trkpt lat="49.38813" lon="0.9164">
        <ele>2.037516</ele>
        <time>2021-09-14T07:53:00.082Z</time>
      </trkpt>
      <trkpt lat="49.39224" lon="0.91812">
        <ele>2.3355</ele>
        <time>2021-09-14T07:54:36.059Z</time>
      </trkpt>
      <trkpt lat="49.39318" lon="0.91845">
        <ele>2.320945</ele>
        <time>2021-09-14T07:54:56.967Z</time>
      </trkpt>
      <trkpt lat="49.39381" lon="0.91859">
        <ele>2.326198</ele>
        <time>2021-09-14T07:55:11.081Z</time>
      </trkpt>
      <trkpt lat="49.39397" lon="0.91864">
        <ele>2.328318</ele>
        <time>2021-09-14T07:55:14.734Z</time>
      </trkpt>
      <trkpt lat="49.3952" lon="0.91904">
        <ele>2.315277</ele>
        <time>2021-09-14T07:55:43.014Z</time>
      </trkpt>
      <trkpt lat="49.39834" lon="0.92008">
        <ele>1.572513</ele>
        <time>2021-09-14T07:56:51.820Z</time>
      </trkpt>
      <trkpt lat="49.39897" lon="0.92026">
        <ele>1.340049</ele>
        <time>2021-09-14T07:57:04.906Z</time>
      </trkpt>
      <trkpt lat="49.39924" lon="0.92033">
        <ele>1.231379</ele>
        <time>2021-09-14T07:57:10.438Z</time>
      </trkpt>
      <trkpt lat="49.39948" lon="0.92039">
        <ele>1.135504</ele>
        <time>2021-09-14T07:57:15.300Z</time>
      </trkpt>
      <trkpt lat="49.40104" lon="0.92077">
        <ele>1.075325</ele>
        <time>2021-09-14T07:57:49.132Z</time>
      </trkpt>
      <trkpt lat="49.40189" lon="0.92104">
        <ele>1.424551</ele>
        <time>2021-09-14T07:58:11.456Z</time>
      </trkpt>
      <trkpt lat="49.40241" lon="0.92121">
        <ele>1.580916</ele>
        <time>2021-09-14T07:58:25.114Z</time>
      </trkpt>
      <trkpt lat="49.40258" lon="0.92125">
        <ele>1.617716</ele>
        <time>2021-09-14T07:58:29.270Z</time>
      </trkpt>
      <trkpt lat="49.4029" lon="0.92141">
        <ele>1.692317</ele>
        <time>2021-09-14T07:58:37.094Z</time>
      </trkpt>
      <trkpt lat="49.40352" lon="0.9217">
        <ele>1.834971</ele>
        <time>2021-09-14T07:58:51.725Z</time>
      </trkpt>
      <trkpt lat="49.40417" lon="0.92202">
        <ele>1.836641</ele>
        <time>2021-09-14T07:59:06.279Z</time>
      </trkpt>
      <trkpt lat="49.40523" lon="0.9226">
        <ele>1.612435</ele>
        <time>2021-09-14T07:59:29.276Z</time>
      </trkpt>
      <trkpt lat="49.40552" lon="0.92272">
        <ele>1.552983</ele>
        <time>2021-09-14T07:59:35.804Z</time>
      </trkpt>
      <trkpt lat="49.40559" lon="0.92275">
        <ele>1.616619</ele>
        <time>2021-09-14T07:59:37.614Z</time>
      </trkpt>
      <trkpt lat="49.40577" lon="0.92284">
        <ele>1.833506</ele>
        <time>2021-09-14T07:59:42.119Z</time>
      </trkpt>
      <trkpt lat="49.40761" lon="0.92368">
        <ele>4.20647</ele>
        <time>2021-09-14T08:00:35.747Z</time>
      </trkpt>
      <trkpt lat="49.40773" lon="0.92365">
        <ele>4.401844</ele>
        <time>2021-09-14T08:00:39.693Z</time>
      </trkpt>
      <trkpt lat="49.40783" lon="0.92359">
        <ele>4.560969</ele>
        <time>2021-09-14T08:00:43.077Z</time>
      </trkpt>
      <trkpt lat="49.40796" lon="0.92341">
        <ele>4.833382</ele>
        <time>2021-09-14T08:00:47.881Z</time>
      </trkpt>
      <trkpt lat="49.40806" lon="0.92308">
        <ele>5.19964</ele>
        <time>2021-09-14T08:00:54.867Z</time>
      </trkpt>
      <trkpt lat="49.40815" lon="0.92269">
        <ele>5.615569</ele>
        <time>2021-09-14T08:01:02.879Z</time>
      </trkpt>
      <trkpt lat="49.40816" lon="0.9226">
        <ele>5.70524</ele>
        <time>2021-09-14T08:01:04.428Z</time>
      </trkpt>
      <trkpt lat="49.40833" lon="0.92182">
        <ele>6.451282</ele>
        <time>2021-09-14T08:01:19.252Z</time>
      </trkpt>
      <trkpt lat="49.40842" lon="0.92164">
        <ele>6.519935</ele>
        <time>2021-09-14T08:01:23.890Z</time>
      </trkpt>
      <trkpt lat="49.4085" lon="0.92155">
        <ele>6.564132</ele>
        <time>2021-09-14T08:01:26.308Z</time>
      </trkpt>
      <trkpt lat="49.40858" lon="0.9215">
        <ele>6.60044</ele>
        <time>2021-09-14T08:01:28.388Z</time>
      </trkpt>
      <trkpt lat="49.40866" lon="0.92147">
        <ele>6.637063</ele>
        <time>2021-09-14T08:01:30.480Z</time>
      </trkpt>
      <trkpt lat="49.40873" lon="0.92146">
        <ele>6.669303</ele>
        <time>2021-09-14T08:01:32.183Z</time>
      </trkpt>
      <trkpt lat="49.41078" lon="0.92154">
        <ele>7.349639</ele>
        <time>2021-09-14T08:02:18.587Z</time>
      </trkpt>
      <trkpt lat="49.41126" lon="0.92145">
        <ele>7.425137</ele>
        <time>2021-09-14T08:02:29.648Z</time>
      </trkpt>
      <trkpt lat="49.41184" lon="0.9212">
        <ele>7.495525</ele>
        <time>2021-09-14T08:02:43.688Z</time>
      </trkpt>
      <trkpt lat="49.41211" lon="0.92119">
        <ele>7.468407</ele>
        <time>2021-09-14T08:02:49.872Z</time>
      </trkpt>
      <trkpt lat="49.41258" lon="0.92126">
        <ele>7.42041</ele>
        <time>2021-09-14T08:03:00.971Z</time>
      </trkpt>
      <trkpt lat="49.41387" lon="0.92148">
        <ele>6.975955</ele>
        <time>2021-09-14T08:03:28.275Z</time>
      </trkpt>
      <trkpt lat="49.41426" lon="0.92154">
        <ele>6.579377</ele>
        <time>2021-09-14T08:03:35.520Z</time>
      </trkpt>
      <trkpt lat="49.41448" lon="0.92156">
        <ele>6.35189</ele>
        <time>2021-09-14T08:03:40.040Z</time>
      </trkpt>
      <trkpt lat="49.41456" lon="0.92155">
        <ele>6.268841</ele>
        <time>2021-09-14T08:03:41.500Z</time>
      </trkpt>
      <trkpt lat="49.41457" lon="0.92166">
        <ele>6.195353</ele>
        <time>2021-09-14T08:03:42.732Z</time>
      </trkpt>
      <trkpt lat="49.41455" lon="0.92195">
        <ele>6.000729</ele>
        <time>2021-09-14T08:03:47.060Z</time>
      </trkpt>
      <trkpt lat="49.41456" lon="0.92204">
        <ele>5.941981</ele>
        <time>2021-09-14T08:03:48.054Z</time>
      </trkpt>
      <trkpt lat="49.4146" lon="0.92209">
        <ele>5.888137</ele>
        <time>2021-09-14T08:03:49.058Z</time>
      </trkpt>
      <trkpt lat="49.41506" lon="0.92261">
        <ele>5.330734</ele>
        <time>2021-09-14T08:04:00.421Z</time>
      </trkpt>
      <trkpt lat="49.41523" lon="0.92273">
        <ele>5.16916</ele>
        <time>2021-09-14T08:04:03.771Z</time>
      </trkpt>
      <trkpt lat="49.41531" lon="0.92278">
        <ele>5.092601</ele>
        <time>2021-09-14T08:04:05.468Z</time>
      </trkpt>
      <trkpt lat="49.41661" lon="0.92356">
        <ele>3.88777</ele>
        <time>2021-09-14T08:04:34.353Z</time>
      </trkpt>
      <trkpt lat="49.41675" lon="0.92368">
        <ele>3.857463</ele>
        <time>2021-09-14T08:04:38.066Z</time>
      </trkpt>
      <trkpt lat="49.41733" lon="0.92415">
        <ele>3.737165</ele>
        <time>2021-09-14T08:04:52.965Z</time>
      </trkpt>
      <trkpt lat="49.41917" lon="0.92555">
        <ele>3.471663</ele>
        <time>2021-09-14T08:05:39.668Z</time>
      </trkpt>
      <trkpt lat="49.42023" lon="0.92625">
        <ele>3.510072</ele>
        <time>2021-09-14T08:06:06.518Z</time>
      </trkpt>
      <trkpt lat="49.42184" lon="0.92721">
        <ele>3.819725</ele>
        <time>2021-09-14T08:06:48.247Z</time>
      </trkpt>
      <trkpt lat="49.42285" lon="0.92759">
        <ele>3.947795</ele>
        <time>2021-09-14T08:07:12.860Z</time>
      </trkpt>
      <trkpt lat="49.42386" lon="0.92807">
        <ele>3.905535</ele>
        <time>2021-09-14T08:07:37.245Z</time>
      </trkpt>
      <trkpt lat="49.42407" lon="0.92819">
        <ele>3.877758</ele>
        <time>2021-09-14T08:07:42.486Z</time>
      </trkpt>
      <trkpt lat="49.42446" lon="0.92861">
        <ele>3.819117</ele>
        <time>2021-09-14T08:07:53.234Z</time>
      </trkpt>
      <trkpt lat="49.42507" lon="0.92883">
        <ele>3.699173</ele>
        <time>2021-09-14T08:08:07.039Z</time>
      </trkpt>
      <trkpt lat="49.42545" lon="0.92895">
        <ele>3.576978</ele>
        <time>2021-09-14T08:08:15.616Z</time>
      </trkpt>
      <trkpt lat="49.42618" lon="0.92917">
        <ele>3.347184</ele>
        <time>2021-09-14T08:08:31.769Z</time>
      </trkpt>
      <trkpt lat="49.4268" lon="0.92933">
        <ele>3.200521</ele>
        <time>2021-09-14T08:08:45.645Z</time>
      </trkpt>
      <trkpt lat="49.42871" lon="0.92933">
        <ele>3.187966</ele>
        <time>2021-09-14T08:09:29.777Z</time>
      </trkpt>
      <trkpt lat="49.42885" lon="0.92936">
        <ele>3.21924</ele>
        <time>2021-09-14T08:09:33.276Z</time>
      </trkpt>
      <trkpt lat="49.42911" lon="0.92944">
        <ele>3.276424</ele>
        <time>2021-09-14T08:09:39.610Z</time>
      </trkpt>
      <trkpt lat="49.42977" lon="0.92972">
        <ele>3.427716</ele>
        <time>2021-09-14T08:09:56.314Z</time>
      </trkpt>
      <trkpt lat="49.43009" lon="0.92985">
        <ele>3.500491</ele>
        <time>2021-09-14T08:10:04.557Z</time>
      </trkpt>
      <trkpt lat="49.4301" lon="0.92985">
        <ele>3.503228</ele>
        <time>2021-09-14T08:10:04.757Z</time>
      </trkpt>
      <trkpt lat="49.43032" lon="0.92985">
        <ele>3.543946</ele>
        <time>2021-09-14T08:10:10.150Z</time>
      </trkpt>
      <trkpt lat="49.43148" lon="0.92949">
        <ele>3.749598</ele>
        <time>2021-09-14T08:10:38.273Z</time>
      </trkpt>
      <trkpt lat="49.43193" lon="0.92947">
        <ele>3.828272</ele>
        <time>2021-09-14T08:10:48.783Z</time>
      </trkpt>
      <trkpt lat="49.43258" lon="0.92972">
        <ele>4.069378</ele>
        <time>2021-09-14T08:11:04.745Z</time>
      </trkpt>
      <trkpt lat="49.43382" lon="0.92999">
        <ele>4.712107</ele>
        <time>2021-09-14T08:11:35.981Z</time>
      </trkpt>
      <trkpt lat="49.43417" lon="0.9301">
        <ele>5.394187</ele>
        <time>2021-09-14T08:11:45.846Z</time>
      </trkpt>
      <trkpt lat="49.43427" lon="0.93012">
        <ele>5.580825</ele>
        <time>2021-09-14T08:11:48.406Z</time>
      </trkpt>
      <trkpt lat="49.4346" lon="0.93017">
        <ele>6.209608</ele>
        <time>2021-09-14T08:11:58.136Z</time>
      </trkpt>
      <trkpt lat="49.43498" lon="0.93022">
        <ele>6.94962</ele>
        <time>2021-09-14T08:12:10.296Z</time>
      </trkpt>
      <trkpt lat="49.43515" lon="0.9302">
        <ele>7.269773</ele>
        <time>2021-09-14T08:12:15.631Z</time>
      </trkpt>
      <trkpt lat="49.43527" lon="0.93015">
        <ele>7.512302</ele>
        <time>2021-09-14T08:12:20.369Z</time>
      </trkpt>
      <trkpt lat="49.43542" lon="0.93009">
        <ele>7.807345</ele>
        <time>2021-09-14T08:12:25.347Z</time>
      </trkpt>
      <trkpt lat="49.43547" lon="0.93002">
        <ele>7.975999</ele>
        <time>2021-09-14T08:12:27.780Z</time>
      </trkpt>
      <trkpt lat="49.43547" lon="0.92995">
        <ele>8.203195</ele>
        <time>2021-09-14T08:12:29.967Z</time>
      </trkpt>
      <trkpt lat="49.43532" lon="0.92969">
        <ele>9.392236</ele>
        <time>2021-09-14T08:12:37.892Z</time>
      </trkpt>
      <trkpt lat="49.43538" lon="0.92954">
        <ele>9.989219</ele>
        <time>2021-09-14T08:12:42.462Z</time>
      </trkpt>
      <trkpt lat="49.43692" lon="0.92985">
        <ele>18.696077</ele>
        <time>2021-09-14T08:13:51.643Z</time>
      </trkpt>
      <trkpt lat="49.43818" lon="0.92974">
        <ele>30.264795</ele>
        <time>2021-09-14T08:15:14.100Z</time>
      </trkpt>
      <trkpt lat="49.43827" lon="0.92971">
        <ele>31.147641</ele>
        <time>2021-09-14T08:15:18.440Z</time>
      </trkpt>
      <trkpt lat="49.43836" lon="0.92958">
        <ele>32.238618</ele>
        <time>2021-09-14T08:15:24.506Z</time>
      </trkpt>
      <trkpt lat="49.43837" lon="0.92951">
        <ele>32.635235</ele>
        <time>2021-09-14T08:15:29.177Z</time>
      </trkpt>
      <trkpt lat="49.43838" lon="0.92945">
        <ele>33.043276</ele>
        <time>2021-09-14T08:15:33.900Z</time>
      </trkpt>
      <trkpt lat="49.43834" lon="0.92841">
        <ele>37.395699</ele>
        <time>2021-09-14T08:16:10.259Z</time>
      </trkpt>
      <trkpt lat="49.43835" lon="0.92834">
        <ele>37.673862</ele>
        <time>2021-09-14T08:16:14.779Z</time>
      </trkpt>
      <trkpt lat="49.43844" lon="0.92831">
        <ele>38.246949</ele>
        <time>2021-09-14T08:16:17.496Z</time>
      </trkpt>
      <trkpt lat="49.43868" lon="0.92837">
        <ele>39.688369</ele>
        <time>2021-09-14T08:16:31.089Z</time>
      </trkpt>
      <trkpt lat="49.43869" lon="0.92837">
        <ele>39.79107</ele>
        <time>2021-09-14T08:16:32.763Z</time>
      </trkpt>
      <trkpt lat="49.43872" lon="0.92837">
        <ele>39.918389</ele>
        <time>2021-09-14T08:16:33.748Z</time>
      </trkpt>
      <trkpt lat="49.4388" lon="0.92836">
        <ele>40.4202</ele>
        <time>2021-09-14T08:16:35.791Z</time>
      </trkpt>
      <trkpt lat="49.43895" lon="0.92836">
        <ele>41.319722</ele>
        <time>2021-09-14T08:16:41.428Z</time>
      </trkpt>
      <trkpt lat="49.43923" lon="0.9282">
        <ele>43.14464</ele>
        <time>2021-09-14T08:16:55.892Z</time>
      </trkpt>
      <trkpt lat="49.43954" lon="0.92783">
        <ele>44.791255</ele>
        <time>2021-09-14T08:17:07.582Z</time>
      </trkpt>
      <trkpt lat="49.43965" lon="0.92772">
        <ele>44.888345</ele>
        <time>2021-09-14T08:17:11.701Z</time>
      </trkpt>
      <trkpt lat="49.43985" lon="0.92759">
        <ele>45.054502</ele>
        <time>2021-09-14T08:17:17.052Z</time>
      </trkpt>
      <trkpt lat="49.44027" lon="0.92758">
        <ele>45.374518</ele>
        <time>2021-09-14T08:17:26.959Z</time>
      </trkpt>
      <trkpt lat="49.44075" lon="0.9278">
        <ele>45.75254</ele>
        <time>2021-09-14T08:17:38.776Z</time>
      </trkpt>
      <trkpt lat="49.44166" lon="0.92816">
        <ele>46.158623</ele>
        <time>2021-09-14T08:18:00.821Z</time>
      </trkpt>
      <trkpt lat="49.44176" lon="0.92819">
        <ele>46.178905</ele>
        <time>2021-09-14T08:18:03.187Z</time>
      </trkpt>
      <trkpt lat="49.44206" lon="0.92828">
        <ele>46.24032</ele>
        <time>2021-09-14T08:18:10.426Z</time>
      </trkpt>
      <trkpt lat="49.4424" lon="0.92831">
        <ele>46.309902</ele>
        <time>2021-09-14T08:18:18.577Z</time>
      </trkpt>
      <trkpt lat="49.44334" lon="0.92788">
        <ele>46.154785</ele>
        <time>2021-09-14T08:18:40.219Z</time>
      </trkpt>
      <trkpt lat="49.44371" lon="0.92781">
        <ele>45.957008</ele>
        <time>2021-09-14T08:18:47.892Z</time>
      </trkpt>
      <trkpt lat="49.44422" lon="0.92787">
        <ele>45.688353</ele>
        <time>2021-09-14T08:18:57.988Z</time>
      </trkpt>
      <trkpt lat="49.44576" lon="0.92822">
        <ele>44.45807</ele>
        <time>2021-09-14T08:19:28.120Z</time>
      </trkpt>
      <trkpt lat="49.44669" lon="0.92832">
        <ele>43.717415</ele>
        <time>2021-09-14T08:19:46.523Z</time>
      </trkpt>
      <trkpt lat="49.44757" lon="0.9284">
        <ele>43.247112</ele>
        <time>2021-09-14T08:20:04.486Z</time>
      </trkpt>
      <trkpt lat="49.44881" lon="0.9282">
        <ele>42.721938</ele>
        <time>2021-09-14T08:20:30.695Z</time>
      </trkpt>
      <trkpt lat="49.45062" lon="0.9277">
        <ele>42.172078</ele>
        <time>2021-09-14T08:21:09.923Z</time>
      </trkpt>
      <trkpt lat="49.45214" lon="0.92744">
        <ele>41.627552</ele>
        <time>2021-09-14T08:21:42.014Z</time>
      </trkpt>
      <trkpt lat="49.45295" lon="0.92745">
        <ele>41.227145</ele>
        <time>2021-09-14T08:21:58.825Z</time>
      </trkpt>
      <trkpt lat="49.45461" lon="0.9276">
        <ele>40.052169</ele>
        <time>2021-09-14T08:22:32.236Z</time>
      </trkpt>
      <trkpt lat="49.45719" lon="0.9274">
        <ele>36.940442</ele>
        <time>2021-09-14T08:23:21.200Z</time>
      </trkpt>
      <trkpt lat="49.45881" lon="0.92691">
        <ele>32.553836</ele>
        <time>2021-09-14T08:23:48.872Z</time>
      </trkpt>
      <trkpt lat="49.46268" lon="0.92601">
        <ele>19.284978</ele>
        <time>2021-09-14T08:24:51.806Z</time>
      </trkpt>
      <trkpt lat="49.46299" lon="0.92587">
        <ele>18.475472</ele>
        <time>2021-09-14T08:24:57.037Z</time>
      </trkpt>
      <trkpt lat="49.46362" lon="0.92552">
        <ele>16.765343</ele>
        <time>2021-09-14T08:25:08.358Z</time>
      </trkpt>
      <trkpt lat="49.4641" lon="0.92536">
        <ele>15.523173</ele>
        <time>2021-09-14T08:25:16.833Z</time>
      </trkpt>
      <trkpt lat="49.46504" lon="0.92514">
        <ele>14.089776</ele>
        <time>2021-09-14T08:25:34.231Z</time>
      </trkpt>
      <trkpt lat="49.46577" lon="0.92485">
        <ele>13.084788</ele>
        <time>2021-09-14T08:25:48.851Z</time>
      </trkpt>
      <trkpt lat="49.46653" lon="0.92443">
        <ele>12.068842</ele>
        <time>2021-09-14T08:26:04.038Z</time>
      </trkpt>
      <trkpt lat="49.46692" lon="0.92411">
        <ele>11.515045</ele>
        <time>2021-09-14T08:26:12.522Z</time>
      </trkpt>
      <trkpt lat="49.46738" lon="0.92495">
        <ele>10.636917</ele>
        <time>2021-09-14T08:26:25.995Z</time>
      </trkpt>
      <trkpt lat="49.46775" lon="0.92433">
        <ele>9.952382</ele>
        <time>2021-09-14T08:26:36.097Z</time>
      </trkpt>
      <trkpt lat="49.46812" lon="0.92373">
        <ele>9.275795</ele>
        <time>2021-09-14T08:26:45.824Z</time>
      </trkpt>
      <trkpt lat="49.46852" lon="0.92326">
        <ele>8.653134</ele>
        <time>2021-09-14T08:26:55.287Z</time>
      </trkpt>
      <trkpt lat="49.46867" lon="0.92311">
        <ele>8.41991</ele>
        <time>2021-09-14T08:26:58.898Z</time>
      </trkpt>
      <trkpt lat="49.46899" lon="0.9228">
        <ele>8.234196</ele>
        <time>2021-09-14T08:27:06.484Z</time>
      </trkpt>
      <trkpt lat="49.46945" lon="0.92217">
        <ele>8.078278</ele>
        <time>2021-09-14T08:27:18.953Z</time>
      </trkpt>
      <trkpt lat="49.46976" lon="0.92125">
        <ele>7.905807</ele>
        <time>2021-09-14T08:27:33.685Z</time>
      </trkpt>
      <trkpt lat="49.46983" lon="0.92069">
        <ele>7.987078</ele>
        <time>2021-09-14T08:27:42.466Z</time>
      </trkpt>
      <trkpt lat="49.46984" lon="0.92056">
        <ele>8.070418</ele>
        <time>2021-09-14T08:27:44.514Z</time>
      </trkpt>
      <trkpt lat="49.4699" lon="0.92023">
        <ele>8.279842</ele>
        <time>2021-09-14T08:27:50.377Z</time>
      </trkpt>
      <trkpt lat="49.47022" lon="0.91891">
        <ele>9.142807</ele>
        <time>2021-09-14T08:28:15.041Z</time>
      </trkpt>
      <trkpt lat="49.47051" lon="0.91709">
        <ele>9.829259</ele>
        <time>2021-09-14T08:28:47.220Z</time>
      </trkpt>
      <trkpt lat="49.47108" lon="0.91261">
        <ele>9.72158</ele>
        <time>2021-09-14T08:29:50.994Z</time>
      </trkpt>
      <trkpt lat="49.47135" lon="0.91067">
        <ele>9.155568</ele>
        <time>2021-09-14T08:30:17.508Z</time>
      </trkpt>
      <trkpt lat="49.47135" lon="0.91067">
        <ele>9.155568</ele>
        <time>2021-09-14T08:30:17.518Z</time>
      </trkpt>
      <trkpt lat="49.47136" lon="0.91057">
        <ele>9.125867</ele>
        <time>2021-09-14T08:30:19.119Z</time>
      </trkpt>
      <trkpt lat="49.47151" lon="0.90982">
        <ele>8.882922</ele>
        <time>2021-09-14T08:30:29.685Z</time>
      </trkpt>
      <trkpt lat="49.47168" lon="0.90927">
        <ele>8.678419</ele>
        <time>2021-09-14T08:30:37.757Z</time>
      </trkpt>
      <trkpt lat="49.47308" lon="0.90593">
        <ele>7.419276</ele>
        <time>2021-09-14T08:31:30.583Z</time>
      </trkpt>
      <trkpt lat="49.47313" lon="0.90568">
        <ele>7.343658</ele>
        <time>2021-09-14T08:31:33.953Z</time>
      </trkpt>
      <trkpt lat="49.47314" lon="0.9054">
        <ele>7.259502</ele>
        <time>2021-09-14T08:31:37.888Z</time>
      </trkpt>
      <trkpt lat="49.47289" lon="0.90177">
        <ele>6.928537</ele>
        <time>2021-09-14T08:32:29.655Z</time>
      </trkpt>
      <trkpt lat="49.47286" lon="0.90163">
        <ele>6.920698</ele>
        <time>2021-09-14T08:32:31.880Z</time>
      </trkpt>
      <trkpt lat="49.4728" lon="0.90127">
        <ele>6.901371</ele>
        <time>2021-09-14T08:32:37.023Z</time>
      </trkpt>
      <trkpt lat="49.47266" lon="0.90043">
        <ele>6.855239</ele>
        <time>2021-09-14T08:32:49.549Z</time>
      </trkpt>
      <trkpt lat="49.47249" lon="0.89939">
        <ele>6.763627</ele>
        <time>2021-09-14T08:33:04.744Z</time>
      </trkpt>
      <trkpt lat="49.47248" lon="0.89934">
        <ele>6.757373</ele>
        <time>2021-09-14T08:33:05.472Z</time>
      </trkpt>
      <trkpt lat="49.47231" lon="0.89835">
        <ele>6.633964</ele>
        <time>2021-09-14T08:33:19.745Z</time>
      </trkpt>
      <trkpt lat="49.47215" lon="0.89627">
        <ele>6.457717</ele>
        <time>2021-09-14T08:33:49.043Z</time>
      </trkpt>
      <trkpt lat="49.47166" lon="0.89408">
        <ele>6.356537</ele>
        <time>2021-09-14T08:34:22.575Z</time>
      </trkpt>
      <trkpt lat="49.47162" lon="0.89391">
        <ele>6.344107</ele>
        <time>2021-09-14T08:34:25.087Z</time>
      </trkpt>
      <trkpt lat="49.47144" lon="0.8931">
        <ele>6.285198</ele>
        <time>2021-09-14T08:34:37.101Z</time>
      </trkpt>
      <trkpt lat="49.47104" lon="0.89144">
        <ele>6.02947</ele>
        <time>2021-09-14T08:35:02.661Z</time>
      </trkpt>
      <trkpt lat="49.47087" lon="0.89075">
        <ele>5.784358</ele>
        <time>2021-09-14T08:35:12.463Z</time>
      </trkpt>
      <trkpt lat="49.47069" lon="0.89019">
        <ele>5.574581</ele>
        <time>2021-09-14T08:35:20.548Z</time>
      </trkpt>
      <trkpt lat="49.47051" lon="0.88972">
        <ele>5.39416</ele>
        <time>2021-09-14T08:35:27.555Z</time>
      </trkpt>
      <trkpt lat="49.47054" lon="0.88969">
        <ele>5.376834</ele>
        <time>2021-09-14T08:35:28.225Z</time>
      </trkpt>
      <trkpt lat="49.47057" lon="0.8896">
        <ele>5.342261</ele>
        <time>2021-09-14T08:35:29.591Z</time>
      </trkpt>
      <trkpt lat="49.47057" lon="0.88954">
        <ele>5.324572</ele>
        <time>2021-09-14T08:35:30.269Z</time>
      </trkpt>
      <trkpt lat="49.47066" lon="0.88935">
        <ele>5.233965</ele>
        <time>2021-09-14T08:35:33.401Z</time>
      </trkpt>
      <trkpt lat="49.47117" lon="0.88871">
        <ele>4.780983</ele>
        <time>2021-09-14T08:35:46.691Z</time>
      </trkpt>
      <trkpt lat="49.47162" lon="0.88808">
        <ele>4.364557</ele>
        <time>2021-09-14T08:35:58.727Z</time>
      </trkpt>
      <trkpt lat="49.47254" lon="0.88662">
        <ele>3.578446</ele>
        <time>2021-09-14T08:36:25.095Z</time>
      </trkpt>
      <trkpt lat="49.47296" lon="0.88587">
        <ele>3.230092</ele>
        <time>2021-09-14T08:36:38.607Z</time>
      </trkpt>
      <trkpt lat="49.47525" lon="0.88169">
        <ele>2.392213</ele>
        <time>2021-09-14T08:37:54.826Z</time>
      </trkpt>
      <trkpt lat="49.4759" lon="0.88074">
        <ele>2.243184</ele>
        <time>2021-09-14T08:38:14.042Z</time>
      </trkpt>
      <trkpt lat="49.47634" lon="0.88014">
        <ele>2.158262</ele>
        <time>2021-09-14T08:38:26.821Z</time>
      </trkpt>
      <trkpt lat="49.47633" lon="0.88011">
        <ele>2.154924</ele>
        <time>2021-09-14T08:38:27.327Z</time>
      </trkpt>
      <trkpt lat="49.47628" lon="0.87994">
        <ele>2.137545</ele>
        <time>2021-09-14T08:38:29.949Z</time>
      </trkpt>
      <trkpt lat="49.47574" lon="0.87795">
        <ele>2.099853</ele>
        <time>2021-09-14T08:39:00.705Z</time>
      </trkpt>
      <trkpt lat="49.47553" lon="0.87708">
        <ele>2.125489</ele>
        <time>2021-09-14T08:39:14.318Z</time>
      </trkpt>
      <trkpt lat="49.47546" lon="0.87686">
        <ele>2.132207</ele>
        <time>2021-09-14T08:39:17.858Z</time>
      </trkpt>
      <trkpt lat="49.47538" lon="0.87663">
        <ele>2.14238</ele>
        <time>2021-09-14T08:39:21.916Z</time>
      </trkpt>
      <trkpt lat="49.47528" lon="0.87642">
        <ele>2.178441</ele>
        <time>2021-09-14T08:39:25.769Z</time>
      </trkpt>
      <trkpt lat="49.47515" lon="0.87619">
        <ele>2.220959</ele>
        <time>2021-09-14T08:39:30.474Z</time>
      </trkpt>
      <trkpt lat="49.4749" lon="0.87578">
        <ele>2.297019</ele>
        <time>2021-09-14T08:39:38.815Z</time>
      </trkpt>
      <trkpt lat="49.47463" lon="0.87539">
        <ele>2.377452</ele>
        <time>2021-09-14T08:39:47.631Z</time>
      </trkpt>
      <trkpt lat="49.47421" lon="0.87481">
        <ele>2.496313</ele>
        <time>2021-09-14T08:40:00.594Z</time>
      </trkpt>
      <trkpt lat="49.47351" lon="0.87355">
        <ele>2.480656</ele>
        <time>2021-09-14T08:40:25.156Z</time>
      </trkpt>
      <trkpt lat="49.47333" lon="0.87327">
        <ele>2.469724</ele>
        <time>2021-09-14T08:40:30.589Z</time>
      </trkpt>
      <trkpt lat="49.47318" lon="0.87305">
        <ele>2.460699</ele>
        <time>2021-09-14T08:40:34.938Z</time>
      </trkpt>
      <trkpt lat="49.47248" lon="0.87207">
        <ele>2.422591</ele>
        <time>2021-09-14T08:40:55.301Z</time>
      </trkpt>
      <trkpt lat="49.47236" lon="0.8719">
        <ele>2.41649</ele>
        <time>2021-09-14T08:40:58.578Z</time>
      </trkpt>
      <trkpt lat="49.47226" lon="0.87179">
        <ele>2.411873</ele>
        <time>2021-09-14T08:41:01.293Z</time>
      </trkpt>
      <trkpt lat="49.47207" lon="0.87159">
        <ele>2.40273</ele>
        <time>2021-09-14T08:41:06.379Z</time>
      </trkpt>
      <trkpt lat="49.47183" lon="0.87138">
        <ele>2.392182</ele>
        <time>2021-09-14T08:41:12.706Z</time>
      </trkpt>
      <trkpt lat="49.47084" lon="0.87056">
        <ele>2.582826</ele>
        <time>2021-09-14T08:41:38.367Z</time>
      </trkpt>
      <trkpt lat="49.47051" lon="0.87028">
        <ele>2.699154</ele>
        <time>2021-09-14T08:41:47.515Z</time>
      </trkpt>
      <trkpt lat="49.47042" lon="0.87022">
        <ele>2.728235</ele>
        <time>2021-09-14T08:41:49.721Z</time>
      </trkpt>
      <trkpt lat="49.4702" lon="0.87011">
        <ele>2.798425</ele>
        <time>2021-09-14T08:41:55.256Z</time>
      </trkpt>
      <trkpt lat="49.46984" lon="0.86999">
        <ele>2.908888</ele>
        <time>2021-09-14T08:42:03.972Z</time>
      </trkpt>
      <trkpt lat="49.46941" lon="0.86985">
        <ele>3.118703</ele>
        <time>2021-09-14T08:42:14.865Z</time>
      </trkpt>
      <trkpt lat="49.46911" lon="0.86975">
        <ele>3.265464</ele>
        <time>2021-09-14T08:42:22.321Z</time>
      </trkpt>
      <trkpt lat="49.469" lon="0.8697">
        <ele>3.321031</ele>
        <time>2021-09-14T08:42:24.913Z</time>
      </trkpt>
      <trkpt lat="49.46889" lon="0.86963">
        <ele>3.380193</ele>
        <time>2021-09-14T08:42:27.916Z</time>
      </trkpt>
      <trkpt lat="49.46851" lon="0.86937">
        <ele>3.584962</ele>
        <time>2021-09-14T08:42:38.054Z</time>
      </trkpt>
      <trkpt lat="49.4683" lon="0.86926">
        <ele>3.694828</ele>
        <time>2021-09-14T08:42:43.324Z</time>
      </trkpt>
      <trkpt lat="49.4682" lon="0.86922">
        <ele>3.743117</ele>
        <time>2021-09-14T08:42:45.880Z</time>
      </trkpt>
      <trkpt lat="49.46739" lon="0.869">
        <ele>3.84474</ele>
        <time>2021-09-14T08:43:05.437Z</time>
      </trkpt>
      <trkpt lat="49.46708" lon="0.86884">
        <ele>3.86562</ele>
        <time>2021-09-14T08:43:12.902Z</time>
      </trkpt>
      <trkpt lat="49.46631" lon="0.8681">
        <ele>3.865759</ele>
        <time>2021-09-14T08:43:32.367Z</time>
      </trkpt>
      <trkpt lat="49.4662" lon="0.86799">
        <ele>3.822501</ele>
        <time>2021-09-14T08:43:35.011Z</time>
      </trkpt>
      <trkpt lat="49.46553" lon="0.86721">
        <ele>3.54549</ele>
        <time>2021-09-14T08:43:52.370Z</time>
      </trkpt>
      <trkpt lat="49.46527" lon="0.86691">
        <ele>3.438668</ele>
        <time>2021-09-14T08:43:59.086Z</time>
      </trkpt>
      <trkpt lat="49.46505" lon="0.86668">
        <ele>3.348983</ele>
        <time>2021-09-14T08:44:04.781Z</time>
      </trkpt>
      <trkpt lat="49.46475" lon="0.86643">
        <ele>3.315719</ele>
        <time>2021-09-14T08:44:12.109Z</time>
      </trkpt>
      <trkpt lat="49.46461" lon="0.86633">
        <ele>3.313691</ele>
        <time>2021-09-14T08:44:15.537Z</time>
      </trkpt>
      <trkpt lat="49.46421" lon="0.86601">
        <ele>3.307898</ele>
        <time>2021-09-14T08:44:25.471Z</time>
      </trkpt>
      <trkpt lat="49.46315" lon="0.86517">
        <ele>3.310077</ele>
        <time>2021-09-14T08:44:52.526Z</time>
      </trkpt>
      <trkpt lat="49.46284" lon="0.86491">
        <ele>3.330462</ele>
        <time>2021-09-14T08:45:00.509Z</time>
      </trkpt>
      <trkpt lat="49.46256" lon="0.86464">
        <ele>3.349724</ele>
        <time>2021-09-14T08:45:08.034Z</time>
      </trkpt>
      <trkpt lat="49.46211" lon="0.86411">
        <ele>3.38251</ele>
        <time>2021-09-14T08:45:20.757Z</time>
      </trkpt>
      <trkpt lat="49.4619" lon="0.86394">
        <ele>3.396669</ele>
        <time>2021-09-14T08:45:26.222Z</time>
      </trkpt>
      <trkpt lat="49.46075" lon="0.86366">
        <ele>3.361326</ele>
        <time>2021-09-14T08:45:51.883Z</time>
      </trkpt>
      <trkpt lat="49.4604" lon="0.86349">
        <ele>3.348511</ele>
        <time>2021-09-14T08:45:59.995Z</time>
      </trkpt>
      <trkpt lat="49.45928" lon="0.8624">
        <ele>3.200578</ele>
        <time>2021-09-14T08:46:28.996Z</time>
      </trkpt>
      <trkpt lat="49.45913" lon="0.86229">
        <ele>3.178906</ele>
        <time>2021-09-14T08:46:32.494Z</time>
      </trkpt>
      <trkpt lat="49.45908" lon="0.86225">
        <ele>3.170935</ele>
        <time>2021-09-14T08:46:33.743Z</time>
      </trkpt>
      <trkpt lat="49.45898" lon="0.86221">
        <ele>3.157091</ele>
        <time>2021-09-14T08:46:35.876Z</time>
      </trkpt>
      <trkpt lat="49.45867" lon="0.86214">
        <ele>3.114072</ele>
        <time>2021-09-14T08:46:42.691Z</time>
      </trkpt>
      <trkpt lat="49.45793" lon="0.86217">
        <ele>2.980699</ele>
        <time>2021-09-14T08:46:58.549Z</time>
      </trkpt>
      <trkpt lat="49.45777" lon="0.86217">
        <ele>2.948763</ele>
        <time>2021-09-14T08:47:02.096Z</time>
      </trkpt>
      <trkpt lat="49.45744" lon="0.86215">
        <ele>2.885457</ele>
        <time>2021-09-14T08:47:09.066Z</time>
      </trkpt>
      <trkpt lat="49.45666" lon="0.8621">
        <ele>2.740187</ele>
        <time>2021-09-14T08:47:25.869Z</time>
      </trkpt>
      <trkpt lat="49.45568" lon="0.86189">
        <ele>2.662137</ele>
        <time>2021-09-14T08:47:47.473Z</time>
      </trkpt>
      <trkpt lat="49.45504" lon="0.86187">
        <ele>2.611704</ele>
        <time>2021-09-14T08:48:01.470Z</time>
      </trkpt>
      <trkpt lat="49.45462" lon="0.86191">
        <ele>2.666049</ele>
        <time>2021-09-14T08:48:10.908Z</time>
      </trkpt>
      <trkpt lat="49.45415" lon="0.86209">
        <ele>2.765638</ele>
        <time>2021-09-14T08:48:21.734Z</time>
      </trkpt>
      <trkpt lat="49.45344" lon="0.86237">
        <ele>2.919226</ele>
        <time>2021-09-14T08:48:39.046Z</time>
      </trkpt>
      <trkpt lat="49.45223" lon="0.86301">
        <ele>3.197676</ele>
        <time>2021-09-14T08:49:09.153Z</time>
      </trkpt>
      <trkpt lat="49.45186" lon="0.86322">
        <ele>3.284483</ele>
        <time>2021-09-14T08:49:18.292Z</time>
      </trkpt>
      <trkpt lat="49.45115" lon="0.86375">
        <ele>3.375309</ele>
        <time>2021-09-14T08:49:36.099Z</time>
      </trkpt>
      <trkpt lat="49.45029" lon="0.86417">
        <ele>3.376793</ele>
        <time>2021-09-14T08:49:55.802Z</time>
      </trkpt>
      <trkpt lat="49.45011" lon="0.86428">
        <ele>3.377125</ele>
        <time>2021-09-14T08:50:00.339Z</time>
      </trkpt>
      <trkpt lat="49.44994" lon="0.86439">
        <ele>3.377416</ele>
        <time>2021-09-14T08:50:04.270Z</time>
      </trkpt>
      <trkpt lat="49.44972" lon="0.86459">
        <ele>3.384626</ele>
        <time>2021-09-14T08:50:10.182Z</time>
      </trkpt>
      <trkpt lat="49.44929" lon="0.86498">
        <ele>3.413888</ele>
        <time>2021-09-14T08:50:21.300Z</time>
      </trkpt>
      <trkpt lat="49.44917" lon="0.86506">
        <ele>3.421313</ele>
        <time>2021-09-14T08:50:24.223Z</time>
      </trkpt>
      <trkpt lat="49.44905" lon="0.86513">
        <ele>3.428685</ele>
        <time>2021-09-14T08:50:27.077Z</time>
      </trkpt>
      <trkpt lat="49.44845" lon="0.86538">
        <ele>3.464961</ele>
        <time>2021-09-14T08:50:41.167Z</time>
      </trkpt>
      <trkpt lat="49.44842" lon="0.86542">
        <ele>3.467261</ele>
        <time>2021-09-14T08:50:42.183Z</time>
      </trkpt>
      <trkpt lat="49.44839" lon="0.8655">
        <ele>3.470596</ele>
        <time>2021-09-14T08:50:43.386Z</time>
      </trkpt>
      <trkpt lat="49.44825" lon="0.86676">
        <ele>3.381444</ele>
        <time>2021-09-14T08:51:02.017Z</time>
      </trkpt>
      <trkpt lat="49.44822" lon="0.86682">
        <ele>3.373599</ele>
        <time>2021-09-14T08:51:02.951Z</time>
      </trkpt>
      <trkpt lat="49.44817" lon="0.86684">
        <ele>3.365265</ele>
        <time>2021-09-14T08:51:04.263Z</time>
      </trkpt>
      <trkpt lat="49.44771" lon="0.86674">
        <ele>3.290462</ele>
        <time>2021-09-14T08:51:14.248Z</time>
      </trkpt>
      <trkpt lat="49.44733" lon="0.86657">
        <ele>3.227579</ele>
        <time>2021-09-14T08:51:22.432Z</time>
      </trkpt>
      <trkpt lat="49.44706" lon="0.8664">
        <ele>3.166908</ele>
        <time>2021-09-14T08:51:28.864Z</time>
      </trkpt>
      <trkpt lat="49.44685" lon="0.86629">
        <ele>3.099592</ele>
        <time>2021-09-14T08:51:33.283Z</time>
      </trkpt>
      <trkpt lat="49.44646" lon="0.86603">
        <ele>2.965437</ele>
        <time>2021-09-14T08:51:42.617Z</time>
      </trkpt>
      <trkpt lat="49.44634" lon="0.86596">
        <ele>2.925884</ele>
        <time>2021-09-14T08:51:45.154Z</time>
      </trkpt>
      <trkpt lat="49.4461" lon="0.86589">
        <ele>2.850323</ele>
        <time>2021-09-14T08:51:50.360Z</time>
      </trkpt>
      <trkpt lat="49.44588" lon="0.86585">
        <ele>2.778811</ele>
        <time>2021-09-14T08:51:55.013Z</time>
      </trkpt>
      <trkpt lat="49.44572" lon="0.86581">
        <ele>2.73045</ele>
        <time>2021-09-14T08:51:58.380Z</time>
      </trkpt>
      <trkpt lat="49.44468" lon="0.86555">
        <ele>2.600732</ele>
        <time>2021-09-14T08:52:20.702Z</time>
      </trkpt>
      <trkpt lat="49.44394" lon="0.86537">
        <ele>2.568186</ele>
        <time>2021-09-14T08:52:37.663Z</time>
      </trkpt>
      <trkpt lat="49.44354" lon="0.8653">
        <ele>2.579167</ele>
        <time>2021-09-14T08:52:46.851Z</time>
      </trkpt>
      <trkpt lat="49.44346" lon="0.8653">
        <ele>2.597648</ele>
        <time>2021-09-14T08:52:48.641Z</time>
      </trkpt>
      <trkpt lat="49.44337" lon="0.8653">
        <ele>2.619448</ele>
        <time>2021-09-14T08:52:50.904Z</time>
      </trkpt>
      <trkpt lat="49.44266" lon="0.86529">
        <ele>2.787672</ele>
        <time>2021-09-14T08:53:07.554Z</time>
      </trkpt>
      <trkpt lat="49.44142" lon="0.86502">
        <ele>2.985761</ele>
        <time>2021-09-14T08:53:36.656Z</time>
      </trkpt>
      <trkpt lat="49.44133" lon="0.865">
        <ele>2.986683</ele>
        <time>2021-09-14T08:53:38.653Z</time>
      </trkpt>
      <trkpt lat="49.44098" lon="0.86496">
        <ele>2.990246</ele>
        <time>2021-09-14T08:53:46.451Z</time>
      </trkpt>
      <trkpt lat="49.44003" lon="0.86498">
        <ele>2.99812</ele>
        <time>2021-09-14T08:54:07.287Z</time>
      </trkpt>
      <trkpt lat="49.43986" lon="0.86502">
        <ele>2.988748</ele>
        <time>2021-09-14T08:54:10.816Z</time>
      </trkpt>
      <trkpt lat="49.43967" lon="0.86506">
        <ele>2.978438</ele>
        <time>2021-09-14T08:54:15.104Z</time>
      </trkpt>
      <trkpt lat="49.43956" lon="0.86508">
        <ele>2.972708</ele>
        <time>2021-09-14T08:54:17.224Z</time>
      </trkpt>
      <trkpt lat="49.43895" lon="0.86524">
        <ele>2.9387</ele>
        <time>2021-09-14T08:54:31.164Z</time>
      </trkpt>
      <trkpt lat="49.43888" lon="0.86525">
        <ele>2.934693</ele>
        <time>2021-09-14T08:54:32.601Z</time>
      </trkpt>
      <trkpt lat="49.43855" lon="0.8653">
        <ele>2.916869</ele>
        <time>2021-09-14T08:54:39.841Z</time>
      </trkpt>
      <trkpt lat="49.43834" lon="0.86533">
        <ele>2.90498</ele>
        <time>2021-09-14T08:54:44.753Z</time>
      </trkpt>
      <trkpt lat="49.43793" lon="0.86539">
        <ele>2.941353</ele>
        <time>2021-09-14T08:54:53.762Z</time>
      </trkpt>
      <trkpt lat="49.43752" lon="0.86544">
        <ele>2.989125</ele>
        <time>2021-09-14T08:55:03.115Z</time>
      </trkpt>
      <trkpt lat="49.43713" lon="0.86557">
        <ele>3.036614</ele>
        <time>2021-09-14T08:55:12.546Z</time>
      </trkpt>
      <trkpt lat="49.43711" lon="0.86559">
        <ele>3.038796</ele>
        <time>2021-09-14T08:55:12.942Z</time>
      </trkpt>
      <trkpt lat="49.437" lon="0.86566">
        <ele>3.052526</ele>
        <time>2021-09-14T08:55:15.824Z</time>
      </trkpt>
      <trkpt lat="49.43628" lon="0.86634">
        <ele>3.081856</ele>
        <time>2021-09-14T08:55:34.888Z</time>
      </trkpt>
      <trkpt lat="49.43587" lon="0.86649">
        <ele>3.045829</ele>
        <time>2021-09-14T08:55:43.923Z</time>
      </trkpt>
      <trkpt lat="49.43583" lon="0.86651">
        <ele>3.041789</ele>
        <time>2021-09-14T08:55:44.889Z</time>
      </trkpt>
      <trkpt lat="49.43545" lon="0.86663">
        <ele>3.008725</ele>
        <time>2021-09-14T08:55:53.314Z</time>
      </trkpt>
      <trkpt lat="49.43541" lon="0.86665">
        <ele>3.005644</ele>
        <time>2021-09-14T08:55:54.084Z</time>
      </trkpt>
      <trkpt lat="49.43526" lon="0.86669">
        <ele>2.992175</ele>
        <time>2021-09-14T08:55:57.531Z</time>
      </trkpt>
      <trkpt lat="49.4351" lon="0.86674">
        <ele>2.978369</ele>
        <time>2021-09-14T08:56:01.067Z</time>
      </trkpt>
      <trkpt lat="49.43459" lon="0.86686">
        <ele>2.993511</ele>
        <time>2021-09-14T08:56:12.440Z</time>
      </trkpt>
      <trkpt lat="49.43382" lon="0.86703">
        <ele>3.099026</ele>
        <time>2021-09-14T08:56:29.519Z</time>
      </trkpt>
      <trkpt lat="49.43369" lon="0.86708">
        <ele>3.117151</ele>
        <time>2021-09-14T08:56:32.670Z</time>
      </trkpt>
      <trkpt lat="49.4335" lon="0.86715">
        <ele>3.144672</ele>
        <time>2021-09-14T08:56:37.305Z</time>
      </trkpt>
      <trkpt lat="49.43266" lon="0.86747">
        <ele>3.299015</ele>
        <time>2021-09-14T08:56:58.149Z</time>
      </trkpt>
      <trkpt lat="49.43231" lon="0.86757">
        <ele>3.377259</ele>
        <time>2021-09-14T08:57:06.576Z</time>
      </trkpt>
      <trkpt lat="49.43229" lon="0.86758">
        <ele>3.381274</ele>
        <time>2021-09-14T08:57:07.025Z</time>
      </trkpt>
      <trkpt lat="49.43174" lon="0.86776">
        <ele>3.505314</ele>
        <time>2021-09-14T08:57:19.807Z</time>
      </trkpt>
      <trkpt lat="49.43166" lon="0.8678">
        <ele>3.523501</ele>
        <time>2021-09-14T08:57:21.773Z</time>
      </trkpt>
      <trkpt lat="49.43159" lon="0.86784">
        <ele>3.539176</ele>
        <time>2021-09-14T08:57:23.323Z</time>
      </trkpt>
      <trkpt lat="49.43121" lon="0.86802">
        <ele>3.584801</ele>
        <time>2021-09-14T08:57:32.281Z</time>
      </trkpt>
      <trkpt lat="49.43092" lon="0.86807">
        <ele>3.558332</ele>
        <time>2021-09-14T08:57:38.852Z</time>
      </trkpt>
      <trkpt lat="49.43084" lon="0.86807">
        <ele>3.550494</ele>
        <time>2021-09-14T08:57:40.670Z</time>
      </trkpt>
      <trkpt lat="49.43065" lon="0.86807">
        <ele>3.532994</ele>
        <time>2021-09-14T08:57:44.897Z</time>
      </trkpt>
      <trkpt lat="49.4301" lon="0.86811">
        <ele>3.482698</ele>
        <time>2021-09-14T08:57:56.637Z</time>
      </trkpt>
      <trkpt lat="49.42935" lon="0.86837">
        <ele>3.409583</ele>
        <time>2021-09-14T08:58:13.181Z</time>
      </trkpt>
      <trkpt lat="49.42845" lon="0.86855">
        <ele>3.311932</ele>
        <time>2021-09-14T08:58:32.997Z</time>
      </trkpt>
      <trkpt lat="49.42831" lon="0.86858">
        <ele>3.295938</ele>
        <time>2021-09-14T08:58:36.245Z</time>
      </trkpt>
      <trkpt lat="49.42811" lon="0.86861">
        <ele>3.274807</ele>
        <time>2021-09-14T08:58:40.517Z</time>
      </trkpt>
      <trkpt lat="49.42775" lon="0.86874">
        <ele>3.237021</ele>
        <time>2021-09-14T08:58:48.653Z</time>
      </trkpt>
      <trkpt lat="49.42761" lon="0.86881">
        <ele>3.229436</ele>
        <time>2021-09-14T08:58:51.746Z</time>
      </trkpt>
      <trkpt lat="49.42744" lon="0.86893">
        <ele>3.219426</ele>
        <time>2021-09-14T08:58:55.821Z</time>
      </trkpt>
      <trkpt lat="49.42586" lon="0.87023">
        <ele>3.19461</ele>
        <time>2021-09-14T08:59:35.375Z</time>
      </trkpt>
      <trkpt lat="49.42553" lon="0.87057">
        <ele>3.249877</ele>
        <time>2021-09-14T08:59:44.492Z</time>
      </trkpt>
      <trkpt lat="49.42545" lon="0.87069">
        <ele>3.26643</ele>
        <time>2021-09-14T08:59:47.223Z</time>
      </trkpt>
      <trkpt lat="49.42542" lon="0.87073">
        <ele>3.27104</ele>
        <time>2021-09-14T08:59:48.035Z</time>
      </trkpt>
      <trkpt lat="49.42498" lon="0.87135">
        <ele>3.354818</ele>
        <time>2021-09-14T09:00:02.225Z</time>
      </trkpt>
      <trkpt lat="49.42387" lon="0.87246">
        <ele>3.263479</ele>
        <time>2021-09-14T09:00:31.795Z</time>
      </trkpt>
      <trkpt lat="49.42383" lon="0.87249">
        <ele>3.257921</ele>
        <time>2021-09-14T09:00:32.932Z</time>
      </trkpt>
      <trkpt lat="49.42372" lon="0.87259">
        <ele>3.241696</ele>
        <time>2021-09-14T09:00:35.649Z</time>
      </trkpt>
      <trkpt lat="49.42342" lon="0.87275">
        <ele>3.201709</ele>
        <time>2021-09-14T09:00:42.327Z</time>
      </trkpt>
      <trkpt lat="49.42328" lon="0.87281">
        <ele>3.184186</ele>
        <time>2021-09-14T09:00:45.168Z</time>
      </trkpt>
      <trkpt lat="49.42311" lon="0.87288">
        <ele>3.151176</ele>
        <time>2021-09-14T09:00:48.891Z</time>
      </trkpt>
      <trkpt lat="49.42277" lon="0.87288">
        <ele>3.04103</ele>
        <time>2021-09-14T09:00:55.762Z</time>
      </trkpt>
      <trkpt lat="49.42214" lon="0.87263">
        <ele>2.830626</ele>
        <time>2021-09-14T09:01:08.975Z</time>
      </trkpt>
      <trkpt lat="49.422" lon="0.87259">
        <ele>2.784281</ele>
        <time>2021-09-14T09:01:11.926Z</time>
      </trkpt>
      <trkpt lat="49.42149" lon="0.87245">
        <ele>2.614466</ele>
        <time>2021-09-14T09:01:23.158Z</time>
      </trkpt>
      <trkpt lat="49.42117" lon="0.87238">
        <ele>2.680974</ele>
        <time>2021-09-14T09:01:30.525Z</time>
      </trkpt>
      <trkpt lat="49.42086" lon="0.87233">
        <ele>2.809283</ele>
        <time>2021-09-14T09:01:37.711Z</time>
      </trkpt>
      <trkpt lat="49.41936" lon="0.87219">
        <ele>3.416369</ele>
        <time>2021-09-14T09:02:15.017Z</time>
      </trkpt>
      <trkpt lat="49.41872" lon="0.87227">
        <ele>3.624004</ele>
        <time>2021-09-14T09:02:30.596Z</time>
      </trkpt>
      <trkpt lat="49.41737" lon="0.8726">
        <ele>3.893121</ele>
        <time>2021-09-14T09:03:01.707Z</time>
      </trkpt>
      <trkpt lat="49.41625" lon="0.87273">
        <ele>3.838661</ele>
        <time>2021-09-14T09:03:25.911Z</time>
      </trkpt>
      <trkpt lat="49.4157" lon="0.87279">
        <ele>3.818488</ele>
        <time>2021-09-14T09:03:37.922Z</time>
      </trkpt>
      <trkpt lat="49.4156" lon="0.8728">
        <ele>3.815481</ele>
        <time>2021-09-14T09:03:40.174Z</time>
      </trkpt>
      <trkpt lat="49.41442" lon="0.87292">
        <ele>3.781171</ele>
        <time>2021-09-14T09:04:06.913Z</time>
      </trkpt>
      <trkpt lat="49.41406" lon="0.87296">
        <ele>3.673034</ele>
        <time>2021-09-14T09:04:14.608Z</time>
      </trkpt>
      <trkpt lat="49.41394" lon="0.87294">
        <ele>3.599695</ele>
        <time>2021-09-14T09:04:17.255Z</time>
      </trkpt>
      <trkpt lat="49.41394" lon="0.87289">
        <ele>3.583056</ele>
        <time>2021-09-14T09:04:17.833Z</time>
      </trkpt>
      <trkpt lat="49.41392" lon="0.87282">
        <ele>3.550337</ele>
        <time>2021-09-14T09:04:18.957Z</time>
      </trkpt>
      <trkpt lat="49.4139" lon="0.87279">
        <ele>3.533758</ele>
        <time>2021-09-14T09:04:19.542Z</time>
      </trkpt>
      <trkpt lat="49.41388" lon="0.87277">
        <ele>3.517379</ele>
        <time>2021-09-14T09:04:20.138Z</time>
      </trkpt>
      <trkpt lat="49.41385" lon="0.87276">
        <ele>3.50055</ele>
        <time>2021-09-14T09:04:20.713Z</time>
      </trkpt>
      <trkpt lat="49.41382" lon="0.87277">
        <ele>3.48372</ele>
        <time>2021-09-14T09:04:21.305Z</time>
      </trkpt>
      <trkpt lat="49.41365" lon="0.87167">
        <ele>3.049724</ele>
        <time>2021-09-14T09:04:36.076Z</time>
      </trkpt>
      <trkpt lat="49.41361" lon="0.87143">
        <ele>2.951034</ele>
        <time>2021-09-14T09:04:39.354Z</time>
      </trkpt>
      <trkpt lat="49.41346" lon="0.87057">
        <ele>2.608867</ele>
        <time>2021-09-14T09:04:47.407Z</time>
      </trkpt>
      <trkpt lat="49.41329" lon="0.86794">
        <ele>1.698255</ele>
        <time>2021-09-14T09:05:11.311Z</time>
      </trkpt>
      <trkpt lat="49.41335" lon="0.86722">
        <ele>1.904319</ele>
        <time>2021-09-14T09:05:17.877Z</time>
      </trkpt>
      <trkpt lat="49.4133" lon="0.86674">
        <ele>2.042267</ele>
        <time>2021-09-14T09:05:25.603Z</time>
      </trkpt>
      <trkpt lat="49.4133" lon="0.86663">
        <ele>2.072135</ele>
        <time>2021-09-14T09:05:27.287Z</time>
      </trkpt>
      <trkpt lat="49.41332" lon="0.86644">
        <ele>2.126921</ele>
        <time>2021-09-14T09:05:30.351Z</time>
      </trkpt>
      <trkpt lat="49.41327" lon="0.86637">
        <ele>2.156084</ele>
        <time>2021-09-14T09:05:31.998Z</time>
      </trkpt>
      <trkpt lat="49.41323" lon="0.8663">
        <ele>2.183149</ele>
        <time>2021-09-14T09:05:33.532Z</time>
      </trkpt>
      <trkpt lat="49.41321" lon="0.86626">
        <ele>2.197103</ele>
        <time>2021-09-14T09:05:34.430Z</time>
      </trkpt>
      <trkpt lat="49.41278" lon="0.86498">
        <ele>2.597439</ele>
        <time>2021-09-14T09:05:58.418Z</time>
      </trkpt>
      <trkpt lat="49.41216" lon="0.86257">
        <ele>3.17468</ele>
        <time>2021-09-14T09:06:37.795Z</time>
      </trkpt>
      <trkpt lat="49.41212" lon="0.86234">
        <ele>3.170205</ele>
        <time>2021-09-14T09:06:41.287Z</time>
      </trkpt>
      <trkpt lat="49.41208" lon="0.86235">
        <ele>3.169089</ele>
        <time>2021-09-14T09:06:42.042Z</time>
      </trkpt>
      <trkpt lat="49.41128" lon="0.86256">
        <ele>3.145536</ele>
        <time>2021-09-14T09:06:59.906Z</time>
      </trkpt>
      <trkpt lat="49.41097" lon="0.86266">
        <ele>3.136347</ele>
        <time>2021-09-14T09:07:06.792Z</time>
      </trkpt>
      <trkpt lat="49.41055" lon="0.86278">
        <ele>3.092102</ele>
        <time>2021-09-14T09:07:16.110Z</time>
      </trkpt>
      <trkpt lat="49.41002" lon="0.86292">
        <ele>2.997957</ele>
        <time>2021-09-14T09:07:27.667Z</time>
      </trkpt>
      <trkpt lat="49.40965" lon="0.863">
        <ele>2.932943</ele>
        <time>2021-09-14T09:07:35.633Z</time>
      </trkpt>
      <trkpt lat="49.40812" lon="0.8634">
        <ele>2.782956</ele>
        <time>2021-09-14T09:08:09.142Z</time>
      </trkpt>
      <trkpt lat="49.40763" lon="0.86352">
        <ele>2.764603</ele>
        <time>2021-09-14T09:08:20.281Z</time>
      </trkpt>
      <trkpt lat="49.40726" lon="0.86359">
        <ele>2.750808</ele>
        <time>2021-09-14T09:08:28.862Z</time>
      </trkpt>
      <trkpt lat="49.40674" lon="0.86369">
        <ele>2.843985</ele>
        <time>2021-09-14T09:08:40.821Z</time>
      </trkpt>
      <trkpt lat="49.40627" lon="0.86379">
        <ele>2.940668</ele>
        <time>2021-09-14T09:08:51.772Z</time>
      </trkpt>
      <trkpt lat="49.40609" lon="0.86384">
        <ele>2.977727</ele>
        <time>2021-09-14T09:08:56.020Z</time>
      </trkpt>
      <trkpt lat="49.40573" lon="0.86388">
        <ele>3.051247</ele>
        <time>2021-09-14T09:09:04.426Z</time>
      </trkpt>
      <trkpt lat="49.40518" lon="0.86382">
        <ele>3.15469</ele>
        <time>2021-09-14T09:09:17.317Z</time>
      </trkpt>
      <trkpt lat="49.4051" lon="0.86382">
        <ele>3.167068</ele>
        <time>2021-09-14T09:09:19.090Z</time>
      </trkpt>
      <trkpt lat="49.40498" lon="0.86384">
        <ele>3.186895</ele>
        <time>2021-09-14T09:09:21.791Z</time>
      </trkpt>
      <trkpt lat="49.40471" lon="0.86387">
        <ele>3.23298</ele>
        <time>2021-09-14T09:09:28.153Z</time>
      </trkpt>
      <trkpt lat="49.40453" lon="0.86387">
        <ele>3.262915</ele>
        <time>2021-09-14T09:09:32.202Z</time>
      </trkpt>
      <trkpt lat="49.40385" lon="0.86374">
        <ele>3.377443</ele>
        <time>2021-09-14T09:09:47.647Z</time>
      </trkpt>
      <trkpt lat="49.40284" lon="0.86323">
        <ele>3.454109</ele>
        <time>2021-09-14T09:10:11.588Z</time>
      </trkpt>
      <trkpt lat="49.40238" lon="0.86291">
        <ele>3.478245</ele>
        <time>2021-09-14T09:10:22.923Z</time>
      </trkpt>
      <trkpt lat="49.40129" lon="0.86187">
        <ele>3.468259</ele>
        <time>2021-09-14T09:10:51.619Z</time>
      </trkpt>
      <trkpt lat="49.40101" lon="0.86156">
        <ele>3.455383</ele>
        <time>2021-09-14T09:10:59.030Z</time>
      </trkpt>
      <trkpt lat="49.40095" lon="0.8615">
        <ele>3.452599</ele>
        <time>2021-09-14T09:11:00.656Z</time>
      </trkpt>
      <trkpt lat="49.40087" lon="0.86141">
        <ele>3.448869</ele>
        <time>2021-09-14T09:11:02.879Z</time>
      </trkpt>
      <trkpt lat="49.40068" lon="0.8612">
        <ele>3.439783</ele>
        <time>2021-09-14T09:11:08.108Z</time>
      </trkpt>
      <trkpt lat="49.40041" lon="0.86086">
        <ele>3.430775</ele>
        <time>2021-09-14T09:11:15.766Z</time>
      </trkpt>
      <trkpt lat="49.40021" lon="0.86057">
        <ele>3.42869</ele>
        <time>2021-09-14T09:11:21.885Z</time>
      </trkpt>
      <trkpt lat="49.40002" lon="0.86029">
        <ele>3.426698</ele>
        <time>2021-09-14T09:11:27.809Z</time>
      </trkpt>
      <trkpt lat="49.39988" lon="0.86007">
        <ele>3.425206</ele>
        <time>2021-09-14T09:11:32.167Z</time>
      </trkpt>
      <trkpt lat="49.39981" lon="0.85992">
        <ele>3.424266</ele>
        <time>2021-09-14T09:11:35.025Z</time>
      </trkpt>
      <trkpt lat="49.39963" lon="0.85942">
        <ele>3.421509</ele>
        <time>2021-09-14T09:11:43.159Z</time>
      </trkpt>
      <trkpt lat="49.39944" lon="0.85861">
        <ele>3.410065</ele>
        <time>2021-09-14T09:11:55.456Z</time>
      </trkpt>
      <trkpt lat="49.39907" lon="0.85754">
        <ele>3.359743</ele>
        <time>2021-09-14T09:12:12.665Z</time>
      </trkpt>
      <trkpt lat="49.39885" lon="0.85681">
        <ele>3.326361</ele>
        <time>2021-09-14T09:12:24.193Z</time>
      </trkpt>
      <trkpt lat="49.39875" lon="0.85647">
        <ele>3.310818</ele>
        <time>2021-09-14T09:12:29.606Z</time>
      </trkpt>
      <trkpt lat="49.39864" lon="0.85615">
        <ele>3.319576</ele>
        <time>2021-09-14T09:12:34.972Z</time>
      </trkpt>
      <trkpt lat="49.39834" lon="0.85538">
        <ele>3.399592</ele>
        <time>2021-09-14T09:12:48.086Z</time>
      </trkpt>
      <trkpt lat="49.39817" lon="0.85494">
        <ele>3.44545</ele>
        <time>2021-09-14T09:12:55.755Z</time>
      </trkpt>
      <trkpt lat="49.39744" lon="0.85363">
        <ele>3.58896</ele>
        <time>2021-09-14T09:13:21.599Z</time>
      </trkpt>
      <trkpt lat="49.3974" lon="0.85358">
        <ele>3.594795</ele>
        <time>2021-09-14T09:13:22.886Z</time>
      </trkpt>
      <trkpt lat="49.39734" lon="0.85349">
        <ele>3.604509</ele>
        <time>2021-09-14T09:13:24.874Z</time>
      </trkpt>
      <trkpt lat="49.39721" lon="0.85335">
        <ele>3.622102</ele>
        <time>2021-09-14T09:13:28.410Z</time>
      </trkpt>
      <trkpt lat="49.39709" lon="0.85324">
        <ele>3.637342</ele>
        <time>2021-09-14T09:13:31.589Z</time>
      </trkpt>
      <trkpt lat="49.39685" lon="0.85301">
        <ele>3.669012</ele>
        <time>2021-09-14T09:13:37.872Z</time>
      </trkpt>
      <trkpt lat="49.39678" lon="0.85293">
        <ele>3.678681</ele>
        <time>2021-09-14T09:13:39.913Z</time>
      </trkpt>
      <trkpt lat="49.39671" lon="0.85283">
        <ele>3.688591</ele>
        <time>2021-09-14T09:13:41.832Z</time>
      </trkpt>
      <trkpt lat="49.39664" lon="0.85268">
        <ele>3.701958</ele>
        <time>2021-09-14T09:13:44.477Z</time>
      </trkpt>
      <trkpt lat="49.39657" lon="0.85246">
        <ele>3.719334</ele>
        <time>2021-09-14T09:13:48.115Z</time>
      </trkpt>
      <trkpt lat="49.3965" lon="0.85218">
        <ele>3.741627</ele>
        <time>2021-09-14T09:13:52.542Z</time>
      </trkpt>
      <trkpt lat="49.39643" lon="0.85193">
        <ele>3.762343</ele>
        <time>2021-09-14T09:13:56.616Z</time>
      </trkpt>
      <trkpt lat="49.39634" lon="0.85163">
        <ele>3.788863</ele>
        <time>2021-09-14T09:14:01.395Z</time>
      </trkpt>
      <trkpt lat="49.396" lon="0.85072">
        <ele>3.871657</ele>
        <time>2021-09-14T09:14:16.580Z</time>
      </trkpt>
      <trkpt lat="49.39577" lon="0.85011">
        <ele>3.928371</ele>
        <time>2021-09-14T09:14:27.238Z</time>
      </trkpt>
      <trkpt lat="49.39568" lon="0.84955">
        <ele>3.968628</ele>
        <time>2021-09-14T09:14:36.035Z</time>
      </trkpt>
      <trkpt lat="49.39569" lon="0.84857">
        <ele>3.965295</ele>
        <time>2021-09-14T09:14:50.531Z</time>
      </trkpt>
      <trkpt lat="49.39568" lon="0.84836">
        <ele>3.96455</ele>
        <time>2021-09-14T09:14:53.722Z</time>
      </trkpt>
      <trkpt lat="49.39564" lon="0.84811">
        <ele>3.963684</ele>
        <time>2021-09-14T09:14:57.349Z</time>
      </trkpt>
      <trkpt lat="49.39547" lon="0.84702">
        <ele>3.959836</ele>
        <time>2021-09-14T09:15:13.263Z</time>
      </trkpt>
      <trkpt lat="49.39545" lon="0.84687">
        <ele>3.957188</ele>
        <time>2021-09-14T09:15:15.441Z</time>
      </trkpt>
      <trkpt lat="49.39543" lon="0.84658">
        <ele>3.934632</ele>
        <time>2021-09-14T09:15:19.363Z</time>
      </trkpt>
      <trkpt lat="49.39542" lon="0.84471">
        <ele>3.787181</ele>
        <time>2021-09-14T09:15:45.493Z</time>
      </trkpt>
      <trkpt lat="49.39553" lon="0.84234">
        <ele>3.906602</ele>
        <time>2021-09-14T09:16:20.268Z</time>
      </trkpt>
      <trkpt lat="49.39551" lon="0.84036">
        <ele>4.032054</ele>
        <time>2021-09-14T09:16:50.543Z</time>
      </trkpt>
      <trkpt lat="49.39555" lon="0.84009">
        <ele>4.042227</ele>
        <time>2021-09-14T09:16:54.704Z</time>
      </trkpt>
      <trkpt lat="49.39565" lon="0.83964">
        <ele>4.05966</ele>
        <time>2021-09-14T09:17:01.834Z</time>
      </trkpt>
      <trkpt lat="49.39569" lon="0.83942">
        <ele>4.068065</ele>
        <time>2021-09-14T09:17:05.116Z</time>
      </trkpt>
      <trkpt lat="49.39599" lon="0.83708">
        <ele>3.874085</ele>
        <time>2021-09-14T09:17:38.405Z</time>
      </trkpt>
      <trkpt lat="49.39641" lon="0.83464">
        <ele>3.701624</ele>
        <time>2021-09-14T09:18:13.369Z</time>
      </trkpt>
      <trkpt lat="49.39641" lon="0.83464">
        <ele>3.701624</ele>
        <time>2021-09-14T09:18:13.372Z</time>
      </trkpt>
      <trkpt lat="49.39651" lon="0.83414">
        <ele>3.695066</ele>
        <time>2021-09-14T09:18:21.206Z</time>
      </trkpt>
      <trkpt lat="49.39653" lon="0.83405">
        <ele>3.693851</ele>
        <time>2021-09-14T09:18:22.628Z</time>
      </trkpt>
      <trkpt lat="49.39684" lon="0.83275">
        <ele>3.813737</ele>
        <time>2021-09-14T09:18:43.524Z</time>
      </trkpt>
      <trkpt lat="49.39712" lon="0.83086">
        <ele>4.218691</ele>
        <time>2021-09-14T09:19:13.565Z</time>
      </trkpt>
      <trkpt lat="49.3972" lon="0.82908">
        <ele>4.3067</ele>
        <time>2021-09-14T09:19:39.962Z</time>
      </trkpt>
      <trkpt lat="49.39763" lon="0.82699">
        <ele>4.195599</ele>
        <time>2021-09-14T09:20:11.237Z</time>
      </trkpt>
      <trkpt lat="49.39778" lon="0.82654">
        <ele>4.121776</ele>
        <time>2021-09-14T09:20:18.300Z</time>
      </trkpt>
      <trkpt lat="49.39896" lon="0.82369">
        <ele>3.635915</ele>
        <time>2021-09-14T09:21:04.660Z</time>
      </trkpt>
      <trkpt lat="49.40019" lon="0.82121">
        <ele>3.580538</ele>
        <time>2021-09-14T09:21:50.063Z</time>
      </trkpt>
      <trkpt lat="49.40069" lon="0.82053">
        <ele>3.512306</ele>
        <time>2021-09-14T09:22:04.956Z</time>
      </trkpt>
      <trkpt lat="49.40166" lon="0.81965">
        <ele>3.345655</ele>
        <time>2021-09-14T09:22:29.291Z</time>
      </trkpt>
      <trkpt lat="49.40175" lon="0.81955">
        <ele>3.329799</ele>
        <time>2021-09-14T09:22:31.457Z</time>
      </trkpt>
      <trkpt lat="49.40184" lon="0.81941">
        <ele>3.306377</ele>
        <time>2021-09-14T09:22:34.351Z</time>
      </trkpt>
      <trkpt lat="49.40297" lon="0.81765">
        <ele>2.939598</ele>
        <time>2021-09-14T09:23:08.498Z</time>
      </trkpt>
      <trkpt lat="49.40368" lon="0.81673">
        <ele>2.979812</ele>
        <time>2021-09-14T09:23:28.763Z</time>
      </trkpt>
      <trkpt lat="49.40399" lon="0.81645">
        <ele>3.013257</ele>
        <time>2021-09-14T09:23:37.032Z</time>
      </trkpt>
      <trkpt lat="49.40487" lon="0.81595">
        <ele>3.131408</ele>
        <time>2021-09-14T09:23:59.124Z</time>
      </trkpt>
      <trkpt lat="49.4054" lon="0.8154">
        <ele>3.261358</ele>
        <time>2021-09-14T09:24:14.050Z</time>
      </trkpt>
      <trkpt lat="49.40558" lon="0.81519">
        <ele>3.308251</ele>
        <time>2021-09-14T09:24:19.497Z</time>
      </trkpt>
      <trkpt lat="49.40595" lon="0.81469">
        <ele>3.408677</ele>
        <time>2021-09-14T09:24:30.609Z</time>
      </trkpt>
      <trkpt lat="49.40625" lon="0.81434">
        <ele>3.396829</ele>
        <time>2021-09-14T09:24:38.990Z</time>
      </trkpt>
      <trkpt lat="49.4072" lon="0.81325">
        <ele>3.167303</ele>
        <time>2021-09-14T09:25:04.369Z</time>
      </trkpt>
      <trkpt lat="49.4077" lon="0.8128">
        <ele>3.064547</ele>
        <time>2021-09-14T09:25:16.578Z</time>
      </trkpt>
      <trkpt lat="49.40859" lon="0.81249">
        <ele>2.93432</ele>
        <time>2021-09-14T09:25:36.207Z</time>
      </trkpt>
      <trkpt lat="49.40924" lon="0.81227">
        <ele>2.839804</ele>
        <time>2021-09-14T09:25:50.713Z</time>
      </trkpt>
      <trkpt lat="49.40945" lon="0.81219">
        <ele>2.848265</ele>
        <time>2021-09-14T09:25:55.713Z</time>
      </trkpt>
      <trkpt lat="49.40986" lon="0.81223">
        <ele>2.876941</ele>
        <time>2021-09-14T09:26:04.687Z</time>
      </trkpt>
      <trkpt lat="49.41047" lon="0.81256">
        <ele>2.922755</ele>
        <time>2021-09-14T09:26:19.553Z</time>
      </trkpt>
      <trkpt lat="49.41097" lon="0.81251">
        <ele>2.95781</ele>
        <time>2021-09-14T09:26:30.886Z</time>
      </trkpt>
      <trkpt lat="49.41139" lon="0.81236">
        <ele>2.954464</ele>
        <time>2021-09-14T09:26:40.505Z</time>
      </trkpt>
      <trkpt lat="49.41191" lon="0.81217">
        <ele>2.943681</ele>
        <time>2021-09-14T09:26:52.395Z</time>
      </trkpt>
      <trkpt lat="49.41279" lon="0.81184">
        <ele>2.928688</ele>
        <time>2021-09-14T09:27:12.319Z</time>
      </trkpt>
      <trkpt lat="49.41306" lon="0.81178">
        <ele>2.962917</ele>
        <time>2021-09-14T09:27:18.555Z</time>
      </trkpt>
      <trkpt lat="49.41322" lon="0.81181">
        <ele>2.982771</ele>
        <time>2021-09-14T09:27:21.994Z</time>
      </trkpt>
      <trkpt lat="49.4133" lon="0.81185">
        <ele>2.993478</ele>
        <time>2021-09-14T09:27:23.995Z</time>
      </trkpt>
      <trkpt lat="49.4137" lon="0.81232">
        <ele>3.056456</ele>
        <time>2021-09-14T09:27:35.130Z</time>
      </trkpt>
      <trkpt lat="49.41504" lon="0.81422">
        <ele>3.370471</ele>
        <time>2021-09-14T09:28:17.998Z</time>
      </trkpt>
      <trkpt lat="49.41526" lon="0.81437">
        <ele>3.420676</ele>
        <time>2021-09-14T09:28:23.647Z</time>
      </trkpt>
      <trkpt lat="49.41552" lon="0.81438">
        <ele>3.472894</ele>
        <time>2021-09-14T09:28:29.420Z</time>
      </trkpt>
      <trkpt lat="49.4167" lon="0.81405">
        <ele>3.196509</ele>
        <time>2021-09-14T09:28:55.203Z</time>
      </trkpt>
      <trkpt lat="49.41759" lon="0.81418">
        <ele>2.879394</ele>
        <time>2021-09-14T09:29:13.463Z</time>
      </trkpt>
      <trkpt lat="49.4185" lon="0.81402">
        <ele>2.358652</ele>
        <time>2021-09-14T09:29:31.884Z</time>
      </trkpt>
      <trkpt lat="49.41913" lon="0.81404">
        <ele>2.000032</ele>
        <time>2021-09-14T09:29:44.641Z</time>
      </trkpt>
      <trkpt lat="49.42043" lon="0.81353">
        <ele>1.734499</ele>
        <time>2021-09-14T09:30:13.096Z</time>
      </trkpt>
      <trkpt lat="49.42085" lon="0.81347">
        <ele>1.678561</ele>
        <time>2021-09-14T09:30:22.560Z</time>
      </trkpt>
      <trkpt lat="49.42119" lon="0.81356">
        <ele>1.693704</ele>
        <time>2021-09-14T09:30:30.587Z</time>
      </trkpt>
      <trkpt lat="49.4224" lon="0.81445">
        <ele>2.242879</ele>
        <time>2021-09-14T09:31:03.137Z</time>
      </trkpt>
      <trkpt lat="49.42264" lon="0.81451">
        <ele>2.338938</ele>
        <time>2021-09-14T09:31:08.800Z</time>
      </trkpt>
      <trkpt lat="49.42321" lon="0.81447">
        <ele>2.454632</ele>
        <time>2021-09-14T09:31:22.240Z</time>
      </trkpt>
      <trkpt lat="49.42328" lon="0.81451">
        <ele>2.466083</ele>
        <time>2021-09-14T09:31:24.286Z</time>
      </trkpt>
      <trkpt lat="49.42334" lon="0.81456">
        <ele>2.47647</ele>
        <time>2021-09-14T09:31:25.600Z</time>
      </trkpt>
      <trkpt lat="49.4238" lon="0.81576">
        <ele>2.61835</ele>
        <time>2021-09-14T09:31:46.104Z</time>
      </trkpt>
      <trkpt lat="49.42382" lon="0.81577">
        <ele>2.622275</ele>
        <time>2021-09-14T09:31:46.546Z</time>
      </trkpt>
      <trkpt lat="49.42386" lon="0.81578">
        <ele>2.628298</ele>
        <time>2021-09-14T09:31:47.624Z</time>
      </trkpt>
      <trkpt lat="49.4241" lon="0.81578">
        <ele>2.660263</ele>
        <time>2021-09-14T09:31:52.747Z</time>
      </trkpt>
      <trkpt lat="49.42572" lon="0.81482">
        <ele>2.546712</ele>
        <time>2021-09-14T09:32:30.819Z</time>
      </trkpt>
      <trkpt lat="49.42592" lon="0.81479">
        <ele>2.569582</ele>
        <time>2021-09-14T09:32:35.374Z</time>
      </trkpt>
      <trkpt lat="49.42597" lon="0.81482">
        <ele>2.578437</ele>
        <time>2021-09-14T09:32:36.576Z</time>
      </trkpt>
      <trkpt lat="49.42598" lon="0.81472">
        <ele>2.587922</ele>
        <time>2021-09-14T09:32:38.061Z</time>
      </trkpt>
      <trkpt lat="49.42579" lon="0.81401">
        <ele>2.666321</ele>
        <time>2021-09-14T09:32:49.912Z</time>
      </trkpt>
      <trkpt lat="49.4257" lon="0.81351">
        <ele>2.718454</ele>
        <time>2021-09-14T09:32:57.857Z</time>
      </trkpt>
      <trkpt lat="49.42564" lon="0.81066">
        <ele>3.095612</ele>
        <time>2021-09-14T09:33:43.218Z</time>
      </trkpt>
      <trkpt lat="49.42562" lon="0.80912">
        <ele>3.192882</ele>
        <time>2021-09-14T09:34:06.885Z</time>
      </trkpt>
      <trkpt lat="49.42558" lon="0.80795">
        <ele>3.097133</ele>
        <time>2021-09-14T09:34:24.164Z</time>
      </trkpt>
      <trkpt lat="49.42557" lon="0.80734">
        <ele>3.04729</ele>
        <time>2021-09-14T09:34:32.956Z</time>
      </trkpt>
      <trkpt lat="49.42575" lon="0.8053">
        <ele>2.89213</ele>
        <time>2021-09-14T09:35:02.345Z</time>
      </trkpt>
      <trkpt lat="49.4258" lon="0.80514">
        <ele>2.878649</ele>
        <time>2021-09-14T09:35:05.068Z</time>
      </trkpt>
      <trkpt lat="49.42596" lon="0.80496">
        <ele>2.85635</ele>
        <time>2021-09-14T09:35:09.677Z</time>
      </trkpt>
      <trkpt lat="49.42679" lon="0.80473">
        <ele>2.906462</ele>
        <time>2021-09-14T09:35:29.977Z</time>
      </trkpt>
      <trkpt lat="49.42744" lon="0.80451">
        <ele>3.053692</ele>
        <time>2021-09-14T09:35:46.172Z</time>
      </trkpt>
      <trkpt lat="49.4275" lon="0.80449">
        <ele>3.065651</ele>
        <time>2021-09-14T09:35:47.489Z</time>
      </trkpt>
      <trkpt lat="49.4286" lon="0.80421">
        <ele>3.242641</ele>
        <time>2021-09-14T09:36:14.384Z</time>
      </trkpt>
      <trkpt lat="49.42872" lon="0.80422">
        <ele>3.252114</ele>
        <time>2021-09-14T09:36:17.346Z</time>
      </trkpt>
      <trkpt lat="49.42888" lon="0.80424">
        <ele>3.263989</ele>
        <time>2021-09-14T09:36:21.048Z</time>
      </trkpt>
      <trkpt lat="49.42897" lon="0.80424">
        <ele>3.270718</ele>
        <time>2021-09-14T09:36:23.042Z</time>
      </trkpt>
      <trkpt lat="49.42947" lon="0.80426">
        <ele>3.309452</ele>
        <time>2021-09-14T09:36:34.808Z</time>
      </trkpt>
      <trkpt lat="49.43011" lon="0.80408">
        <ele>3.352948</ele>
        <time>2021-09-14T09:36:49.774Z</time>
      </trkpt>
      <trkpt lat="49.43056" lon="0.80413">
        <ele>3.373486</ele>
        <time>2021-09-14T09:37:00.056Z</time>
      </trkpt>
      <trkpt lat="49.4309" lon="0.80442">
        <ele>3.39179</ele>
        <time>2021-09-14T09:37:09.340Z</time>
      </trkpt>
      <trkpt lat="49.43126" lon="0.80459">
        <ele>3.408798</ele>
        <time>2021-09-14T09:37:17.998Z</time>
      </trkpt>
      <trkpt lat="49.43143" lon="0.80497">
        <ele>3.422621</ele>
        <time>2021-09-14T09:37:25.062Z</time>
      </trkpt>
      <trkpt lat="49.43146" lon="0.80524">
        <ele>3.435456</ele>
        <time>2021-09-14T09:37:29.384Z</time>
      </trkpt>
      <trkpt lat="49.43145" lon="0.80537">
        <ele>3.442677</ele>
        <time>2021-09-14T09:37:31.245Z</time>
      </trkpt>
      <trkpt lat="49.43153" lon="0.80547">
        <ele>3.451556</ele>
        <time>2021-09-14T09:37:33.634Z</time>
      </trkpt>
      <trkpt lat="49.43283" lon="0.80623">
        <ele>3.576608</ele>
        <time>2021-09-14T09:38:06.497Z</time>
      </trkpt>
      <trkpt lat="49.43314" lon="0.80652">
        <ele>3.587662</ele>
        <time>2021-09-14T09:38:15.038Z</time>
      </trkpt>
      <trkpt lat="49.43331" lon="0.80714">
        <ele>3.586815</ele>
        <time>2021-09-14T09:38:25.111Z</time>
      </trkpt>
      <trkpt lat="49.43337" lon="0.80738">
        <ele>3.586484</ele>
        <time>2021-09-14T09:38:29.038Z</time>
      </trkpt>
      <trkpt lat="49.43385" lon="0.80802">
        <ele>3.585269</ele>
        <time>2021-09-14T09:38:43.405Z</time>
      </trkpt>
      <trkpt lat="49.43542" lon="0.81143">
        <ele>3.58933</ele>
        <time>2021-09-14T09:39:46.381Z</time>
      </trkpt>
      <trkpt lat="49.43544" lon="0.81161">
        <ele>3.599392</ele>
        <time>2021-09-14T09:39:49.224Z</time>
      </trkpt>
      <trkpt lat="49.43537" lon="0.81174">
        <ele>3.609064</ele>
        <time>2021-09-14T09:39:51.630Z</time>
      </trkpt>
      <trkpt lat="49.43499" lon="0.81222">
        <ele>3.652779</ele>
        <time>2021-09-14T09:40:03.121Z</time>
      </trkpt>
      <trkpt lat="49.43471" lon="0.81289">
        <ele>3.721974</ele>
        <time>2021-09-14T09:40:15.240Z</time>
      </trkpt>
      <trkpt lat="49.43381" lon="0.81435">
        <ele>4.787638</ele>
        <time>2021-09-14T09:40:47.932Z</time>
      </trkpt>
      <trkpt lat="49.43367" lon="0.81484">
        <ele>5.067004</ele>
        <time>2021-09-14T09:40:57.863Z</time>
      </trkpt>
      <trkpt lat="49.43355" lon="0.81536">
        <ele>5.948389</ele>
        <time>2021-09-14T09:41:08.717Z</time>
      </trkpt>
      <trkpt lat="49.43326" lon="0.81663">
        <ele>8.760735</ele>
        <time>2021-09-14T09:41:40.135Z</time>
      </trkpt>
      <trkpt lat="49.43316" lon="0.81739">
        <ele>10.367861</ele>
        <time>2021-09-14T09:42:00.052Z</time>
      </trkpt>
      <trkpt lat="49.43316" lon="0.81814">
        <ele>12.404395</ele>
        <time>2021-09-14T09:42:19.169Z</time>
      </trkpt>
      <trkpt lat="49.43319" lon="0.81853">
        <ele>13.620426</ele>
        <time>2021-09-14T09:42:30.534Z</time>
      </trkpt>
      <trkpt lat="49.43299" lon="0.81849">
        <ele>14.591656</ele>
        <time>2021-09-14T09:42:38.990Z</time>
      </trkpt>
      <trkpt lat="49.43287" lon="0.81847">
        <ele>15.156375</ele>
        <time>2021-09-14T09:42:44.579Z</time>
      </trkpt>
      <trkpt lat="49.43229" lon="0.81842">
        <ele>17.850178</ele>
        <time>2021-09-14T09:43:09.542Z</time>
      </trkpt>
      <trkpt lat="49.43219" lon="0.81848">
        <ele>18.370341</ele>
        <time>2021-09-14T09:43:14.550Z</time>
      </trkpt>
      <trkpt lat="49.43231" lon="0.81872">
        <ele>19.315926</ele>
        <time>2021-09-14T09:43:22.566Z</time>
      </trkpt>
      <trkpt lat="49.43247" lon="0.81899">
        <ele>20.291528</ele>
        <time>2021-09-14T09:43:32.553Z</time>
      </trkpt>
      <trkpt lat="49.43283" lon="0.81965">
        <ele>22.658728</ele>
        <time>2021-09-14T09:43:52.576Z</time>
      </trkpt>
      <trkpt lat="49.43292" lon="0.8198">
        <ele>23.208678</ele>
        <time>2021-09-14T09:43:57.335Z</time>
      </trkpt>
      <trkpt lat="49.43304" lon="0.81991">
        <ele>23.774846</ele>
        <time>2021-09-14T09:44:03.261Z</time>
      </trkpt>
      <trkpt lat="49.43351" lon="0.82012">
        <ele>25.826962</ele>
        <time>2021-09-14T09:44:22.960Z</time>
      </trkpt>
      <trkpt lat="49.43402" lon="0.82025">
        <ele>27.902893</ele>
        <time>2021-09-14T09:44:43.521Z</time>
      </trkpt>
      <trkpt lat="49.43404" lon="0.82026">
        <ele>27.988669</ele>
        <time>2021-09-14T09:44:44.660Z</time>
      </trkpt>
      <trkpt lat="49.4341" lon="0.8203">
        <ele>28.222371</ele>
        <time>2021-09-14T09:44:46.672Z</time>
      </trkpt>
      <trkpt lat="49.43419" lon="0.82039">
        <ele>28.664682</ele>
        <time>2021-09-14T09:44:50.587Z</time>
      </trkpt>
      <trkpt lat="49.43422" lon="0.82042">
        <ele>28.794119</ele>
        <time>2021-09-14T09:44:51.656Z</time>
      </trkpt>
      <trkpt lat="49.43432" lon="0.82051">
        <ele>29.212343</ele>
        <time>2021-09-14T09:44:55.230Z</time>
      </trkpt>
      <trkpt lat="49.43433" lon="0.82053">
        <ele>29.287176</ele>
        <time>2021-09-14T09:44:56.743Z</time>
      </trkpt>
      <trkpt lat="49.43443" lon="0.82061">
        <ele>29.70735</ele>
        <time>2021-09-14T09:45:00.297Z</time>
      </trkpt>
      <trkpt lat="49.43499" lon="0.82114">
        <ele>32.207603</ele>
        <time>2021-09-14T09:45:24.513Z</time>
      </trkpt>
      <trkpt lat="49.43576" lon="0.82186">
        <ele>35.300221</ele>
        <time>2021-09-14T09:45:58.626Z</time>
      </trkpt>
      <trkpt lat="49.4358" lon="0.82189">
        <ele>35.430543</ele>
        <time>2021-09-14T09:46:00.058Z</time>
      </trkpt>
      <trkpt lat="49.43591" lon="0.82199">
        <ele>35.836779</ele>
        <time>2021-09-14T09:46:04.945Z</time>
      </trkpt>
      <trkpt lat="49.43602" lon="0.82209">
        <ele>36.213599</ele>
        <time>2021-09-14T09:46:09.231Z</time>
      </trkpt>
      <trkpt lat="49.43658" lon="0.82261">
        <ele>38.25272</ele>
        <time>2021-09-14T09:46:31.262Z</time>
      </trkpt>
      <trkpt lat="49.43674" lon="0.82275">
        <ele>38.79824</ele>
        <time>2021-09-14T09:46:36.949Z</time>
      </trkpt>
      <trkpt lat="49.43678" lon="0.82278">
        <ele>38.941208</ele>
        <time>2021-09-14T09:46:38.792Z</time>
      </trkpt>
      <trkpt lat="49.43762" lon="0.82356">
        <ele>40.761216</ele>
        <time>2021-09-14T09:47:09.600Z</time>
      </trkpt>
      <trkpt lat="49.43778" lon="0.82372">
        <ele>41.072843</ele>
        <time>2021-09-14T09:47:15.164Z</time>
      </trkpt>
      <trkpt lat="49.43781" lon="0.82375">
        <ele>41.14294</ele>
        <time>2021-09-14T09:47:16.170Z</time>
      </trkpt>
      <trkpt lat="49.43834" lon="0.82422">
        <ele>42.163504</ele>
        <time>2021-09-14T09:47:32.461Z</time>
      </trkpt>
      <trkpt lat="49.43869" lon="0.82454">
        <ele>42.398017</ele>
        <time>2021-09-14T09:47:42.346Z</time>
      </trkpt>
      <trkpt lat="49.4391" lon="0.8249">
        <ele>42.51213</ele>
        <time>2021-09-14T09:47:53.409Z</time>
      </trkpt>
      <trkpt lat="49.43958" lon="0.82525">
        <ele>42.641776</ele>
        <time>2021-09-14T09:48:05.558Z</time>
      </trkpt>
      <trkpt lat="49.4401" lon="0.82549">
        <ele>42.756766</ele>
        <time>2021-09-14T09:48:17.401Z</time>
      </trkpt>
      <trkpt lat="49.44032" lon="0.82558">
        <ele>42.745993</ele>
        <time>2021-09-14T09:48:22.184Z</time>
      </trkpt>
      <trkpt lat="49.44062" lon="0.82569">
        <ele>42.731499</ele>
        <time>2021-09-14T09:48:28.903Z</time>
      </trkpt>
      <trkpt lat="49.44157" lon="0.82605">
        <ele>42.684751</ele>
        <time>2021-09-14T09:48:50.744Z</time>
      </trkpt>
      <trkpt lat="49.4421" lon="0.82625">
        <ele>42.589085</ele>
        <time>2021-09-14T09:49:02.741Z</time>
      </trkpt>
      <trkpt lat="49.44316" lon="0.82665">
        <ele>42.293423</ele>
        <time>2021-09-14T09:49:26.041Z</time>
      </trkpt>
      <trkpt lat="49.44452" lon="0.82715">
        <ele>41.718315</ele>
        <time>2021-09-14T09:49:54.633Z</time>
      </trkpt>
      <trkpt lat="49.44578" lon="0.82762">
        <ele>41.149029</ele>
        <time>2021-09-14T09:50:21.674Z</time>
      </trkpt>
      <trkpt lat="49.44593" lon="0.82768">
        <ele>41.088997</ele>
        <time>2021-09-14T09:50:24.972Z</time>
      </trkpt>
      <trkpt lat="49.44594" lon="0.82768">
        <ele>41.083342</ele>
        <time>2021-09-14T09:50:25.265Z</time>
      </trkpt>
      <trkpt lat="49.44763" lon="0.82831">
        <ele>40.202275</ele>
        <time>2021-09-14T09:51:01.409Z</time>
      </trkpt>
      <trkpt lat="49.4481" lon="0.82849">
        <ele>39.854047</ele>
        <time>2021-09-14T09:51:11.108Z</time>
      </trkpt>
      <trkpt lat="49.4482" lon="0.82853">
        <ele>39.780705</ele>
        <time>2021-09-14T09:51:12.988Z</time>
      </trkpt>
      <trkpt lat="49.44893" lon="0.8288">
        <ele>39.132897</ele>
        <time>2021-09-14T09:51:27.600Z</time>
      </trkpt>
      <trkpt lat="49.44902" lon="0.82884">
        <ele>38.99797</ele>
        <time>2021-09-14T09:51:29.333Z</time>
      </trkpt>
      <trkpt lat="49.44947" lon="0.82901">
        <ele>38.323114</ele>
        <time>2021-09-14T09:51:38.401Z</time>
      </trkpt>
      <trkpt lat="49.4496" lon="0.82905">
        <ele>38.139331</ele>
        <time>2021-09-14T09:51:40.856Z</time>
      </trkpt>
      <trkpt lat="49.45032" lon="0.82933">
        <ele>37.069491</ele>
        <time>2021-09-14T09:51:54.471Z</time>
      </trkpt>
      <trkpt lat="49.45053" lon="0.8294">
        <ele>36.757255</ele>
        <time>2021-09-14T09:51:58.252Z</time>
      </trkpt>
      <trkpt lat="49.45102" lon="0.82959">
        <ele>35.020433</ele>
        <time>2021-09-14T09:52:06.891Z</time>
      </trkpt>
      <trkpt lat="49.45152" lon="0.82978">
        <ele>33.25304</ele>
        <time>2021-09-14T09:52:15.238Z</time>
      </trkpt>
      <trkpt lat="49.45163" lon="0.82982">
        <ele>32.847835</ele>
        <time>2021-09-14T09:52:16.989Z</time>
      </trkpt>
      <trkpt lat="49.45191" lon="0.82992">
        <ele>31.856711</ele>
        <time>2021-09-14T09:52:21.612Z</time>
      </trkpt>
      <trkpt lat="49.45222" lon="0.83003">
        <ele>30.784516</ele>
        <time>2021-09-14T09:52:26.528Z</time>
      </trkpt>
      <trkpt lat="49.45234" lon="0.83005">
        <ele>30.258328</ele>
        <time>2021-09-14T09:52:28.354Z</time>
      </trkpt>
      <trkpt lat="49.45234" lon="0.83008">
        <ele>30.156474</ele>
        <time>2021-09-14T09:52:28.686Z</time>
      </trkpt>
      <trkpt lat="49.45235" lon="0.83011">
        <ele>30.056685</ele>
        <time>2021-09-14T09:52:29.003Z</time>
      </trkpt>
      <trkpt lat="49.45238" lon="0.83016">
        <ele>29.857479</ele>
        <time>2021-09-14T09:52:29.671Z</time>
      </trkpt>
      <trkpt lat="49.4524" lon="0.83017">
        <ele>29.758195</ele>
        <time>2021-09-14T09:52:29.991Z</time>
      </trkpt>
      <trkpt lat="49.45242" lon="0.83017">
        <ele>29.640649</ele>
        <time>2021-09-14T09:52:30.374Z</time>
      </trkpt>
      <trkpt lat="49.45247" lon="0.83014">
        <ele>29.404201</ele>
        <time>2021-09-14T09:52:31.165Z</time>
      </trkpt>
      <trkpt lat="49.45248" lon="0.83011">
        <ele>29.284233</ele>
        <time>2021-09-14T09:52:31.554Z</time>
      </trkpt>
      <trkpt lat="49.45248" lon="0.83011">
        <ele>29.284233</ele>
        <time>2021-09-14T09:52:31.568Z</time>
      </trkpt>
      <trkpt lat="49.45266" lon="0.83018">
        <ele>28.362007</ele>
        <time>2021-09-14T09:52:34.338Z</time>
      </trkpt>
      <trkpt lat="49.45306" lon="0.83033">
        <ele>26.337484</ele>
        <time>2021-09-14T09:52:40.569Z</time>
      </trkpt>
      <trkpt lat="49.45309" lon="0.83023">
        <ele>25.986458</ele>
        <time>2021-09-14T09:52:41.689Z</time>
      </trkpt>
      <trkpt lat="49.45314" lon="0.83018">
        <ele>25.70517</ele>
        <time>2021-09-14T09:52:42.545Z</time>
      </trkpt>
      <trkpt lat="49.45318" lon="0.83014">
        <ele>25.468489</ele>
        <time>2021-09-14T09:52:43.277Z</time>
      </trkpt>
      <trkpt lat="49.45338" lon="0.83007">
        <ele>24.471235</ele>
        <time>2021-09-14T09:52:46.342Z</time>
      </trkpt>
      <trkpt lat="49.45365" lon="0.82996">
        <ele>23.100533</ele>
        <time>2021-09-14T09:52:50.529Z</time>
      </trkpt>
      <trkpt lat="49.45369" lon="0.82994">
        <ele>22.898406</ele>
        <time>2021-09-14T09:52:51.150Z</time>
      </trkpt>
      <trkpt lat="49.45374" lon="0.82992">
        <ele>22.65435</ele>
        <time>2021-09-14T09:52:51.923Z</time>
      </trkpt>
      <trkpt lat="49.45376" lon="0.82992">
        <ele>22.568284</ele>
        <time>2021-09-14T09:52:52.186Z</time>
      </trkpt>
      <trkpt lat="49.45379" lon="0.8299">
        <ele>22.381155</ele>
        <time>2021-09-14T09:52:52.785Z</time>
      </trkpt>
      <trkpt lat="49.45406" lon="0.82979">
        <ele>21.080653</ele>
        <time>2021-09-14T09:52:57.005Z</time>
      </trkpt>
      <trkpt lat="49.45411" lon="0.82977">
        <ele>20.85564</ele>
        <time>2021-09-14T09:52:57.764Z</time>
      </trkpt>
      <trkpt lat="49.45421" lon="0.82973">
        <ele>20.375499</ele>
        <time>2021-09-14T09:52:59.403Z</time>
      </trkpt>
      <trkpt lat="49.45436" lon="0.82965">
        <ele>19.669984</ele>
        <time>2021-09-14T09:53:01.810Z</time>
      </trkpt>
      <trkpt lat="49.45442" lon="0.82958">
        <ele>19.33265</ele>
        <time>2021-09-14T09:53:02.970Z</time>
      </trkpt>
      <trkpt lat="49.45449" lon="0.82951">
        <ele>18.954132</ele>
        <time>2021-09-14T09:53:04.235Z</time>
      </trkpt>
      <trkpt lat="49.45457" lon="0.82943">
        <ele>18.533948</ele>
        <time>2021-09-14T09:53:05.672Z</time>
      </trkpt>
      <trkpt lat="49.45473" lon="0.82929">
        <ele>17.665851</ele>
        <time>2021-09-14T09:53:08.624Z</time>
      </trkpt>
      <trkpt lat="49.45477" lon="0.82925">
        <ele>17.471686</ele>
        <time>2021-09-14T09:53:09.250Z</time>
      </trkpt>
      <trkpt lat="49.45496" lon="0.82908">
        <ele>16.458082</ele>
        <time>2021-09-14T09:53:12.686Z</time>
      </trkpt>
      <trkpt lat="49.4552" lon="0.82887">
        <ele>15.21289</ele>
        <time>2021-09-14T09:53:16.871Z</time>
      </trkpt>
      <trkpt lat="49.45532" lon="0.82875">
        <ele>14.572597</ele>
        <time>2021-09-14T09:53:19.080Z</time>
      </trkpt>
      <trkpt lat="49.45536" lon="0.82872">
        <ele>14.35529</ele>
        <time>2021-09-14T09:53:19.800Z</time>
      </trkpt>
      <trkpt lat="49.4554" lon="0.82868">
        <ele>14.123264</ele>
        <time>2021-09-14T09:53:20.560Z</time>
      </trkpt>
      <trkpt lat="49.45551" lon="0.82857">
        <ele>13.552498</ele>
        <time>2021-09-14T09:53:22.577Z</time>
      </trkpt>
      <trkpt lat="49.45578" lon="0.82832">
        <ele>12.438082</ele>
        <time>2021-09-14T09:53:27.473Z</time>
      </trkpt>
      <trkpt lat="49.45605" lon="0.82807">
        <ele>11.331946</ele>
        <time>2021-09-14T09:53:32.415Z</time>
      </trkpt>
      <trkpt lat="49.4561" lon="0.82803">
        <ele>11.134988</ele>
        <time>2021-09-14T09:53:33.288Z</time>
      </trkpt>
      <trkpt lat="49.45622" lon="0.82792">
        <ele>10.66401</ele>
        <time>2021-09-14T09:53:35.404Z</time>
      </trkpt>
      <trkpt lat="49.45632" lon="0.82782">
        <ele>10.228704</ele>
        <time>2021-09-14T09:53:37.365Z</time>
      </trkpt>
      <trkpt lat="49.45637" lon="0.82778">
        <ele>10.033565</ele>
        <time>2021-09-14T09:53:38.273Z</time>
      </trkpt>
      <trkpt lat="49.45647" lon="0.82768">
        <ele>9.597635</ele>
        <time>2021-09-14T09:53:40.241Z</time>
      </trkpt>
      <trkpt lat="49.45659" lon="0.82757">
        <ele>9.119688</ele>
        <time>2021-09-14T09:53:42.420Z</time>
      </trkpt>
      <trkpt lat="49.45671" lon="0.82747">
        <ele>8.641064</ele>
        <time>2021-09-14T09:53:44.586Z</time>
      </trkpt>
      <trkpt lat="49.45681" lon="0.82737">
        <ele>8.215878</ele>
        <time>2021-09-14T09:53:46.478Z</time>
      </trkpt>
      <trkpt lat="49.45684" lon="0.82735">
        <ele>8.113198</ele>
        <time>2021-09-14T09:53:46.946Z</time>
      </trkpt>
      <trkpt lat="49.45797" lon="0.82633">
        <ele>6.082686</ele>
        <time>2021-09-14T09:54:10.250Z</time>
      </trkpt>
      <trkpt lat="49.45805" lon="0.82624">
        <ele>5.972377</ele>
        <time>2021-09-14T09:54:12.120Z</time>
      </trkpt>
      <trkpt lat="49.45813" lon="0.82606">
        <ele>5.81714</ele>
        <time>2021-09-14T09:54:15.320Z</time>
      </trkpt>
      <trkpt lat="49.45824" lon="0.82563">
        <ele>5.488827</ele>
        <time>2021-09-14T09:54:21.893Z</time>
      </trkpt>
      <trkpt lat="49.45828" lon="0.82545">
        <ele>5.353018</ele>
        <time>2021-09-14T09:54:24.926Z</time>
      </trkpt>
      <trkpt lat="49.45839" lon="0.82491">
        <ele>6.082459</ele>
        <time>2021-09-14T09:54:34.597Z</time>
      </trkpt>
      <trkpt lat="49.45843" lon="0.82469">
        <ele>6.47489</ele>
        <time>2021-09-14T09:54:38.548Z</time>
      </trkpt>
      <trkpt lat="49.45849" lon="0.82441">
        <ele>6.970233</ele>
        <time>2021-09-14T09:54:44.162Z</time>
      </trkpt>
      <trkpt lat="49.45856" lon="0.82402">
        <ele>7.659414</ele>
        <time>2021-09-14T09:54:53.134Z</time>
      </trkpt>
      <trkpt lat="49.45861" lon="0.82394">
        <ele>7.829526</ele>
        <time>2021-09-14T09:54:55.344Z</time>
      </trkpt>
      <trkpt lat="49.45862" lon="0.82391">
        <ele>7.894311</ele>
        <time>2021-09-14T09:54:56.217Z</time>
      </trkpt>
      <trkpt lat="49.45866" lon="0.8239">
        <ele>7.989786</ele>
        <time>2021-09-14T09:54:57.783Z</time>
      </trkpt>
      <trkpt lat="49.45868" lon="0.82417">
        <ele>8.455248</ele>
        <time>2021-09-14T09:55:04.989Z</time>
      </trkpt>
      <trkpt lat="49.45874" lon="0.82442">
        <ele>8.895876</ele>
        <time>2021-09-14T09:55:10.844Z</time>
      </trkpt>
      <trkpt lat="49.45878" lon="0.82448">
        <ele>9.047815</ele>
        <time>2021-09-14T09:55:13.173Z</time>
      </trkpt>
      <trkpt lat="49.45877" lon="0.82451">
        <ele>9.09886</ele>
        <time>2021-09-14T09:55:13.764Z</time>
      </trkpt>
      <trkpt lat="49.45878" lon="0.82448">
        <ele>9.149905</ele>
        <time>2021-09-14T09:55:14.571Z</time>
      </trkpt>
      <trkpt lat="49.45885" lon="0.82438">
        <ele>9.412031</ele>
        <time>2021-09-14T09:55:18.729Z</time>
      </trkpt>
      <trkpt lat="49.45892" lon="0.8243">
        <ele>9.625607</ele>
        <time>2021-09-14T09:55:21.206Z</time>
      </trkpt>
      <trkpt lat="49.45904" lon="0.82418">
        <ele>10.008773</ele>
        <time>2021-09-14T09:55:26.458Z</time>
      </trkpt>
      <trkpt lat="49.45916" lon="0.82408">
        <ele>10.525036</ele>
        <time>2021-09-14T09:55:32.121Z</time>
      </trkpt>
      <trkpt lat="49.45931" lon="0.82394">
        <ele>11.194508</ele>
        <time>2021-09-14T09:55:38.191Z</time>
      </trkpt>
      <trkpt lat="49.45931" lon="0.82394">
        <ele>11.194508</ele>
        <time>2021-09-14T09:55:38.198Z</time>
      </trkpt>
      <trkpt lat="49.45984" lon="0.82416">
        <ele>13.241326</ele>
        <time>2021-09-14T09:55:52.336Z</time>
      </trkpt>
      <trkpt lat="49.46025" lon="0.82366">
        <ele>15.211647</ele>
        <time>2021-09-14T09:56:12.220Z</time>
      </trkpt>
      <trkpt lat="49.46227" lon="0.82171">
        <ele>22.501285</ele>
        <time>2021-09-14T09:57:35.483Z</time>
      </trkpt>
      <trkpt lat="49.46707" lon="0.81875">
        <ele>30.94881</ele>
        <time>2021-09-14T10:00:02.167Z</time>
      </trkpt>
      <trkpt lat="49.46745" lon="0.8186">
        <ele>31.50873</ele>
        <time>2021-09-14T10:00:13.091Z</time>
      </trkpt>
      <trkpt lat="49.46777" lon="0.81849">
        <ele>31.969244</ele>
        <time>2021-09-14T10:00:22.123Z</time>
      </trkpt>
      <trkpt lat="49.46823" lon="0.81839">
        <ele>32.616874</ele>
        <time>2021-09-14T10:00:34.673Z</time>
      </trkpt>
      <trkpt lat="49.46936" lon="0.81826">
        <ele>34.129358</ele>
        <time>2021-09-14T10:01:06.850Z</time>
      </trkpt>
      <trkpt lat="49.46984" lon="0.8182">
        <ele>34.718756</ele>
        <time>2021-09-14T10:01:20.390Z</time>
      </trkpt>
      <trkpt lat="49.47016" lon="0.81817">
        <ele>35.113707</ele>
        <time>2021-09-14T10:01:29.146Z</time>
      </trkpt>
      <trkpt lat="49.4707" lon="0.81804">
        <ele>35.736194</ele>
        <time>2021-09-14T10:01:43.366Z</time>
      </trkpt>
      <trkpt lat="49.47135" lon="0.81775">
        <ele>35.573012</ele>
        <time>2021-09-14T10:01:59.512Z</time>
      </trkpt>
      <trkpt lat="49.47247" lon="0.81687">
        <ele>35.188918</ele>
        <time>2021-09-14T10:02:24.354Z</time>
      </trkpt>
      <trkpt lat="49.47328" lon="0.81617">
        <ele>34.52816</ele>
        <time>2021-09-14T10:02:42.386Z</time>
      </trkpt>
      <trkpt lat="49.47462" lon="0.81503">
        <ele>33.691558</ele>
        <time>2021-09-14T10:03:14.426Z</time>
      </trkpt>
      <trkpt lat="49.47524" lon="0.81469">
        <ele>33.420692</ele>
        <time>2021-09-14T10:03:29.163Z</time>
      </trkpt>
      <trkpt lat="49.4768" lon="0.81414">
        <ele>32.12126</ele>
        <time>2021-09-14T10:04:00.012Z</time>
      </trkpt>
      <trkpt lat="49.47741" lon="0.81373">
        <ele>31.554342</ele>
        <time>2021-09-14T10:04:12.958Z</time>
      </trkpt>
      <trkpt lat="49.47759" lon="0.81359">
        <ele>31.421067</ele>
        <time>2021-09-14T10:04:16.864Z</time>
      </trkpt>
      <trkpt lat="49.47786" lon="0.81337">
        <ele>31.22302</ele>
        <time>2021-09-14T10:04:22.811Z</time>
      </trkpt>
      <trkpt lat="49.4784" lon="0.81287">
        <ele>30.805287</ele>
        <time>2021-09-14T10:04:35.485Z</time>
      </trkpt>
      <trkpt lat="49.47902" lon="0.81238">
        <ele>30.316814</ele>
        <time>2021-09-14T10:04:49.880Z</time>
      </trkpt>
      <trkpt lat="49.47963" lon="0.81212">
        <ele>29.814228</ele>
        <time>2021-09-14T10:05:03.638Z</time>
      </trkpt>
      <trkpt lat="49.48076" lon="0.81164">
        <ele>28.737015</ele>
        <time>2021-09-14T10:05:25.881Z</time>
      </trkpt>
      <trkpt lat="49.48132" lon="0.81132">
        <ele>27.802527</ele>
        <time>2021-09-14T10:05:36.796Z</time>
      </trkpt>
      <trkpt lat="49.48171" lon="0.81099">
        <ele>27.108534</ele>
        <time>2021-09-14T10:05:44.838Z</time>
      </trkpt>
      <trkpt lat="49.48217" lon="0.81053">
        <ele>26.256298</ele>
        <time>2021-09-14T10:05:54.638Z</time>
      </trkpt>
      <trkpt lat="49.48382" lon="0.8089">
        <ele>23.336203</ele>
        <time>2021-09-14T10:06:30.454Z</time>
      </trkpt>
      <trkpt lat="49.48576" lon="0.80769">
        <ele>21.045214</ele>
        <time>2021-09-14T10:07:10.780Z</time>
      </trkpt>
      <trkpt lat="49.48603" lon="0.8075">
        <ele>20.767621</ele>
        <time>2021-09-14T10:07:16.423Z</time>
      </trkpt>
      <trkpt lat="49.4862" lon="0.80738">
        <ele>20.592366</ele>
        <time>2021-09-14T10:07:19.966Z</time>
      </trkpt>
      <trkpt lat="49.48683" lon="0.80677">
        <ele>19.883363</ele>
        <time>2021-09-14T10:07:34.487Z</time>
      </trkpt>
      <trkpt lat="49.48812" lon="0.80513">
        <ele>18.651641</ele>
        <time>2021-09-14T10:08:08.047Z</time>
      </trkpt>
      <trkpt lat="49.48839" lon="0.80474">
        <ele>18.369995</ele>
        <time>2021-09-14T10:08:15.344Z</time>
      </trkpt>
      <trkpt lat="49.48947" lon="0.80333">
        <ele>17.133951</ele>
        <time>2021-09-14T10:08:43.131Z</time>
      </trkpt>
      <trkpt lat="49.49021" lon="0.8024">
        <ele>16.215057</ele>
        <time>2021-09-14T10:09:01.539Z</time>
      </trkpt>
      <trkpt lat="49.4903" lon="0.8023">
        <ele>16.106772</ele>
        <time>2021-09-14T10:09:03.675Z</time>
      </trkpt>
      <trkpt lat="49.49216" lon="0.80039">
        <ele>13.924243</ele>
        <time>2021-09-14T10:09:46.901Z</time>
      </trkpt>
      <trkpt lat="49.49382" lon="0.79776">
        <ele>11.891856</ele>
        <time>2021-09-14T10:10:33.156Z</time>
      </trkpt>
      <trkpt lat="49.4943" lon="0.79711">
        <ele>11.898715</ele>
        <time>2021-09-14T10:10:47.369Z</time>
      </trkpt>
      <trkpt lat="49.49468" lon="0.7967">
        <ele>11.903595</ele>
        <time>2021-09-14T10:10:57.952Z</time>
      </trkpt>
      <trkpt lat="49.49538" lon="0.796">
        <ele>11.898179</ele>
        <time>2021-09-14T10:11:17.763Z</time>
      </trkpt>
      <trkpt lat="49.49593" lon="0.79543">
        <ele>11.849128</ele>
        <time>2021-09-14T10:11:32.865Z</time>
      </trkpt>
      <trkpt lat="49.4969" lon="0.79409">
        <ele>11.602424</ele>
        <time>2021-09-14T10:12:00.423Z</time>
      </trkpt>
      <trkpt lat="49.49763" lon="0.79306">
        <ele>11.091447</ele>
        <time>2021-09-14T10:12:20.481Z</time>
      </trkpt>
      <trkpt lat="49.4978" lon="0.79282">
        <ele>10.973465</ele>
        <time>2021-09-14T10:12:25.148Z</time>
      </trkpt>
      <trkpt lat="49.49839" lon="0.79199">
        <ele>10.690446</ele>
        <time>2021-09-14T10:12:41.549Z</time>
      </trkpt>
      <trkpt lat="49.50143" lon="0.78771">
        <ele>10.108372</ele>
        <time>2021-09-14T10:14:09.817Z</time>
      </trkpt>
      <trkpt lat="49.50186" lon="0.78724">
        <ele>10.241279</ele>
        <time>2021-09-14T10:14:22.957Z</time>
      </trkpt>
      <trkpt lat="49.50226" lon="0.78687">
        <ele>10.633923</ele>
        <time>2021-09-14T10:14:35.043Z</time>
      </trkpt>
      <trkpt lat="49.50364" lon="0.78601">
        <ele>12.53598</ele>
        <time>2021-09-14T10:15:16.559Z</time>
      </trkpt>
      <trkpt lat="49.50461" lon="0.78527">
        <ele>14.061755</ele>
        <time>2021-09-14T10:15:46.882Z</time>
      </trkpt>
      <trkpt lat="49.50828" lon="0.78114">
        <ele>20.274924</ele>
        <time>2021-09-14T10:17:52.974Z</time>
      </trkpt>
      <trkpt lat="49.50999" lon="0.77927">
        <ele>22.696748</ele>
        <time>2021-09-14T10:18:50.257Z</time>
      </trkpt>
      <trkpt lat="49.51077" lon="0.77836">
        <ele>23.419026</ele>
        <time>2021-09-14T10:19:14.483Z</time>
      </trkpt>
      <trkpt lat="49.51162" lon="0.77735">
        <ele>23.865209</ele>
        <time>2021-09-14T10:19:39.551Z</time>
      </trkpt>
      <trkpt lat="49.51263" lon="0.77577">
        <ele>24.03295</ele>
        <time>2021-09-14T10:20:13.169Z</time>
      </trkpt>
      <trkpt lat="49.51358" lon="0.77417">
        <ele>23.61346</ele>
        <time>2021-09-14T10:20:42.864Z</time>
      </trkpt>
      <trkpt lat="49.51635" lon="0.76917">
        <ele>17.143665</ele>
        <time>2021-09-14T10:22:00.841Z</time>
      </trkpt>
      <trkpt lat="49.51664" lon="0.76852">
        <ele>16.242159</ele>
        <time>2021-09-14T10:22:09.684Z</time>
      </trkpt>
      <trkpt lat="49.51677" lon="0.76824">
        <ele>15.855266</ele>
        <time>2021-09-14T10:22:13.587Z</time>
      </trkpt>
      <trkpt lat="49.51802" lon="0.76549">
        <ele>12.743328</ele>
        <time>2021-09-14T10:22:53.822Z</time>
      </trkpt>
      <trkpt lat="49.51882" lon="0.76357">
        <ele>11.795798</ele>
        <time>2021-09-14T10:23:24.411Z</time>
      </trkpt>
      <trkpt lat="49.51985" lon="0.76044">
        <ele>9.846755</ele>
        <time>2021-09-14T10:24:09.403Z</time>
      </trkpt>
      <trkpt lat="49.5202" lon="0.75934">
        <ele>8.816809</ele>
        <time>2021-09-14T10:24:24.119Z</time>
      </trkpt>
      <trkpt lat="49.52034" lon="0.75943">
        <ele>8.622184</ele>
        <time>2021-09-14T10:24:27.189Z</time>
      </trkpt>
      <trkpt lat="49.52052" lon="0.75887">
        <ele>8.106858</ele>
        <time>2021-09-14T10:24:34.508Z</time>
      </trkpt>
      <trkpt lat="49.52078" lon="0.75829">
        <ele>7.511505</ele>
        <time>2021-09-14T10:24:43.079Z</time>
      </trkpt>
      <trkpt lat="49.5209" lon="0.7581">
        <ele>7.29926</ele>
        <time>2021-09-14T10:24:46.192Z</time>
      </trkpt>
      <trkpt lat="49.52107" lon="0.75786">
        <ele>7.004921</ele>
        <time>2021-09-14T10:24:50.603Z</time>
      </trkpt>
      <trkpt lat="49.52117" lon="0.75773">
        <ele>6.843073</ele>
        <time>2021-09-14T10:24:53.112Z</time>
      </trkpt>
      <trkpt lat="49.52121" lon="0.75768">
        <ele>6.780164</ele>
        <time>2021-09-14T10:24:54.237Z</time>
      </trkpt>
      <trkpt lat="49.52127" lon="0.75759">
        <ele>6.672717</ele>
        <time>2021-09-14T10:24:55.861Z</time>
      </trkpt>
      <trkpt lat="49.52166" lon="0.7571">
        <ele>6.040484</ele>
        <time>2021-09-14T10:25:05.191Z</time>
      </trkpt>
      <trkpt lat="49.52167" lon="0.75709">
        <ele>6.026986</ele>
        <time>2021-09-14T10:25:05.395Z</time>
      </trkpt>
      <trkpt lat="49.52179" lon="0.75691">
        <ele>5.811398</ele>
        <time>2021-09-14T10:25:08.598Z</time>
      </trkpt>
      <trkpt lat="49.5219" lon="0.75676">
        <ele>5.624837</ele>
        <time>2021-09-14T10:25:11.327Z</time>
      </trkpt>
      <trkpt lat="49.52212" lon="0.75645">
        <ele>5.322847</ele>
        <time>2021-09-14T10:25:16.712Z</time>
      </trkpt>
      <trkpt lat="49.52247" lon="0.75574">
        <ele>4.836995</ele>
        <time>2021-09-14T10:25:27.961Z</time>
      </trkpt>
      <trkpt lat="49.52253" lon="0.75558">
        <ele>4.741545</ele>
        <time>2021-09-14T10:25:30.190Z</time>
      </trkpt>
      <trkpt lat="49.52263" lon="0.75524">
        <ele>4.539084</ele>
        <time>2021-09-14T10:25:35.015Z</time>
      </trkpt>
      <trkpt lat="49.52268" lon="0.75503">
        <ele>4.417831</ele>
        <time>2021-09-14T10:25:37.897Z</time>
      </trkpt>
      <trkpt lat="49.5227" lon="0.75497">
        <ele>4.379913</ele>
        <time>2021-09-14T10:25:38.790Z</time>
      </trkpt>
      <trkpt lat="49.52279" lon="0.75452">
        <ele>4.127202</ele>
        <time>2021-09-14T10:25:44.934Z</time>
      </trkpt>
      <trkpt lat="49.52284" lon="0.75426">
        <ele>3.981547</ele>
        <time>2021-09-14T10:25:48.530Z</time>
      </trkpt>
      <trkpt lat="49.52286" lon="0.75417">
        <ele>3.954229</ele>
        <time>2021-09-14T10:25:49.914Z</time>
      </trkpt>
      <trkpt lat="49.52314" lon="0.75273">
        <ele>4.010658</ele>
        <time>2021-09-14T10:26:10.773Z</time>
      </trkpt>
      <trkpt lat="49.5232" lon="0.75183">
        <ele>4.044352</ele>
        <time>2021-09-14T10:26:24.705Z</time>
      </trkpt>
      <trkpt lat="49.5232" lon="0.75178">
        <ele>4.0463</ele>
        <time>2021-09-14T10:26:25.681Z</time>
      </trkpt>
      <trkpt lat="49.52324" lon="0.75058">
        <ele>4.748822</ele>
        <time>2021-09-14T10:26:45.193Z</time>
      </trkpt>
      <trkpt lat="49.52325" lon="0.75022">
        <ele>5.019322</ele>
        <time>2021-09-14T10:26:51.006Z</time>
      </trkpt>
      <trkpt lat="49.52331" lon="0.74987">
        <ele>5.283892</ele>
        <time>2021-09-14T10:26:57.288Z</time>
      </trkpt>
      <trkpt lat="49.52333" lon="0.74977">
        <ele>5.36398</ele>
        <time>2021-09-14T10:26:59.151Z</time>
      </trkpt>
      <trkpt lat="49.52338" lon="0.74974">
        <ele>5.417319</ele>
        <time>2021-09-14T10:27:00.375Z</time>
      </trkpt>
      <trkpt lat="49.52341" lon="0.74969">
        <ele>5.469813</ele>
        <time>2021-09-14T10:27:01.535Z</time>
      </trkpt>
      <trkpt lat="49.52343" lon="0.74963">
        <ele>5.522622</ele>
        <time>2021-09-14T10:27:03.135Z</time>
      </trkpt>
      <trkpt lat="49.52352" lon="0.74974">
        <ele>5.652827</ele>
        <time>2021-09-14T10:27:06.248Z</time>
      </trkpt>
      <trkpt lat="49.52378" lon="0.75046">
        <ele>6.478714</ele>
        <time>2021-09-14T10:27:21.767Z</time>
      </trkpt>
      <trkpt lat="49.52381" lon="0.75051">
        <ele>6.587513</ele>
        <time>2021-09-14T10:27:22.927Z</time>
      </trkpt>
      <trkpt lat="49.52383" lon="0.75046">
        <ele>6.696312</ele>
        <time>2021-09-14T10:27:24.635Z</time>
      </trkpt>
      <trkpt lat="49.52384" lon="0.75021">
        <ele>7.137824</ele>
        <time>2021-09-14T10:27:29.663Z</time>
      </trkpt>
      <trkpt lat="49.52363" lon="0.74942">
        <ele>8.605257</ele>
        <time>2021-09-14T10:27:48.232Z</time>
      </trkpt>
      <trkpt lat="49.52354" lon="0.74888">
        <ele>9.56711</ele>
        <time>2021-09-14T10:28:01.060Z</time>
      </trkpt>
      <trkpt lat="49.52355" lon="0.74849">
        <ele>10.227791</ele>
        <time>2021-09-14T10:28:09.822Z</time>
      </trkpt>
      <trkpt lat="49.52379" lon="0.74712">
        <ele>13.007567</ele>
        <time>2021-09-14T10:28:43.599Z</time>
      </trkpt>
      <trkpt lat="49.52381" lon="0.7467">
        <ele>13.850586</ele>
        <time>2021-09-14T10:28:53.487Z</time>
      </trkpt>
      <trkpt lat="49.52389" lon="0.74505">
        <ele>16.733556</ele>
        <time>2021-09-14T10:29:31.258Z</time>
      </trkpt>
      <trkpt lat="49.524" lon="0.74381">
        <ele>17.475885</ele>
        <time>2021-09-14T10:29:57.844Z</time>
      </trkpt>
      <trkpt lat="49.52403" lon="0.74305">
        <ele>17.930814</ele>
        <time>2021-09-14T10:30:07.931Z</time>
      </trkpt>
      <trkpt lat="49.52414" lon="0.74266">
        <ele>18.15894</ele>
        <time>2021-09-14T10:30:15.146Z</time>
      </trkpt>
      <trkpt lat="49.5246" lon="0.74217">
        <ele>15.943517</ele>
        <time>2021-09-14T10:30:24.781Z</time>
      </trkpt>
      <trkpt lat="49.52471" lon="0.74197">
        <ele>15.264995</ele>
        <time>2021-09-14T10:30:27.670Z</time>
      </trkpt>
      <trkpt lat="49.52465" lon="0.7419">
        <ele>14.954158</ele>
        <time>2021-09-14T10:30:28.781Z</time>
      </trkpt>
      <trkpt lat="49.52448" lon="0.74164">
        <ele>14.029541</ele>
        <time>2021-09-14T10:30:32.733Z</time>
      </trkpt>
      <trkpt lat="49.52409" lon="0.74183">
        <ele>12.396246</ele>
        <time>2021-09-14T10:30:39.280Z</time>
      </trkpt>
      <trkpt lat="49.52388" lon="0.74173">
        <ele>11.545552</ele>
        <time>2021-09-14T10:30:42.630Z</time>
      </trkpt>
      <trkpt lat="49.52385" lon="0.74116">
        <ele>10.2275</ele>
        <time>2021-09-14T10:30:48.468Z</time>
      </trkpt>
      <trkpt lat="49.52376" lon="0.74109">
        <ele>9.88798</ele>
        <time>2021-09-14T10:30:50.031Z</time>
      </trkpt>
      <trkpt lat="49.52375" lon="0.74113">
        <ele>9.797634</ele>
        <time>2021-09-14T10:30:50.550Z</time>
      </trkpt>
      <trkpt lat="49.52372" lon="0.74113">
        <ele>9.672742</ele>
        <time>2021-09-14T10:30:51.236Z</time>
      </trkpt>
      <trkpt lat="49.52363" lon="0.74111">
        <ele>9.372194</ele>
        <time>2021-09-14T10:30:53.014Z</time>
      </trkpt>
      <trkpt lat="49.52356" lon="0.7411">
        <ele>9.13599</ele>
        <time>2021-09-14T10:30:54.596Z</time>
      </trkpt>
      <trkpt lat="49.52382" lon="0.7394">
        <ele>5.328893</ele>
        <time>2021-09-14T10:31:13.306Z</time>
      </trkpt>
      <trkpt lat="49.52394" lon="0.73837">
        <ele>5.018649</ele>
        <time>2021-09-14T10:31:27.856Z</time>
      </trkpt>
      <trkpt lat="49.52409" lon="0.7361">
        <ele>5.069643</ele>
        <time>2021-09-14T10:32:04.325Z</time>
      </trkpt>
      <trkpt lat="49.52417" lon="0.73324">
        <ele>5.303577</ele>
        <time>2021-09-14T10:32:46.482Z</time>
      </trkpt>
      <trkpt lat="49.52423" lon="0.72986">
        <ele>4.461969</ele>
        <time>2021-09-14T10:33:32.413Z</time>
      </trkpt>
      <trkpt lat="49.52426" lon="0.72838">
        <ele>3.889797</ele>
        <time>2021-09-14T10:33:51.259Z</time>
      </trkpt>
      <trkpt lat="49.5243" lon="0.7283">
        <ele>3.851227</ele>
        <time>2021-09-14T10:33:52.558Z</time>
      </trkpt>
      <trkpt lat="49.52442" lon="0.72828">
        <ele>3.83222</ele>
        <time>2021-09-14T10:33:55.152Z</time>
      </trkpt>
      <trkpt lat="49.52446" lon="0.7282">
        <ele>3.837942</ele>
        <time>2021-09-14T10:33:56.530Z</time>
      </trkpt>
      <trkpt lat="49.52446" lon="0.72815">
        <ele>3.840843</ele>
        <time>2021-09-14T10:33:57.161Z</time>
      </trkpt>
      <trkpt lat="49.52445" lon="0.72806">
        <ele>3.846234</ele>
        <time>2021-09-14T10:33:58.413Z</time>
      </trkpt>
      <trkpt lat="49.52439" lon="0.72781">
        <ele>3.861015</ele>
        <time>2021-09-14T10:34:01.949Z</time>
      </trkpt>
      <trkpt lat="49.52438" lon="0.72762">
        <ele>3.871912</ele>
        <time>2021-09-14T10:34:04.645Z</time>
      </trkpt>
      <trkpt lat="49.52437" lon="0.7274">
        <ele>3.884594</ele>
        <time>2021-09-14T10:34:07.704Z</time>
      </trkpt>
      <trkpt lat="49.52437" lon="0.72648">
        <ele>3.937515</ele>
        <time>2021-09-14T10:34:20.946Z</time>
      </trkpt>
      <trkpt lat="49.52438" lon="0.72597">
        <ele>3.966476</ele>
        <time>2021-09-14T10:34:28.839Z</time>
      </trkpt>
      <trkpt lat="49.52439" lon="0.72502">
        <ele>4.598995</ele>
        <time>2021-09-14T10:34:45.251Z</time>
      </trkpt>
      <trkpt lat="49.5244" lon="0.72446">
        <ele>5.124987</ele>
        <time>2021-09-14T10:34:55.719Z</time>
      </trkpt>
      <trkpt lat="49.52441" lon="0.72418">
        <ele>5.389817</ele>
        <time>2021-09-14T10:35:01.313Z</time>
      </trkpt>
      <trkpt lat="49.52444" lon="0.72397">
        <ele>5.59763</ele>
        <time>2021-09-14T10:35:05.305Z</time>
      </trkpt>
      <trkpt lat="49.52448" lon="0.7238">
        <ele>5.762852</ele>
        <time>2021-09-14T10:35:08.914Z</time>
      </trkpt>
      <trkpt lat="49.52463" lon="0.72329">
        <ele>6.30242</ele>
        <time>2021-09-14T10:35:19.572Z</time>
      </trkpt>
      <trkpt lat="49.5247" lon="0.72302">
        <ele>6.566346</ele>
        <time>2021-09-14T10:35:24.567Z</time>
      </trkpt>
      <trkpt lat="49.52476" lon="0.72285">
        <ele>6.640318</ele>
        <time>2021-09-14T10:35:28.084Z</time>
      </trkpt>
      <trkpt lat="49.52478" lon="0.7228">
        <ele>6.653052</ele>
        <time>2021-09-14T10:35:29.358Z</time>
      </trkpt>
      <trkpt lat="49.52481" lon="0.72264">
        <ele>6.68872</ele>
        <time>2021-09-14T10:35:32.339Z</time>
      </trkpt>
      <trkpt lat="49.52478" lon="0.72223">
        <ele>6.78112</ele>
        <time>2021-09-14T10:35:39.726Z</time>
      </trkpt>
      <trkpt lat="49.52473" lon="0.72182">
        <ele>6.870567</ele>
        <time>2021-09-14T10:35:46.476Z</time>
      </trkpt>
      <trkpt lat="49.52472" lon="0.7216">
        <ele>6.919306</ele>
        <time>2021-09-14T10:35:50.294Z</time>
      </trkpt>
      <trkpt lat="49.52463" lon="0.72083">
        <ele>7.091194</ele>
        <time>2021-09-14T10:36:01.363Z</time>
      </trkpt>
      <trkpt lat="49.52458" lon="0.72044">
        <ele>7.179995</ele>
        <time>2021-09-14T10:36:06.344Z</time>
      </trkpt>
      <trkpt lat="49.52453" lon="0.72015">
        <ele>7.138979</ele>
        <time>2021-09-14T10:36:10.051Z</time>
      </trkpt>
      <trkpt lat="49.52447" lon="0.71981">
        <ele>6.945095</ele>
        <time>2021-09-14T10:36:14.291Z</time>
      </trkpt>
      <trkpt lat="49.52434" lon="0.71913">
        <ele>6.551885</ele>
        <time>2021-09-14T10:36:23.429Z</time>
      </trkpt>
      <trkpt lat="49.52427" lon="0.71891">
        <ele>6.41807</ele>
        <time>2021-09-14T10:36:26.568Z</time>
      </trkpt>
      <trkpt lat="49.52405" lon="0.71853">
        <ele>6.138994</ele>
        <time>2021-09-14T10:36:33.109Z</time>
      </trkpt>
      <trkpt lat="49.52399" lon="0.71842">
        <ele>6.060236</ele>
        <time>2021-09-14T10:36:34.663Z</time>
      </trkpt>
      <trkpt lat="49.52393" lon="0.71815">
        <ele>5.905732</ele>
        <time>2021-09-14T10:36:38.580Z</time>
      </trkpt>
      <trkpt lat="49.52386" lon="0.71743">
        <ele>5.662343</ele>
        <time>2021-09-14T10:36:47.892Z</time>
      </trkpt>
      <trkpt lat="49.52397" lon="0.71713">
        <ele>5.633224</ele>
        <time>2021-09-14T10:36:52.582Z</time>
      </trkpt>
      <trkpt lat="49.52399" lon="0.7159">
        <ele>5.529523</ele>
        <time>2021-09-14T10:37:10.976Z</time>
      </trkpt>
      <trkpt lat="49.52384" lon="0.71431">
        <ele>5.204923</ele>
        <time>2021-09-14T10:37:34.313Z</time>
      </trkpt>
      <trkpt lat="49.52334" lon="0.71148">
        <ele>4.086918</ele>
        <time>2021-09-14T10:38:12.079Z</time>
      </trkpt>
      <trkpt lat="49.52328" lon="0.71115">
        <ele>3.918465</ele>
        <time>2021-09-14T10:38:16.523Z</time>
      </trkpt>
      <trkpt lat="49.52323" lon="0.71084">
        <ele>3.761633</ele>
        <time>2021-09-14T10:38:20.587Z</time>
      </trkpt>
      <trkpt lat="49.52277" lon="0.70842">
        <ele>2.634212</ele>
        <time>2021-09-14T10:38:53.236Z</time>
      </trkpt>
      <trkpt lat="49.5226" lon="0.7078">
        <ele>2.355247</ele>
        <time>2021-09-14T10:39:02.082Z</time>
      </trkpt>
      <trkpt lat="49.52241" lon="0.70685">
        <ele>1.980901</ele>
        <time>2021-09-14T10:39:15.207Z</time>
      </trkpt>
      <trkpt lat="49.52175" lon="0.70337">
        <ele>1.424877</ele>
        <time>2021-09-14T10:40:04.527Z</time>
      </trkpt>
      <trkpt lat="49.52044" lon="0.69687">
        <ele>2.596964</ele>
        <time>2021-09-14T10:41:47.008Z</time>
      </trkpt>
      <trkpt lat="49.5201" lon="0.69519">
        <ele>3.925105</ele>
        <time>2021-09-14T10:42:20.102Z</time>
      </trkpt>
      <trkpt lat="49.51989" lon="0.6942">
        <ele>4.843646</ele>
        <time>2021-09-14T10:42:39.793Z</time>
      </trkpt>
      <trkpt lat="49.51974" lon="0.692">
        <ele>5.26871</ele>
        <time>2021-09-14T10:43:14.383Z</time>
      </trkpt>
      <trkpt lat="49.51923" lon="0.68977">
        <ele>4.280888</ele>
        <time>2021-09-14T10:43:44.470Z</time>
      </trkpt>
      <trkpt lat="49.51905" lon="0.68848">
        <ele>3.329227</ele>
        <time>2021-09-14T10:44:00.267Z</time>
      </trkpt>
      <trkpt lat="49.51895" lon="0.68807">
        <ele>3.047925</ele>
        <time>2021-09-14T10:44:05.554Z</time>
      </trkpt>
      <trkpt lat="49.51865" lon="0.68628">
        <ele>1.878843</ele>
        <time>2021-09-14T10:44:28.406Z</time>
      </trkpt>
      <trkpt lat="49.5184" lon="0.68534">
        <ele>1.607174</ele>
        <time>2021-09-14T10:44:42.220Z</time>
      </trkpt>
      <trkpt lat="49.51818" lon="0.68494">
        <ele>1.671689</ele>
        <time>2021-09-14T10:44:49.734Z</time>
      </trkpt>
      <trkpt lat="49.51803" lon="0.68432">
        <ele>1.753686</ele>
        <time>2021-09-14T10:44:59.694Z</time>
      </trkpt>
      <trkpt lat="49.51803" lon="0.68341">
        <ele>1.866544</ele>
        <time>2021-09-14T10:45:14.232Z</time>
      </trkpt>
      <trkpt lat="49.51795" lon="0.68276">
        <ele>2.061482</ele>
        <time>2021-09-14T10:45:25.055Z</time>
      </trkpt>
      <trkpt lat="49.51779" lon="0.68214">
        <ele>2.303682</ele>
        <time>2021-09-14T10:45:36.112Z</time>
      </trkpt>
      <trkpt lat="49.51726" lon="0.68092">
        <ele>2.831486</ele>
        <time>2021-09-14T10:45:59.303Z</time>
      </trkpt>
      <trkpt lat="49.51683" lon="0.68032">
        <ele>2.856647</ele>
        <time>2021-09-14T10:46:12.559Z</time>
      </trkpt>
      <trkpt lat="49.51645" lon="0.67949">
        <ele>2.812847</ele>
        <time>2021-09-14T10:46:27.033Z</time>
      </trkpt>
      <trkpt lat="49.51636" lon="0.67934">
        <ele>2.804504</ele>
        <time>2021-09-14T10:46:29.741Z</time>
      </trkpt>
      <trkpt lat="49.51624" lon="0.67925">
        <ele>2.795492</ele>
        <time>2021-09-14T10:46:32.643Z</time>
      </trkpt>
      <trkpt lat="49.51611" lon="0.67918">
        <ele>2.786535</ele>
        <time>2021-09-14T10:46:35.467Z</time>
      </trkpt>
      <trkpt lat="49.51589" lon="0.679">
        <ele>2.769926</ele>
        <time>2021-09-14T10:46:40.706Z</time>
      </trkpt>
      <trkpt lat="49.51445" lon="0.67675">
        <ele>2.645928</ele>
        <time>2021-09-14T10:47:25.440Z</time>
      </trkpt>
      <trkpt lat="49.51431" lon="0.67656">
        <ele>2.686383</ele>
        <time>2021-09-14T10:47:29.962Z</time>
      </trkpt>
      <trkpt lat="49.51395" lon="0.67612">
        <ele>2.785502</ele>
        <time>2021-09-14T10:47:41.035Z</time>
      </trkpt>
      <trkpt lat="49.51317" lon="0.67519">
        <ele>2.965463</ele>
        <time>2021-09-14T10:48:04.058Z</time>
      </trkpt>
      <trkpt lat="49.51299" lon="0.675">
        <ele>2.927353</ele>
        <time>2021-09-14T10:48:08.885Z</time>
      </trkpt>
      <trkpt lat="49.5128" lon="0.67481">
        <ele>2.886481</ele>
        <time>2021-09-14T10:48:13.680Z</time>
      </trkpt>
      <trkpt lat="49.51222" lon="0.67425">
        <ele>2.764161</ele>
        <time>2021-09-14T10:48:28.195Z</time>
      </trkpt>
      <trkpt lat="49.51182" lon="0.6739">
        <ele>2.681195</ele>
        <time>2021-09-14T10:48:38.041Z</time>
      </trkpt>
      <trkpt lat="49.51139" lon="0.67355">
        <ele>2.65802</ele>
        <time>2021-09-14T10:48:48.098Z</time>
      </trkpt>
      <trkpt lat="49.5105" lon="0.67288">
        <ele>2.653906</ele>
        <time>2021-09-14T10:49:10.543Z</time>
      </trkpt>
      <trkpt lat="49.50993" lon="0.67253">
        <ele>2.623627</ele>
        <time>2021-09-14T10:49:24.498Z</time>
      </trkpt>
      <trkpt lat="49.50925" lon="0.67211">
        <ele>2.500012</ele>
        <time>2021-09-14T10:49:40.854Z</time>
      </trkpt>
      <trkpt lat="49.50885" lon="0.67191">
        <ele>2.42943</ele>
        <time>2021-09-14T10:49:49.889Z</time>
      </trkpt>
      <trkpt lat="49.50711" lon="0.67114">
        <ele>1.786467</ele>
        <time>2021-09-14T10:50:27.054Z</time>
      </trkpt>
      <trkpt lat="49.5071" lon="0.67101">
        <ele>1.750463</ele>
        <time>2021-09-14T10:50:28.915Z</time>
      </trkpt>
      <trkpt lat="49.50697" lon="0.67101">
        <ele>1.693262</ele>
        <time>2021-09-14T10:50:31.733Z</time>
      </trkpt>
      <trkpt lat="49.50675" lon="0.67095">
        <ele>1.599836</ele>
        <time>2021-09-14T10:50:36.452Z</time>
      </trkpt>
      <trkpt lat="49.50387" lon="0.66975">
        <ele>0.613441</ele>
        <time>2021-09-14T10:51:39.152Z</time>
      </trkpt>
      <trkpt lat="49.50343" lon="0.66957">
        <ele>0.466072</ele>
        <time>2021-09-14T10:51:48.708Z</time>
      </trkpt>
      <trkpt lat="49.50338" lon="0.66958">
        <ele>0.448854</ele>
        <time>2021-09-14T10:51:49.772Z</time>
      </trkpt>
      <trkpt lat="49.50182" lon="0.66891">
        <ele>0.225967</ele>
        <time>2021-09-14T10:52:24.665Z</time>
      </trkpt>
      <trkpt lat="49.50113" lon="0.66866">
        <ele>0.302549</ele>
        <time>2021-09-14T10:52:40.943Z</time>
      </trkpt>
      <trkpt lat="49.49573" lon="0.66632">
        <ele>1.939965</ele>
        <time>2021-09-14T10:54:52.730Z</time>
      </trkpt>
      <trkpt lat="49.49416" lon="0.66592">
        <ele>2.216615</ele>
        <time>2021-09-14T10:55:29.438Z</time>
      </trkpt>
      <trkpt lat="49.49413" lon="0.66591">
        <ele>2.216998</ele>
        <time>2021-09-14T10:55:30.328Z</time>
      </trkpt>
      <trkpt lat="49.49302" lon="0.66573">
        <ele>2.230239</ele>
        <time>2021-09-14T10:55:55.031Z</time>
      </trkpt>
      <trkpt lat="49.49292" lon="0.66571">
        <ele>2.231361</ele>
        <time>2021-09-14T10:55:56.853Z</time>
      </trkpt>
      <trkpt lat="49.48728" lon="0.6651">
        <ele>2.333724</ele>
        <time>2021-09-14T10:58:01.897Z</time>
      </trkpt>
      <trkpt lat="49.48713" lon="0.66509">
        <ele>2.47886</ele>
        <time>2021-09-14T10:58:05.757Z</time>
      </trkpt>
      <trkpt lat="49.48467" lon="0.66486">
        <ele>4.385666</ele>
        <time>2021-09-14T10:59:11.847Z</time>
      </trkpt>
      <trkpt lat="49.47267" lon="0.66367">
        <ele>2.640376</ele>
        <time>2021-09-14T11:03:30.779Z</time>
      </trkpt>
      <trkpt lat="49.4688" lon="0.66326">
        <ele>1.327172</ele>
        <time>2021-09-14T11:04:52.007Z</time>
      </trkpt>
      <trkpt lat="49.46865" lon="0.66318">
        <ele>1.279429</ele>
        <time>2021-09-14T11:04:55.228Z</time>
      </trkpt>
      <trkpt lat="49.467" lon="0.66299">
        <ele>1.0233</ele>
        <time>2021-09-14T11:05:30.452Z</time>
      </trkpt>
      <trkpt lat="49.46522" lon="0.6627">
        <ele>1.308603</ele>
        <time>2021-09-14T11:06:12.341Z</time>
      </trkpt>
      <trkpt lat="49.46466" lon="0.66258">
        <ele>1.470414</ele>
        <time>2021-09-14T11:06:26.374Z</time>
      </trkpt>
      <trkpt lat="49.46232" lon="0.66204">
        <ele>1.632319</ele>
        <time>2021-09-14T11:07:19.601Z</time>
      </trkpt>
      <trkpt lat="49.46168" lon="0.66187">
        <ele>1.290269</ele>
        <time>2021-09-14T11:07:32.655Z</time>
      </trkpt>
      <trkpt lat="49.46098" lon="0.66157">
        <ele>0.892933</ele>
        <time>2021-09-14T11:07:47.215Z</time>
      </trkpt>
      <trkpt lat="49.46023" lon="0.6612">
        <ele>0.654537</ele>
        <time>2021-09-14T11:08:03.249Z</time>
      </trkpt>
      <trkpt lat="49.45875" lon="0.66021">
        <ele>0.680556</ele>
        <time>2021-09-14T11:08:40.303Z</time>
      </trkpt>
      <trkpt lat="49.45733" lon="0.65891">
        <ele>0.886164</ele>
        <time>2021-09-14T11:09:17.634Z</time>
      </trkpt>
      <trkpt lat="49.45599" lon="0.65731">
        <ele>1.079434</ele>
        <time>2021-09-14T11:09:55.807Z</time>
      </trkpt>
      <trkpt lat="49.45496" lon="0.65595">
        <ele>1.555044</ele>
        <time>2021-09-14T11:10:28.026Z</time>
      </trkpt>
      <trkpt lat="49.45306" lon="0.65325">
        <ele>2.47367</ele>
        <time>2021-09-14T11:11:30.242Z</time>
      </trkpt>
      <trkpt lat="49.4508" lon="0.64969">
        <ele>2.011781</ele>
        <time>2021-09-14T11:12:39.596Z</time>
      </trkpt>
      <trkpt lat="49.44603" lon="0.64107">
        <ele>3.054713</ele>
        <time>2021-09-14T11:15:28.431Z</time>
      </trkpt>
      <trkpt lat="49.44309" lon="0.63589">
        <ele>1.595344</ele>
        <time>2021-09-14T11:17:01.287Z</time>
      </trkpt>
      <trkpt lat="49.43902" lon="0.6286">
        <ele>1.66023</ele>
        <time>2021-09-14T11:19:21.366Z</time>
      </trkpt>
      <trkpt lat="49.43861" lon="0.62778">
        <ele>1.826252</ele>
        <time>2021-09-14T11:19:36.786Z</time>
      </trkpt>
      <trkpt lat="49.43839" lon="0.62718">
        <ele>1.940481</ele>
        <time>2021-09-14T11:19:47.273Z</time>
      </trkpt>
      <trkpt lat="49.43788" lon="0.62632">
        <ele>2.142652</ele>
        <time>2021-09-14T11:20:05.152Z</time>
      </trkpt>
      <trkpt lat="49.43726" lon="0.62524">
        <ele>2.534463</ele>
        <time>2021-09-14T11:20:27.232Z</time>
      </trkpt>
      <trkpt lat="49.43715" lon="0.62505">
        <ele>2.606046</ele>
        <time>2021-09-14T11:20:31.347Z</time>
      </trkpt>
      <trkpt lat="49.43651" lon="0.62362">
        <ele>3.048795</ele>
        <time>2021-09-14T11:20:58.593Z</time>
      </trkpt>
      <trkpt lat="49.43537" lon="0.62071">
        <ele>3.610784</ele>
        <time>2021-09-14T11:21:50.638Z</time>
      </trkpt>
      <trkpt lat="49.43479" lon="0.61902">
        <ele>3.612604</ele>
        <time>2021-09-14T11:22:17.638Z</time>
      </trkpt>
      <trkpt lat="49.43429" lon="0.61731">
        <ele>3.280226</ele>
        <time>2021-09-14T11:22:43.386Z</time>
      </trkpt>
      <trkpt lat="49.43358" lon="0.61441">
        <ele>2.642797</ele>
        <time>2021-09-14T11:23:25.786Z</time>
      </trkpt>
      <trkpt lat="49.43337" lon="0.61332">
        <ele>2.627311</ele>
        <time>2021-09-14T11:23:41.622Z</time>
      </trkpt>
      <trkpt lat="49.43335" lon="0.61318">
        <ele>2.625665</ele>
        <time>2021-09-14T11:23:43.676Z</time>
      </trkpt>
      <trkpt lat="49.43304" lon="0.61129">
        <ele>2.777853</ele>
        <time>2021-09-14T11:24:12.472Z</time>
      </trkpt>
      <trkpt lat="49.43269" lon="0.60823">
        <ele>4.076773</ele>
        <time>2021-09-14T11:25:03.202Z</time>
      </trkpt>
      <trkpt lat="49.43254" lon="0.60609">
        <ele>5.172419</ele>
        <time>2021-09-14T11:25:39.112Z</time>
      </trkpt>
      <trkpt lat="49.43258" lon="0.60594">
        <ele>5.207753</ele>
        <time>2021-09-14T11:25:41.779Z</time>
      </trkpt>
      <trkpt lat="49.43276" lon="0.6055">
        <ele>5.323281</ele>
        <time>2021-09-14T11:25:50.678Z</time>
      </trkpt>
      <trkpt lat="49.43283" lon="0.60515">
        <ele>5.405093</ele>
        <time>2021-09-14T11:25:56.894Z</time>
      </trkpt>
      <trkpt lat="49.43299" lon="0.60176">
        <ele>5.572958</ele>
        <time>2021-09-14T11:26:48.434Z</time>
      </trkpt>
      <trkpt lat="49.43319" lon="0.59933">
        <ele>5.018067</ele>
        <time>2021-09-14T11:27:22.507Z</time>
      </trkpt>
      <trkpt lat="49.43374" lon="0.59635">
        <ele>4.235533</ele>
        <time>2021-09-14T11:28:06.137Z</time>
      </trkpt>
      <trkpt lat="49.43393" lon="0.59588">
        <ele>4.1137</ele>
        <time>2021-09-14T11:28:14.341Z</time>
      </trkpt>
      <trkpt lat="49.43483" lon="0.59464">
        <ele>4.071227</ele>
        <time>2021-09-14T11:28:42.204Z</time>
      </trkpt>
      <trkpt lat="49.43624" lon="0.59322">
        <ele>4.04114</ele>
        <time>2021-09-14T11:29:21.934Z</time>
      </trkpt>
      <trkpt lat="49.43643" lon="0.59308">
        <ele>4.027504</ele>
        <time>2021-09-14T11:29:26.722Z</time>
      </trkpt>
      <trkpt lat="49.43659" lon="0.59302">
        <ele>4.016954</ele>
        <time>2021-09-14T11:29:30.514Z</time>
      </trkpt>
      <trkpt lat="49.43837" lon="0.59392">
        <ele>3.579365</ele>
        <time>2021-09-14T11:30:11.638Z</time>
      </trkpt>
      <trkpt lat="49.44015" lon="0.59485">
        <ele>3.366372</ele>
        <time>2021-09-14T11:30:54.002Z</time>
      </trkpt>
      <trkpt lat="49.44029" lon="0.59486">
        <ele>3.359256</ele>
        <time>2021-09-14T11:30:57.490Z</time>
      </trkpt>
      <trkpt lat="49.44046" lon="0.59479">
        <ele>3.351114</ele>
        <time>2021-09-14T11:31:01.464Z</time>
      </trkpt>
      <trkpt lat="49.44147" lon="0.59385">
        <ele>3.687658</ele>
        <time>2021-09-14T11:31:30.393Z</time>
      </trkpt>
      <trkpt lat="49.44248" lon="0.59302">
        <ele>4.048178</ele>
        <time>2021-09-14T11:31:58.649Z</time>
      </trkpt>
      <trkpt lat="49.4435" lon="0.59228">
        <ele>4.41782</ele>
        <time>2021-09-14T11:32:26.245Z</time>
      </trkpt>
      <trkpt lat="49.44428" lon="0.59157">
        <ele>4.517499</ele>
        <time>2021-09-14T11:32:47.880Z</time>
      </trkpt>
      <trkpt lat="49.44535" lon="0.5954">
        <ele>4.441652</ele>
        <time>2021-09-14T11:33:50.095Z</time>
      </trkpt>
      <trkpt lat="49.44547" lon="0.59591">
        <ele>4.40031</ele>
        <time>2021-09-14T11:33:57.980Z</time>
      </trkpt>
      <trkpt lat="49.44552" lon="0.59591">
        <ele>4.390598</ele>
        <time>2021-09-14T11:33:59.208Z</time>
      </trkpt>
      <trkpt lat="49.44694" lon="0.59504">
        <ele>4.116311</ele>
        <time>2021-09-14T11:34:33.460Z</time>
      </trkpt>
      <trkpt lat="49.44712" lon="0.59505">
        <ele>4.084595</ele>
        <time>2021-09-14T11:34:37.373Z</time>
      </trkpt>
      <trkpt lat="49.45001" lon="0.5933">
        <ele>3.541216</ele>
        <time>2021-09-14T11:35:47.241Z</time>
      </trkpt>
      <trkpt lat="49.45017" lon="0.59321">
        <ele>3.512718</ele>
        <time>2021-09-14T11:35:51.136Z</time>
      </trkpt>
      <trkpt lat="49.45095" lon="0.59289">
        <ele>3.509475</ele>
        <time>2021-09-14T11:36:09.648Z</time>
      </trkpt>
      <trkpt lat="49.45167" lon="0.59254">
        <ele>3.549398</ele>
        <time>2021-09-14T11:36:27.470Z</time>
      </trkpt>
      <trkpt lat="49.45208" lon="0.59255">
        <ele>3.570965</ele>
        <time>2021-09-14T11:36:37.285Z</time>
      </trkpt>
      <trkpt lat="49.45248" lon="0.59266">
        <ele>3.592845</ele>
        <time>2021-09-14T11:36:46.787Z</time>
      </trkpt>
      <trkpt lat="49.4529" lon="0.59296">
        <ele>3.618621</ele>
        <time>2021-09-14T11:36:57.847Z</time>
      </trkpt>
      <trkpt lat="49.45322" lon="0.59293">
        <ele>3.635677</ele>
        <time>2021-09-14T11:37:05.126Z</time>
      </trkpt>
      <trkpt lat="49.45346" lon="0.59269">
        <ele>3.651575</ele>
        <time>2021-09-14T11:37:11.896Z</time>
      </trkpt>
      <trkpt lat="49.45377" lon="0.5922">
        <ele>3.660309</ele>
        <time>2021-09-14T11:37:22.053Z</time>
      </trkpt>
      <trkpt lat="49.45414" lon="0.59134">
        <ele>3.560186</ele>
        <time>2021-09-14T11:37:37.254Z</time>
      </trkpt>
      <trkpt lat="49.45432" lon="0.5907">
        <ele>3.492801</ele>
        <time>2021-09-14T11:37:47.380Z</time>
      </trkpt>
      <trkpt lat="49.45466" lon="0.59009">
        <ele>3.414629</ele>
        <time>2021-09-14T11:37:59.185Z</time>
      </trkpt>
      <trkpt lat="49.45503" lon="0.58911">
        <ele>3.382622</ele>
        <time>2021-09-14T11:38:15.881Z</time>
      </trkpt>
      <trkpt lat="49.45665" lon="0.58619">
        <ele>3.490539</ele>
        <time>2021-09-14T11:39:14.150Z</time>
      </trkpt>
      <trkpt lat="49.45698" lon="0.58568">
        <ele>3.552911</ele>
        <time>2021-09-14T11:39:25.304Z</time>
      </trkpt>
      <trkpt lat="49.45814" lon="0.58465">
        <ele>4.236426</ele>
        <time>2021-09-14T11:39:58.194Z</time>
      </trkpt>
      <trkpt lat="49.45814" lon="0.58465">
        <ele>4.236426</ele>
        <time>2021-09-14T11:39:58.196Z</time>
      </trkpt>
      <trkpt lat="49.45865" lon="0.58431">
        <ele>4.675059</ele>
        <time>2021-09-14T11:40:13.067Z</time>
      </trkpt>
      <trkpt lat="49.45874" lon="0.58395">
        <ele>5.109296</ele>
        <time>2021-09-14T11:40:19.792Z</time>
      </trkpt>
      <trkpt lat="49.45875" lon="0.58385">
        <ele>5.226019</ele>
        <time>2021-09-14T11:40:21.920Z</time>
      </trkpt>
      <trkpt lat="49.45877" lon="0.58369">
        <ele>5.405489</ele>
        <time>2021-09-14T11:40:24.850Z</time>
      </trkpt>
      <trkpt lat="49.45888" lon="0.58324">
        <ele>5.940484</ele>
        <time>2021-09-14T11:40:33.838Z</time>
      </trkpt>
      <trkpt lat="49.45905" lon="0.58289">
        <ele>6.432046</ele>
        <time>2021-09-14T11:40:42.274Z</time>
      </trkpt>
      <trkpt lat="49.45921" lon="0.58273">
        <ele>6.758495</ele>
        <time>2021-09-14T11:40:48.281Z</time>
      </trkpt>
      <trkpt lat="49.45929" lon="0.58274">
        <ele>6.901022</ele>
        <time>2021-09-14T11:40:50.872Z</time>
      </trkpt>
      <trkpt lat="49.45957" lon="0.58303">
        <ele>7.48407</ele>
        <time>2021-09-14T11:41:02.407Z</time>
      </trkpt>
      <trkpt lat="49.46025" lon="0.5838">
        <ele>9.583326</ele>
        <time>2021-09-14T11:41:31.426Z</time>
      </trkpt>
      <trkpt lat="49.46075" lon="0.58446">
        <ele>11.268433</ele>
        <time>2021-09-14T11:41:53.699Z</time>
      </trkpt>
      <trkpt lat="49.46105" lon="0.58383">
        <ele>12.457561</ele>
        <time>2021-09-14T11:42:09.790Z</time>
      </trkpt>
      <trkpt lat="49.46145" lon="0.58251">
        <ele>14.343863</ele>
        <time>2021-09-14T11:42:40.338Z</time>
      </trkpt>
      <trkpt lat="49.46169" lon="0.58153">
        <ele>15.695032</ele>
        <time>2021-09-14T11:43:01.126Z</time>
      </trkpt>
      <trkpt lat="49.4618" lon="0.58147">
        <ele>15.735653</ele>
        <time>2021-09-14T11:43:03.713Z</time>
      </trkpt>
      <trkpt lat="49.46185" lon="0.58155">
        <ele>15.764621</ele>
        <time>2021-09-14T11:43:06.655Z</time>
      </trkpt>
      <trkpt lat="49.4624" lon="0.58261">
        <ele>16.092315</ele>
        <time>2021-09-14T11:43:29.337Z</time>
      </trkpt>
      <trkpt lat="49.4624" lon="0.58262">
        <ele>16.095694</ele>
        <time>2021-09-14T11:43:29.598Z</time>
      </trkpt>
      <trkpt lat="49.46238" lon="0.58268">
        <ele>16.109889</ele>
        <time>2021-09-14T11:43:30.416Z</time>
      </trkpt>
      <trkpt lat="49.46239" lon="0.58271">
        <ele>16.117445</ele>
        <time>2021-09-14T11:43:30.897Z</time>
      </trkpt>
      <trkpt lat="49.4624" lon="0.58272">
        <ele>16.120902</ele>
        <time>2021-09-14T11:43:31.090Z</time>
      </trkpt>
      <trkpt lat="49.4624" lon="0.58273">
        <ele>16.124784</ele>
        <time>2021-09-14T11:43:31.249Z</time>
      </trkpt>
      <trkpt lat="49.46246" lon="0.58274">
        <ele>16.146279</ele>
        <time>2021-09-14T11:43:32.890Z</time>
      </trkpt>
      <trkpt lat="49.46247" lon="0.58273">
        <ele>16.150096</ele>
        <time>2021-09-14T11:43:33.132Z</time>
      </trkpt>
      <trkpt lat="49.46248" lon="0.58271">
        <ele>16.153935</ele>
        <time>2021-09-14T11:43:33.464Z</time>
      </trkpt>
      <trkpt lat="49.46247" lon="0.58263">
        <ele>16.173438</ele>
        <time>2021-09-14T11:43:35.115Z</time>
      </trkpt>
      <trkpt lat="49.46247" lon="0.58262">
        <ele>16.176895</ele>
        <time>2021-09-14T11:43:35.308Z</time>
      </trkpt>
      <trkpt lat="49.46252" lon="0.58255">
        <ele>16.20226</ele>
        <time>2021-09-14T11:43:36.568Z</time>
      </trkpt>
      <trkpt lat="49.46374" lon="0.58141">
        <ele>15.130463</ele>
        <time>2021-09-14T11:44:04.090Z</time>
      </trkpt>
      <trkpt lat="49.46455" lon="0.58093">
        <ele>14.05334</ele>
        <time>2021-09-14T11:44:19.934Z</time>
      </trkpt>
      <trkpt lat="49.46463" lon="0.58091">
        <ele>13.933972</ele>
        <time>2021-09-14T11:44:21.223Z</time>
      </trkpt>
      <trkpt lat="49.46464" lon="0.58093">
        <ele>13.905258</ele>
        <time>2021-09-14T11:44:21.634Z</time>
      </trkpt>
      <trkpt lat="49.46467" lon="0.58096">
        <ele>13.849688</ele>
        <time>2021-09-14T11:44:22.359Z</time>
      </trkpt>
      <trkpt lat="49.46469" lon="0.58096">
        <ele>13.820162</ele>
        <time>2021-09-14T11:44:22.764Z</time>
      </trkpt>
      <trkpt lat="49.4647" lon="0.58095">
        <ele>13.792645</ele>
        <time>2021-09-14T11:44:23.066Z</time>
      </trkpt>
      <trkpt lat="49.46472" lon="0.5809">
        <ele>13.738698</ele>
        <time>2021-09-14T11:44:23.654Z</time>
      </trkpt>
      <trkpt lat="49.46472" lon="0.58087">
        <ele>13.71253</ele>
        <time>2021-09-14T11:44:23.958Z</time>
      </trkpt>
      <trkpt lat="49.46483" lon="0.58084">
        <ele>13.539083</ele>
        <time>2021-09-14T11:44:26.129Z</time>
      </trkpt>
      <trkpt lat="49.46532" lon="0.58076">
        <ele>12.76852</ele>
        <time>2021-09-14T11:44:35.294Z</time>
      </trkpt>
      <trkpt lat="49.46609" lon="0.58065">
        <ele>11.579116</ele>
        <time>2021-09-14T11:44:49.752Z</time>
      </trkpt>
      <trkpt lat="49.46613" lon="0.58065">
        <ele>11.515447</ele>
        <time>2021-09-14T11:44:50.380Z</time>
      </trkpt>
      <trkpt lat="49.46752" lon="0.58045">
        <ele>8.614175</ele>
        <time>2021-09-14T11:45:14.963Z</time>
      </trkpt>
      <trkpt lat="49.46757" lon="0.58044">
        <ele>8.503949</ele>
        <time>2021-09-14T11:45:15.735Z</time>
      </trkpt>
      <trkpt lat="49.46804" lon="0.58037">
        <ele>7.519547</ele>
        <time>2021-09-14T11:45:23.928Z</time>
      </trkpt>
      <trkpt lat="49.46832" lon="0.58031">
        <ele>7.048253</ele>
        <time>2021-09-14T11:45:28.556Z</time>
      </trkpt>
      <trkpt lat="49.46905" lon="0.58006">
        <ele>5.756691</ele>
        <time>2021-09-14T11:45:41.428Z</time>
      </trkpt>
      <trkpt lat="49.46957" lon="0.57975">
        <ele>4.796965</ele>
        <time>2021-09-14T11:45:51.796Z</time>
      </trkpt>
      <trkpt lat="49.46978" lon="0.57961">
        <ele>4.559291</ele>
        <time>2021-09-14T11:45:56.328Z</time>
      </trkpt>
      <trkpt lat="49.47033" lon="0.57923">
        <ele>5.113645</ele>
        <time>2021-09-14T11:46:11.259Z</time>
      </trkpt>
      <trkpt lat="49.47107" lon="0.57872">
        <ele>5.858902</ele>
        <time>2021-09-14T11:46:33.365Z</time>
      </trkpt>
      <trkpt lat="49.4715" lon="0.57842">
        <ele>6.398083</ele>
        <time>2021-09-14T11:46:47.612Z</time>
      </trkpt>
      <trkpt lat="49.47314" lon="0.57737">
        <ele>9.234737</ele>
        <time>2021-09-14T11:47:39.463Z</time>
      </trkpt>
      <trkpt lat="49.47447" lon="0.5764">
        <ele>10.487626</ele>
        <time>2021-09-14T11:48:16.804Z</time>
      </trkpt>
      <trkpt lat="49.47529" lon="0.5759">
        <ele>10.605298</ele>
        <time>2021-09-14T11:48:37.302Z</time>
      </trkpt>
      <trkpt lat="49.47562" lon="0.57571">
        <ele>10.574642</ele>
        <time>2021-09-14T11:48:45.079Z</time>
      </trkpt>
      <trkpt lat="49.47788" lon="0.57465">
        <ele>9.728773</ele>
        <time>2021-09-14T11:49:33.834Z</time>
      </trkpt>
      <trkpt lat="49.47877" lon="0.57416">
        <ele>9.598025</ele>
        <time>2021-09-14T11:49:53.345Z</time>
      </trkpt>
      <trkpt lat="49.47973" lon="0.57358">
        <ele>9.553966</ele>
        <time>2021-09-14T11:50:17.132Z</time>
      </trkpt>
      <trkpt lat="49.48" lon="0.57342">
        <ele>9.727161</ele>
        <time>2021-09-14T11:50:23.857Z</time>
      </trkpt>
      <trkpt lat="49.48043" lon="0.57316">
        <ele>10.039664</ele>
        <time>2021-09-14T11:50:35.036Z</time>
      </trkpt>
      <trkpt lat="49.48079" lon="0.57295">
        <ele>10.299276</ele>
        <time>2021-09-14T11:50:44.407Z</time>
      </trkpt>
      <trkpt lat="49.48092" lon="0.57287">
        <ele>10.396727</ele>
        <time>2021-09-14T11:50:48.130Z</time>
      </trkpt>
      <trkpt lat="49.48221" lon="0.57225">
        <ele>11.796044</ele>
        <time>2021-09-14T11:51:24.146Z</time>
      </trkpt>
      <trkpt lat="49.48231" lon="0.5722">
        <ele>11.92828</ele>
        <time>2021-09-14T11:51:27.132Z</time>
      </trkpt>
      <trkpt lat="49.48232" lon="0.57224">
        <ele>11.957473</ele>
        <time>2021-09-14T11:51:27.804Z</time>
      </trkpt>
      <trkpt lat="49.48234" lon="0.57226">
        <ele>11.985326</ele>
        <time>2021-09-14T11:51:28.355Z</time>
      </trkpt>
      <trkpt lat="49.48235" lon="0.57228">
        <ele>12.015167</ele>
        <time>2021-09-14T11:51:28.978Z</time>
      </trkpt>
      <trkpt lat="49.48238" lon="0.5723">
        <ele>12.043465</ele>
        <time>2021-09-14T11:51:29.577Z</time>
      </trkpt>
      <trkpt lat="49.4824" lon="0.5723">
        <ele>12.072807</ele>
        <time>2021-09-14T11:51:30.176Z</time>
      </trkpt>
      <trkpt lat="49.48242" lon="0.57228">
        <ele>12.105978</ele>
        <time>2021-09-14T11:51:30.831Z</time>
      </trkpt>
      <trkpt lat="49.48246" lon="0.57219">
        <ele>12.201889</ele>
        <time>2021-09-14T11:51:32.689Z</time>
      </trkpt>
      <trkpt lat="49.48246" lon="0.57215">
        <ele>12.235262</ele>
        <time>2021-09-14T11:51:33.343Z</time>
      </trkpt>
      <trkpt lat="49.4826" lon="0.57209">
        <ele>12.415076</ele>
        <time>2021-09-14T11:51:37.599Z</time>
      </trkpt>
      <trkpt lat="49.48375" lon="0.57162">
        <ele>13.946287</ele>
        <time>2021-09-14T11:52:11.105Z</time>
      </trkpt>
      <trkpt lat="49.48416" lon="0.57154">
        <ele>14.488872</ele>
        <time>2021-09-14T11:52:22.499Z</time>
      </trkpt>
      <trkpt lat="49.48474" lon="0.57142">
        <ele>15.253029</ele>
        <time>2021-09-14T11:52:38.371Z</time>
      </trkpt>
      <trkpt lat="49.48489" lon="0.5714">
        <ele>15.405302</ele>
        <time>2021-09-14T11:52:42.686Z</time>
      </trkpt>
      <trkpt lat="49.48589" lon="0.57122">
        <ele>15.704137</ele>
        <time>2021-09-14T11:53:08.042Z</time>
      </trkpt>
      <trkpt lat="49.48594" lon="0.5712">
        <ele>15.721323</ele>
        <time>2021-09-14T11:53:09.671Z</time>
      </trkpt>
      <trkpt lat="49.48601" lon="0.57125">
        <ele>15.743573</ele>
        <time>2021-09-14T11:53:11.175Z</time>
      </trkpt>
      <trkpt lat="49.48607" lon="0.57132">
        <ele>15.764865</ele>
        <time>2021-09-14T11:53:12.535Z</time>
      </trkpt>
      <trkpt lat="49.48611" lon="0.57139">
        <ele>15.784044</ele>
        <time>2021-09-14T11:53:13.912Z</time>
      </trkpt>
      <trkpt lat="49.48611" lon="0.57143">
        <ele>15.79291</ele>
        <time>2021-09-14T11:53:14.532Z</time>
      </trkpt>
      <trkpt lat="49.48612" lon="0.57148">
        <ele>15.802988</ele>
        <time>2021-09-14T11:53:15.225Z</time>
      </trkpt>
      <trkpt lat="49.48614" lon="0.57152">
        <ele>15.812711</ele>
        <time>2021-09-14T11:53:15.928Z</time>
      </trkpt>
      <trkpt lat="49.48617" lon="0.57155">
        <ele>15.823569</ele>
        <time>2021-09-14T11:53:16.925Z</time>
      </trkpt>
      <trkpt lat="49.48621" lon="0.57156">
        <ele>15.834416</ele>
        <time>2021-09-14T11:53:17.857Z</time>
      </trkpt>
      <trkpt lat="49.48624" lon="0.57155">
        <ele>15.84468</ele>
        <time>2021-09-14T11:53:18.544Z</time>
      </trkpt>
      <trkpt lat="49.48627" lon="0.57153">
        <ele>15.85367</ele>
        <time>2021-09-14T11:53:19.062Z</time>
      </trkpt>
      <trkpt lat="49.48629" lon="0.57149">
        <ele>15.862505</ele>
        <time>2021-09-14T11:53:19.633Z</time>
      </trkpt>
      <trkpt lat="49.4863" lon="0.57145">
        <ele>15.871641</ele>
        <time>2021-09-14T11:53:20.221Z</time>
      </trkpt>
      <trkpt lat="49.48631" lon="0.57141">
        <ele>15.879972</ele>
        <time>2021-09-14T11:53:20.791Z</time>
      </trkpt>
      <trkpt lat="49.48629" lon="0.57133">
        <ele>15.896462</ele>
        <time>2021-09-14T11:53:21.950Z</time>
      </trkpt>
      <trkpt lat="49.48627" lon="0.57129">
        <ele>15.904813</ele>
        <time>2021-09-14T11:53:22.510Z</time>
      </trkpt>
      <trkpt lat="49.48626" lon="0.57123">
        <ele>15.918573</ele>
        <time>2021-09-14T11:53:23.408Z</time>
      </trkpt>
      <trkpt lat="49.48626" lon="0.57092">
        <ele>15.778716</ele>
        <time>2021-09-14T11:53:27.129Z</time>
      </trkpt>
      <trkpt lat="49.48627" lon="0.57085">
        <ele>15.732093</ele>
        <time>2021-09-14T11:53:28.149Z</time>
      </trkpt>
      <trkpt lat="49.48638" lon="0.5707">
        <ele>15.591483</ele>
        <time>2021-09-14T11:53:31.293Z</time>
      </trkpt>
      <trkpt lat="49.48645" lon="0.57059">
        <ele>15.499125</ele>
        <time>2021-09-14T11:53:33.187Z</time>
      </trkpt>
      <trkpt lat="49.4867" lon="0.57031">
        <ele>15.204183</ele>
        <time>2021-09-14T11:53:39.639Z</time>
      </trkpt>
      <trkpt lat="49.48676" lon="0.57025">
        <ele>15.143758</ele>
        <time>2021-09-14T11:53:40.703Z</time>
      </trkpt>
      <trkpt lat="49.48729" lon="0.56963">
        <ele>14.511006</ele>
        <time>2021-09-14T11:53:53.716Z</time>
      </trkpt>
      <trkpt lat="49.48735" lon="0.56954">
        <ele>14.44052</ele>
        <time>2021-09-14T11:53:54.947Z</time>
      </trkpt>
      <trkpt lat="49.48737" lon="0.5695">
        <ele>14.41023</ele>
        <time>2021-09-14T11:53:55.581Z</time>
      </trkpt>
      <trkpt lat="49.48738" lon="0.56952">
        <ele>14.391522</ele>
        <time>2021-09-14T11:53:55.974Z</time>
      </trkpt>
      <trkpt lat="49.48744" lon="0.5695">
        <ele>14.3382</ele>
        <time>2021-09-14T11:53:57.102Z</time>
      </trkpt>
      <trkpt lat="49.48745" lon="0.56941">
        <ele>14.285864</ele>
        <time>2021-09-14T11:53:58.188Z</time>
      </trkpt>
      <trkpt lat="49.48745" lon="0.56939">
        <ele>14.269573</ele>
        <time>2021-09-14T11:53:58.555Z</time>
      </trkpt>
      <trkpt lat="49.48758" lon="0.5692">
        <ele>14.184512</ele>
        <time>2021-09-14T11:54:01.695Z</time>
      </trkpt>
      <trkpt lat="49.48774" lon="0.56897">
        <ele>14.104349</ele>
        <time>2021-09-14T11:54:06.211Z</time>
      </trkpt>
      <trkpt lat="49.48782" lon="0.56882">
        <ele>14.056955</ele>
        <time>2021-09-14T11:54:08.536Z</time>
      </trkpt>
      <trkpt lat="49.48789" lon="0.5687">
        <ele>14.017615</ele>
        <time>2021-09-14T11:54:11.024Z</time>
      </trkpt>
      <trkpt lat="49.48804" lon="0.56836">
        <ele>13.920136</ele>
        <time>2021-09-14T11:54:16.720Z</time>
      </trkpt>
      <trkpt lat="49.48813" lon="0.56817">
        <ele>13.86548</ele>
        <time>2021-09-14T11:54:20.278Z</time>
      </trkpt>
      <trkpt lat="49.4882" lon="0.568">
        <ele>13.815033</ele>
        <time>2021-09-14T11:54:23.583Z</time>
      </trkpt>
      <trkpt lat="49.48828" lon="0.56783">
        <ele>13.765177</ele>
        <time>2021-09-14T11:54:26.406Z</time>
      </trkpt>
      <trkpt lat="49.48853" lon="0.56726">
        <ele>13.601759</ele>
        <time>2021-09-14T11:54:37.231Z</time>
      </trkpt>
      <trkpt lat="49.48862" lon="0.56708">
        <ele>13.458003</ele>
        <time>2021-09-14T11:54:40.175Z</time>
      </trkpt>
      <trkpt lat="49.48865" lon="0.56699">
        <ele>13.353862</ele>
        <time>2021-09-14T11:54:41.601Z</time>
      </trkpt>
      <trkpt lat="49.48867" lon="0.567">
        <ele>13.322313</ele>
        <time>2021-09-14T11:54:42.137Z</time>
      </trkpt>
      <trkpt lat="49.48873" lon="0.56698">
        <ele>13.228703</ele>
        <time>2021-09-14T11:54:43.429Z</time>
      </trkpt>
      <trkpt lat="49.48874" lon="0.56695">
        <ele>13.196373</ele>
        <time>2021-09-14T11:54:44.008Z</time>
      </trkpt>
      <trkpt lat="49.48875" lon="0.56693">
        <ele>13.167958</ele>
        <time>2021-09-14T11:54:44.404Z</time>
      </trkpt>
      <trkpt lat="49.48874" lon="0.56685">
        <ele>13.083998</ele>
        <time>2021-09-14T11:54:45.246Z</time>
      </trkpt>
      <trkpt lat="49.48873" lon="0.56682">
        <ele>13.055969</ele>
        <time>2021-09-14T11:54:45.608Z</time>
      </trkpt>
      <trkpt lat="49.48879" lon="0.56671">
        <ele>12.913118</ele>
        <time>2021-09-14T11:54:47.493Z</time>
      </trkpt>
      <trkpt lat="49.48906" lon="0.56614">
        <ele>12.19617</ele>
        <time>2021-09-14T11:54:56.033Z</time>
      </trkpt>
      <trkpt lat="49.48912" lon="0.56599">
        <ele>12.019068</ele>
        <time>2021-09-14T11:54:58.156Z</time>
      </trkpt>
      <trkpt lat="49.48917" lon="0.56588">
        <ele>11.880152</ele>
        <time>2021-09-14T11:54:59.574Z</time>
      </trkpt>
      <trkpt lat="49.48929" lon="0.56563">
        <ele>11.575147</ele>
        <time>2021-09-14T11:55:03.185Z</time>
      </trkpt>
      <trkpt lat="49.48933" lon="0.56555">
        <ele>11.468262</ele>
        <time>2021-09-14T11:55:04.478Z</time>
      </trkpt>
      <trkpt lat="49.4893" lon="0.56552">
        <ele>11.420799</ele>
        <time>2021-09-14T11:55:04.935Z</time>
      </trkpt>
      <trkpt lat="49.48927" lon="0.56548">
        <ele>11.352382</ele>
        <time>2021-09-14T11:55:05.750Z</time>
      </trkpt>
      <trkpt lat="49.48884" lon="0.56502">
        <ele>10.393819</ele>
        <time>2021-09-14T11:55:15.252Z</time>
      </trkpt>
      <trkpt lat="49.4887" lon="0.56487">
        <ele>9.954399</ele>
        <time>2021-09-14T11:55:18.289Z</time>
      </trkpt>
      <trkpt lat="49.48864" lon="0.5648">
        <ele>9.781249</ele>
        <time>2021-09-14T11:55:19.485Z</time>
      </trkpt>
      <trkpt lat="49.48863" lon="0.56471">
        <ele>9.628781</ele>
        <time>2021-09-14T11:55:20.602Z</time>
      </trkpt>
      <trkpt lat="49.48877" lon="0.56441">
        <ele>9.038932</ele>
        <time>2021-09-14T11:55:24.679Z</time>
      </trkpt>
      <trkpt lat="49.48875" lon="0.56437">
        <ele>8.96639</ele>
        <time>2021-09-14T11:55:25.158Z</time>
      </trkpt>
      <trkpt lat="49.48871" lon="0.56423">
        <ele>8.705697</ele>
        <time>2021-09-14T11:55:26.908Z</time>
      </trkpt>
      <trkpt lat="49.48866" lon="0.56405">
        <ele>8.389805</ele>
        <time>2021-09-14T11:55:29.067Z</time>
      </trkpt>
      <trkpt lat="49.48864" lon="0.564">
        <ele>8.301434</ele>
        <time>2021-09-14T11:55:29.668Z</time>
      </trkpt>
      <trkpt lat="49.4886" lon="0.56392">
        <ele>8.125393</ele>
        <time>2021-09-14T11:55:30.726Z</time>
      </trkpt>
      <trkpt lat="49.48852" lon="0.56382">
        <ele>7.874481</ele>
        <time>2021-09-14T11:55:32.368Z</time>
      </trkpt>
      <trkpt lat="49.48845" lon="0.56373">
        <ele>7.651962</ele>
        <time>2021-09-14T11:55:33.838Z</time>
      </trkpt>
      <trkpt lat="49.4883" lon="0.56357">
        <ele>7.187665</ele>
        <time>2021-09-14T11:55:36.963Z</time>
      </trkpt>
      <trkpt lat="49.48807" lon="0.5633">
        <ele>6.455276</ele>
        <time>2021-09-14T11:55:41.948Z</time>
      </trkpt>
      <trkpt lat="49.48748" lon="0.5626">
        <ele>5.586291</ele>
        <time>2021-09-14T11:55:55.363Z</time>
      </trkpt>
      <trkpt lat="49.48736" lon="0.56246">
        <ele>5.425009</ele>
        <time>2021-09-14T11:55:58.426Z</time>
      </trkpt>
      <trkpt lat="49.48726" lon="0.56234">
        <ele>5.299296</ele>
        <time>2021-09-14T11:56:00.825Z</time>
      </trkpt>
      <trkpt lat="49.48681" lon="0.56181">
        <ele>4.724103</ele>
        <time>2021-09-14T11:56:12.316Z</time>
      </trkpt>
      <trkpt lat="49.48673" lon="0.56164">
        <ele>4.582239</ele>
        <time>2021-09-14T11:56:15.152Z</time>
      </trkpt>
      <trkpt lat="49.48664" lon="0.56147">
        <ele>4.434719</ele>
        <time>2021-09-14T11:56:18.220Z</time>
      </trkpt>
      <trkpt lat="49.48512" lon="0.55966">
        <ele>4.544885</ele>
        <time>2021-09-14T11:57:01.972Z</time>
      </trkpt>
      <trkpt lat="49.48475" lon="0.55895">
        <ele>4.472397</ele>
        <time>2021-09-14T11:57:15.367Z</time>
      </trkpt>
      <trkpt lat="49.48479" lon="0.55879">
        <ele>4.458482</ele>
        <time>2021-09-14T11:57:17.739Z</time>
      </trkpt>
      <trkpt lat="49.48478" lon="0.55872">
        <ele>4.453432</ele>
        <time>2021-09-14T11:57:18.983Z</time>
      </trkpt>
      <trkpt lat="49.48477" lon="0.5585">
        <ele>4.435145</ele>
        <time>2021-09-14T11:57:22.149Z</time>
      </trkpt>
      <trkpt lat="49.48472" lon="0.55839">
        <ele>4.424347</ele>
        <time>2021-09-14T11:57:23.994Z</time>
      </trkpt>
      <trkpt lat="49.48467" lon="0.55829">
        <ele>4.414258</ele>
        <time>2021-09-14T11:57:25.667Z</time>
      </trkpt>
      <trkpt lat="49.48442" lon="0.55831">
        <ele>4.383434</ele>
        <time>2021-09-14T11:57:31.228Z</time>
      </trkpt>
      <trkpt lat="49.48358" lon="0.55666">
        <ele>3.823275</ele>
        <time>2021-09-14T11:57:58.948Z</time>
      </trkpt>
      <trkpt lat="49.48271" lon="0.55498">
        <ele>3.278358</ele>
        <time>2021-09-14T11:58:27.712Z</time>
      </trkpt>
      <trkpt lat="49.4824" lon="0.55436">
        <ele>3.169718</ele>
        <time>2021-09-14T11:58:38.746Z</time>
      </trkpt>
      <trkpt lat="49.48197" lon="0.55351">
        <ele>3.022488</ele>
        <time>2021-09-14T11:58:54.067Z</time>
      </trkpt>
      <trkpt lat="49.48123" lon="0.5521">
        <ele>3.130339</ele>
        <time>2021-09-14T11:59:20.796Z</time>
      </trkpt>
      <trkpt lat="49.479" lon="0.54778">
        <ele>3.831098</ele>
        <time>2021-09-14T12:00:42.386Z</time>
      </trkpt>
      <trkpt lat="49.4787" lon="0.54719">
        <ele>3.997673</ele>
        <time>2021-09-14T12:00:54.670Z</time>
      </trkpt>
      <trkpt lat="49.47865" lon="0.54665">
        <ele>4.066791</ele>
        <time>2021-09-14T12:01:03.450Z</time>
      </trkpt>
      <trkpt lat="49.47861" lon="0.54657">
        <ele>4.072989</ele>
        <time>2021-09-14T12:01:05.204Z</time>
      </trkpt>
      <trkpt lat="49.47857" lon="0.54648">
        <ele>4.079692</ele>
        <time>2021-09-14T12:01:07.164Z</time>
      </trkpt>
      <trkpt lat="49.47841" lon="0.54632">
        <ele>4.097293</ele>
        <time>2021-09-14T12:01:11.670Z</time>
      </trkpt>
      <trkpt lat="49.47829" lon="0.54609">
        <ele>4.115602</ele>
        <time>2021-09-14T12:01:16.804Z</time>
      </trkpt>
      <trkpt lat="49.47815" lon="0.54609">
        <ele>4.128278</ele>
        <time>2021-09-14T12:01:19.998Z</time>
      </trkpt>
      <trkpt lat="49.47496" lon="0.54007">
        <ele>4.033185</ele>
        <time>2021-09-14T12:03:10.562Z</time>
      </trkpt>
      <trkpt lat="49.47493" lon="0.54002">
        <ele>4.016192</ele>
        <time>2021-09-14T12:03:11.579Z</time>
      </trkpt>
      <trkpt lat="49.47442" lon="0.53889">
        <ele>3.683624</ele>
        <time>2021-09-14T12:03:29.749Z</time>
      </trkpt>
      <trkpt lat="49.47439" lon="0.53881">
        <ele>3.659756</ele>
        <time>2021-09-14T12:03:30.978Z</time>
      </trkpt>
      <trkpt lat="49.4741" lon="0.53818">
        <ele>3.485948</ele>
        <time>2021-09-14T12:03:41.130Z</time>
      </trkpt>
      <trkpt lat="49.47389" lon="0.53665">
        <ele>3.166882</ele>
        <time>2021-09-14T12:04:02.729Z</time>
      </trkpt>
      <trkpt lat="49.47378" lon="0.53657">
        <ele>3.129528</ele>
        <time>2021-09-14T12:04:05.625Z</time>
      </trkpt>
      <trkpt lat="49.47378" lon="0.53649">
        <ele>3.112435</ele>
        <time>2021-09-14T12:04:06.822Z</time>
      </trkpt>
      <trkpt lat="49.47377" lon="0.53641">
        <ele>3.095331</ele>
        <time>2021-09-14T12:04:07.917Z</time>
      </trkpt>
      <trkpt lat="49.47375" lon="0.53633">
        <ele>3.078502</ele>
        <time>2021-09-14T12:04:09.009Z</time>
      </trkpt>
      <trkpt lat="49.47371" lon="0.53627">
        <ele>3.060764</ele>
        <time>2021-09-14T12:04:10.182Z</time>
      </trkpt>
      <trkpt lat="49.47366" lon="0.53622">
        <ele>3.042871</ele>
        <time>2021-09-14T12:04:11.575Z</time>
      </trkpt>
      <trkpt lat="49.47361" lon="0.53619">
        <ele>3.025187</ele>
        <time>2021-09-14T12:04:12.921Z</time>
      </trkpt>
      <trkpt lat="49.47355" lon="0.53618">
        <ele>3.005391</ele>
        <time>2021-09-14T12:04:14.459Z</time>
      </trkpt>
      <trkpt lat="49.47338" lon="0.53631">
        <ele>2.913868</ele>
        <time>2021-09-14T12:04:18.259Z</time>
      </trkpt>
      <trkpt lat="49.47335" lon="0.53639">
        <ele>2.877865</ele>
        <time>2021-09-14T12:04:19.686Z</time>
      </trkpt>
      <trkpt lat="49.47333" lon="0.53651">
        <ele>2.836163</ele>
        <time>2021-09-14T12:04:21.281Z</time>
      </trkpt>
      <trkpt lat="49.47337" lon="0.53672">
        <ele>2.754086</ele>
        <time>2021-09-14T12:04:24.166Z</time>
      </trkpt>
      <trkpt lat="49.47342" lon="0.5368">
        <ele>2.715723</ele>
        <time>2021-09-14T12:04:25.498Z</time>
      </trkpt>
      <trkpt lat="49.47325" lon="0.53707">
        <ele>2.578877</ele>
        <time>2021-09-14T12:04:32.220Z</time>
      </trkpt>
      <trkpt lat="49.47296" lon="0.5365">
        <ele>2.31288</ele>
        <time>2021-09-14T12:04:41.571Z</time>
      </trkpt>
      <trkpt lat="49.47293" lon="0.53589">
        <ele>2.087363</ele>
        <time>2021-09-14T12:04:49.760Z</time>
      </trkpt>
      <trkpt lat="49.47292" lon="0.53576">
        <ele>2.041459</ele>
        <time>2021-09-14T12:04:51.320Z</time>
      </trkpt>
      <trkpt lat="49.47299" lon="0.5357">
        <ele>1.995087</ele>
        <time>2021-09-14T12:04:53.601Z</time>
      </trkpt>
      <trkpt lat="49.47304" lon="0.53556">
        <ele>1.950158</ele>
        <time>2021-09-14T12:04:55.605Z</time>
      </trkpt>
      <trkpt lat="49.47298" lon="0.53546">
        <ele>1.920122</ele>
        <time>2021-09-14T12:04:57.250Z</time>
      </trkpt>
      <trkpt lat="49.47294" lon="0.53534">
        <ele>1.887771</ele>
        <time>2021-09-14T12:04:58.981Z</time>
      </trkpt>
      <trkpt lat="49.47243" lon="0.53417">
        <ele>1.555748</ele>
        <time>2021-09-14T12:05:11.709Z</time>
      </trkpt>
      <trkpt lat="49.47207" lon="0.53372">
        <ele>1.388779</ele>
        <time>2021-09-14T12:05:18.117Z</time>
      </trkpt>
      <trkpt lat="49.46993" lon="0.53245">
        <ele>4.579734</ele>
        <time>2021-09-14T12:05:50.111Z</time>
      </trkpt>
      <trkpt lat="49.4697" lon="0.53207">
        <ele>5.498656</ele>
        <time>2021-09-14T12:05:54.734Z</time>
      </trkpt>
      <trkpt lat="49.46967" lon="0.53174">
        <ele>6.093086</ele>
        <time>2021-09-14T12:05:57.725Z</time>
      </trkpt>
      <trkpt lat="49.46972" lon="0.53101">
        <ele>7.413433</ele>
        <time>2021-09-14T12:06:04.366Z</time>
      </trkpt>
      <trkpt lat="49.46975" lon="0.53091">
        <ele>7.603576</ele>
        <time>2021-09-14T12:06:06.393Z</time>
      </trkpt>
      <trkpt lat="49.46977" lon="0.53081">
        <ele>7.804747</ele>
        <time>2021-09-14T12:06:08.441Z</time>
      </trkpt>
      <trkpt lat="49.46978" lon="0.53076">
        <ele>7.897004</ele>
        <time>2021-09-14T12:06:09.653Z</time>
      </trkpt>
      <trkpt lat="49.46978" lon="0.53071">
        <ele>7.994154</ele>
        <time>2021-09-14T12:06:11.110Z</time>
      </trkpt>
      <trkpt lat="49.46971" lon="0.53056">
        <ele>8.305978</ele>
        <time>2021-09-14T12:06:15.851Z</time>
      </trkpt>
      <trkpt lat="49.47" lon="0.5302">
        <ele>9.648607</ele>
        <time>2021-09-14T12:06:30.516Z</time>
      </trkpt>
      <trkpt lat="49.47008" lon="0.53013">
        <ele>10.026492</ele>
        <time>2021-09-14T12:06:33.792Z</time>
      </trkpt>
      <trkpt lat="49.47012" lon="0.53012">
        <ele>10.202687</ele>
        <time>2021-09-14T12:06:34.984Z</time>
      </trkpt>
      <trkpt lat="49.47017" lon="0.52999">
        <ele>10.61829</ele>
        <time>2021-09-14T12:06:39.870Z</time>
      </trkpt>
      <trkpt lat="49.47065" lon="0.52944">
        <ele>13.065636</ele>
        <time>2021-09-14T12:07:05.517Z</time>
      </trkpt>
      <trkpt lat="49.47067" lon="0.52932">
        <ele>13.389146</ele>
        <time>2021-09-14T12:07:08.753Z</time>
      </trkpt>
      <trkpt lat="49.47056" lon="0.52936">
        <ele>13.859596</ele>
        <time>2021-09-14T12:07:15.215Z</time>
      </trkpt>
      <trkpt lat="49.47038" lon="0.52931">
        <ele>14.582832</ele>
        <time>2021-09-14T12:07:20.117Z</time>
      </trkpt>
      <trkpt lat="49.47036" lon="0.52932">
        <ele>14.667792</ele>
        <time>2021-09-14T12:07:21.291Z</time>
      </trkpt>
      <trkpt lat="49.47008" lon="0.52951">
        <ele>15.939172</ele>
        <time>2021-09-14T12:07:32.118Z</time>
      </trkpt>
      <trkpt lat="49.46956" lon="0.52972">
        <ele>17.010664</ele>
        <time>2021-09-14T12:07:50.831Z</time>
      </trkpt>
      <trkpt lat="49.46954" lon="0.52972">
        <ele>17.055419</ele>
        <time>2021-09-14T12:07:53.036Z</time>
      </trkpt>
      <trkpt lat="49.46946" lon="0.5297">
        <ele>17.211114</ele>
        <time>2021-09-14T12:07:55.275Z</time>
      </trkpt>
      <trkpt lat="49.46933" lon="0.52966">
        <ele>17.464305</ele>
        <time>2021-09-14T12:07:59.215Z</time>
      </trkpt>
      <trkpt lat="49.469" lon="0.52921">
        <ele>18.295449</ele>
        <time>2021-09-14T12:08:13.507Z</time>
      </trkpt>
      <trkpt lat="49.46879" lon="0.52895">
        <ele>18.828481</ele>
        <time>2021-09-14T12:08:21.533Z</time>
      </trkpt>
      <trkpt lat="49.46808" lon="0.52835">
        <ele>19.007608</ele>
        <time>2021-09-14T12:08:39.373Z</time>
      </trkpt>
      <trkpt lat="49.46779" lon="0.52792">
        <ele>18.612605</ele>
        <time>2021-09-14T12:08:47.077Z</time>
      </trkpt>
      <trkpt lat="49.46749" lon="0.52749">
        <ele>18.212675</ele>
        <time>2021-09-14T12:08:55.012Z</time>
      </trkpt>
      <trkpt lat="49.46714" lon="0.52701">
        <ele>17.761015</ele>
        <time>2021-09-14T12:09:04.345Z</time>
      </trkpt>
      <trkpt lat="49.46676" lon="0.52682">
        <ele>17.182616</ele>
        <time>2021-09-14T12:09:11.895Z</time>
      </trkpt>
      <trkpt lat="49.46607" lon="0.52644">
        <ele>16.08545</ele>
        <time>2021-09-14T12:09:25.538Z</time>
      </trkpt>
      <trkpt lat="49.4658" lon="0.52629">
        <ele>15.662096</ele>
        <time>2021-09-14T12:09:30.710Z</time>
      </trkpt>
      <trkpt lat="49.46555" lon="0.52615">
        <ele>15.264699</ele>
        <time>2021-09-14T12:09:35.432Z</time>
      </trkpt>
      <trkpt lat="49.46491" lon="0.52604">
        <ele>14.090891</ele>
        <time>2021-09-14T12:09:46.827Z</time>
      </trkpt>
      <trkpt lat="49.46462" lon="0.52603">
        <ele>13.524986</ele>
        <time>2021-09-14T12:09:51.918Z</time>
      </trkpt>
      <trkpt lat="49.46395" lon="0.52595">
        <ele>12.227683</ele>
        <time>2021-09-14T12:10:03.756Z</time>
      </trkpt>
      <trkpt lat="49.46341" lon="0.52583">
        <ele>11.208444</ele>
        <time>2021-09-14T12:10:13.593Z</time>
      </trkpt>
      <trkpt lat="49.46307" lon="0.52579">
        <ele>10.624005</ele>
        <time>2021-09-14T12:10:19.504Z</time>
      </trkpt>
      <trkpt lat="49.46229" lon="0.52592">
        <ele>9.259064</ele>
        <time>2021-09-14T12:10:33.665Z</time>
      </trkpt>
      <trkpt lat="49.46218" lon="0.52589">
        <ele>9.075298</ele>
        <time>2021-09-14T12:10:35.700Z</time>
      </trkpt>
      <trkpt lat="49.46209" lon="0.52581">
        <ele>8.883718</ele>
        <time>2021-09-14T12:10:37.566Z</time>
      </trkpt>
      <trkpt lat="49.46192" lon="0.52555">
        <ele>8.471576</ele>
        <time>2021-09-14T12:10:42.154Z</time>
      </trkpt>
      <trkpt lat="49.46186" lon="0.52553">
        <ele>8.388485</ele>
        <time>2021-09-14T12:10:43.089Z</time>
      </trkpt>
      <trkpt lat="49.46132" lon="0.52577">
        <ele>7.658178</ele>
        <time>2021-09-14T12:10:53.544Z</time>
      </trkpt>
      <trkpt lat="49.46087" lon="0.52596">
        <ele>7.061312</ele>
        <time>2021-09-14T12:11:01.887Z</time>
      </trkpt>
      <trkpt lat="49.46044" lon="0.52591">
        <ele>6.508802</ele>
        <time>2021-09-14T12:11:09.758Z</time>
      </trkpt>
      <trkpt lat="49.45958" lon="0.52625">
        <ele>6.40484</ele>
        <time>2021-09-14T12:11:28.676Z</time>
      </trkpt>
      <trkpt lat="49.45946" lon="0.52628">
        <ele>6.462854</ele>
        <time>2021-09-14T12:11:31.287Z</time>
      </trkpt>
      <trkpt lat="49.45952" lon="0.52694">
        <ele>6.66752</ele>
        <time>2021-09-14T12:11:42.465Z</time>
      </trkpt>
    </trkseg>
  </trk>
</gpx>